     2              OBSERVATION DATA    GPS                 RINEX VERSION / TYPE
TRRINEXO V2.8.4 LH                                          PGM / RUN BY / DATE
                                                            COMMENT
Original Marker Name: TID8                                  COMMENT
Campaign Name: HPGN 1991                                    COMMENT
4-Character Station Name: TID8                              COMMENT
6-Character Antenna Code: TRMSST                            COMMENT
Vertical Measurement Point: TGP                             COMMENT
Vertical Offset to Rinex Ref. Point: 0.0629                 COMMENT
Radial Measurement Point: OGP                               COMMENT
Radial Offset to Rinex Ref. Point: 0.2413                   COMMENT
Antenna Height from Field Measurement: 1.8330 m             COMMENT
Original XYZ: -2515467.6127 -4677036.6357 3520642.7561      COMMENT
New XYZ position is based on association with SCEC monument COMMENT
E1C7V3E6+0011. Position of that monument is believed to be  COMMENT
valid to within 1 m horizontally; vertical accuracy         COMMENT
should be no worse than 3-times this value.                 COMMENT
                                                            COMMENT
Revised Rinex header created by UCSD GPS archive for        COMMENT
GSAC on 06-Apr-1999 (1999:096) 00:25:20 GMT                 COMMENT
For assistance contact dagnew@ucsd.edu or hjohnson@ucsd.edu COMMENT
                                                            COMMENT
TID8                                                        MARKER NAME
UNKNOWN OBSERVER NATIONAL GEODETIC SURVEY                   OBSERVER / AGENCY
483 TRIMBLE 4000 SST 4.30 / 4.20                            REC # / TYPE / VERS
19 TR 4000SST L1/L2 GEO                                     ANT # / TYPE
 -2515450.0000 -4677007.0000  3520624.0000                  APPROX POSITION XYZ
        1.7541        0.0000        0.0000                  ANTENNA: DELTA H/E/N
     1     2     0                                          WAVELENGTH FACT L1/2
     3    C1    L1    L2                                    # / TYPES OF OBSERV
     0                                                      INTERVAL
  1991     4    23    20    15   45.000000                  TIME OF FIRST OBS
  1991     4    24     1    57   60.000000                  TIME OF LAST OBS
     0                                                      # OF SATELLITES
                                                            END OF HEADER
 91  4 23 20 15 45.0000000  0  5 18 02 11 16 19
  21124707.922          -0.25717        -0.26513
  23184641.156          -0.60616        -0.30611
  23473874.297          -0.51616        -0.38211
  24361971.398          -0.81515        -0.26911
  21046668.273          -0.90017        -0.29712
 91  4 23 20 16  0.0000000  0  5 18 02 11 16 19
  21129716.195       26317.620 8     20507.121 3
  23176722.203      -41627.593 6    -32436.801 1
  23469843.047      -21151.537 6    -16481.613 1
  24357318.148      -24471.716 5    -19068.505 1
  21046870.508        1064.145 7       829.607 2
 91  4 23 20 16 15.0000000  0  5 18 02 11 16 19
  21134733.234       52680.312 8     41049.415 3
  23168801.469      -83256.818 6    -64875.039 1
  23465832.273      -42242.153 6    -32915.763 1
  24352665.359      -48884.664 5    -38091.603 1
  21047070.172        2107.219 7      1642.391 2
 91  4 23 20 16 30.0000000  0  5 18 02 11 16 19
  21139761.477       79100.747 8     61636.723 3
  23160879.305     -124874.927 6    -97304.601 1
  23461835.289      -63258.884 6    -49292.351 1
  24348037.844      -73226.496 5    -57059.265 1
  21047267.008        3141.342 7      2448.196 2
 91  4 23 20 16 45.0000000  0  5 18 02 11 16 19
  21144803.008      105594.127 8     82280.875 3
  23152963.430     -166466.431 6   -129713.443 1
  23457849.914      -84186.055 6    -65599.156 1
  24343415.313      -97481.559 5    -75959.322 1
  21047464.008        4181.828 7      3258.965 2
 91  4 23 20 17  0.0000000  0  5 18 02 11 16 19
  21149860.117      132170.091 8    102989.372 3
  23145055.805     -208021.625 6   -162094.008 1
  23453890.719     -105013.816 6    -81828.483 1
  24338818.148     -121640.471 5    -94784.403 1
  21047663.125        5238.280 7      4082.174 2
 91  4 23 20 17 15.0000000  0  5 18 02 11 16 19
  21154934.438      158829.998 8    123763.264 3
  23137155.625     -249538.842 6   -194444.962 1
  23449945.719     -125740.458 6    -97979.041 1
  24334244.047     -145701.433 5   -113533.222 1
  21047868.008        6312.204 6      4918.997 2
 91  4 23 20 17 30.0000000  0  5 18 02 11 16 19
  21160023.016      185580.385 7    144607.655 3
  23129265.820     -291011.372 6   -226761.112 1
  23446027.211     -146358.937 6   -114045.292 1
  24329688.148     -169657.370 5   -132200.184 1
  21048075.563        7410.496 7      5774.812 2
 91  4 23 20 17 45.0000000  0  5 18 02 11 16 19
  21165127.617      212422.298 7    165523.376 3
  23121383.016     -332437.857 6   -259041.378 1
  23442117.313     -166867.883 6   -130026.181 1
  24325149.211     -193507.168 5   -150784.441 1
  21048292.992        8534.117 7      6650.369 2
 91  4 23 20 18  0.0000000  0  5 18 02 11 16 19
  21170256.641      239360.633 7    186514.213 3
  23113508.641     -373813.112 6   -291281.718 1
  23438238.883     -187261.839 6   -145917.459 1
  24320625.945     -217245.525 5   -169281.815 1
  21048510.125        9688.331 7      7549.755 2
 91  4 23 20 18 15.0000000  0  5 18 02 11 16 19
  21175401.609      266396.154 8    207580.790 3
  23105643.117     -415136.473 6   -323481.624 1
  23434381.242     -207540.139 6   -161718.679 1
  24316133.922     -240871.912 5   -187692.000 1
  21048737.688       10873.667 6      8473.397 2
 91  4 23 20 18 30.0000000  0  5 18 02 11 16 19
  21180566.211      293521.418 8    228717.308 3
  23097787.492     -456414.805 6   -355646.454 1
  23430540.398     -227709.377 6   -177434.883 1
  24311658.320     -264393.021 6   -206020.138 1
  21048964.039       12083.077 7      9415.799 2
 91  4 23 20 18 45.0000000  0  5 18 02 11 16 19
  21185744.164      320751.162 7    249935.236 3
  23089946.016     -497633.042 6   -387764.440 1
  23426730.570     -247754.612 6   -193054.463 1
  24307209.047     -287793.888 6   -224254.587 1
  21049205.773       13331.441 6     10388.551 2
 91  4 23 20 19  0.0000000  0  5 18 02 11 16 19
  21190945.109      348076.307 8    271227.495 4
  23082108.945     -538800.278 6   -419842.681 1
  23422934.414     -267684.878 6   -208584.469 1
  24302775.125     -311083.576 6   -242402.374 1
  21049447.727       14609.423 7     11384.385 2
 91  4 23 20 19 15.0000000  0  5 18 02 11 16 19
  21196162.617      375500.230 7    292596.736 4
  23074286.617     -579912.946 6   -451878.417 1
  23419167.445     -287496.235 6   -224021.817 1
  24298367.898     -334258.191 6   -260460.525 1
  21049697.258       15920.690 6     12406.149 2
 91  4 23 20 19 30.0000000  0  5 18 02 11 16 19
  21201401.781      403023.345 8    314043.275 3
  23066472.305     -620970.333 6   -483871.067 1
  23415415.070     -307187.755 6   -239365.792 1
  24293971.742     -357317.193 5   -278428.587 1
  21049952.078       17266.040 6     13454.478 2
 91  4 23 20 19 45.0000000  0  5 18 02 11 16 19
  21206658.117      430642.421 8    335564.575 3
  23058673.680     -661975.498 6   -515823.022 1
  23411693.539     -326762.311 6   -254618.605 1
  24289608.672     -380263.599 5   -296308.902 1
  21050216.219       18642.064 6     14526.713 2
 91  4 23 20 20  0.0000000  0  5 18 02 11 16 19
  21211932.711      458365.082 8    357166.581 3
  23050879.125     -702920.630 6   -547728.210 1
  23407988.320     -346212.018 6   -269774.144 1
  24285262.570     -403089.568 5   -314095.394 1
  21050482.945       20056.431 6     15628.823 2
 91  4 23 20 20 15.0000000  0  5 18 02 11 16 19
  21217227.492      486186.786 8    378845.768 3
  23043098.781     -743809.715 6   -579589.724 1
  23404313.836     -365540.811 6   -284835.445 1
  24280941.992     -425799.117 5   -331791.140 1
  21050760.977       21504.942 6     16757.536 2
 91  4 23 20 20 30.0000000  0  5 18 02 11 16 19
  21222540.344      514107.683 8    400602.253 3
  23035329.109     -784642.768 6   -611407.585 1
  23400656.563     -384748.418 6   -299802.341 1
  24276644.688     -448392.068 5   -349396.030 1
  21051042.398       22987.731 6     17912.956 2
 91  4 23 20 20 45.0000000  0  5 18 02 11 16 19
  21227873.805      542127.157 8    422435.548 3
  23027567.461     -825419.873 6   -643181.837 2
  23397026.227     -403834.846 6   -314674.790 1
  24272366.164     -470868.526 5   -366910.155 1
  21051331.672       24504.557 6     19094.894 2
 91  4 23 20 21  0.0000000  0  5 18 02 11 16 19
  21233225.164      570251.123 7    444350.261 3
  23019820.625     -866134.978 6   -674907.791 2
  23393415.922     -422794.010 6   -329448.106 1
  24268117.625     -493222.475 5   -384328.820 1
  21051625.555       26061.238 7     20307.889 2
 91  4 23 20 21 15.0000000  0  5 18 02 11 16 19
  21238592.898      598473.642 7    466341.783 3
  23012086.211     -906793.911 6   -706589.959 1
  23389829.563     -441631.542 6   -344126.631 1
  24263881.695     -515459.838 5   -401656.626 1
  21051929.391       27652.008 7     21547.443 2
 91  4 23 20 21 30.0000000  0  5 18 02 11 16 19
  21243985.305      626793.225 7    488408.916 3
  23004358.094     -947397.820 6   -738229.254 1
  23386269.656     -460348.371 6   -358711.099 1
  24259672.383     -537581.691 5   -418894.429 1
  21052238.977       29275.642 7     22812.600 2
 91  4 23 20 21 45.0000000  0  5 18 02 11 16 19
  21249390.844      655212.763 7    510553.952 3
  22996641.227     -987943.425 6   -769823.128 1
  23382736.461     -478941.206 6   -373198.964 1
  24255482.914     -559584.508 5   -436039.473 1
  21052555.273       30935.217 7     24105.768 2
 91  4 23 20 22  0.0000000  0  5 18 02 11 16 19
  21254818.547      683731.734 7    532776.461 3
  22988939.180    -1028431.038 6   -801371.792 1
  23379219.578     -497410.259 6   -387590.359 1
  24251318.016     -581469.021 5   -453092.325 1
  21052873.945       32630.277 7     25426.586 2
 91  4 23 20 22 15.0000000  0  5 18 02 11 16 19
  21260265.250      712349.258 8    555075.762 3
  22981244.094    -1068861.642 6   -832876.049 1
  23375728.289     -515756.359 6   -401885.940 1
  24247175.875     -603235.945 5   -470053.556 1
  21053207.711       34359.774 6     26774.229 2
 91  4 23 20 22 30.0000000  0  5 18 02 11 16 19
  21265729.258      741066.297 8    577452.615 3
  22973560.742    -1109233.740 6   -864334.718 1
  23372259.797     -533977.893 6   -416084.473 1
  24243057.227     -624883.885 5   -486922.070 1
  21053539.063       36125.005 6     28149.726 2
 91  4 23 20 22 45.0000000  0  5 18 02 11 16 19
  21271212.969      769879.836 8    599904.654 3
  22965890.500    -1149549.917 6   -895749.797 1
  23368814.438     -552077.281 6   -430187.814 1
  24238957.141     -646415.340 5   -503699.823 1
  21053885.656       37923.301 6     29550.982 2
 91  4 23 20 23  0.0000000  0  5 18 02 11 16 19
  21276714.117      798789.231 8    622431.394 3
  22958227.078    -1189810.974 6   -927121.955 1
  23365391.922     -570055.199 6   -444196.489 1
  24234890.828     -667830.925 5   -520387.286 1
  21054230.828       39753.991 6     30977.481 2
 91  4 23 20 23 15.0000000  0  5 18 02 11 16 19
  21282233.836      827796.257 8    645034.209 3
  22950577.180    -1230014.941 6   -958449.620 1
  23361997.641     -587909.332 6   -458108.724 1
  24230831.297     -689128.778 5   -536983.027 1
  21054587.703       41618.976 6     32430.705 2
 91  4 23 20 23 30.0000000  0  5 18 02 11 16 19
  21287775.250      856904.144 8    667715.606 3
  22942936.445    -1270158.096 6   -989729.890 1
  23358620.031     -605635.932 6   -471921.581 1
  24226800.875     -710305.075 5   -553484.041 1
  21054946.672       43521.846 6     33913.449 2
 91  4 23 20 23 45.0000000  0  6 18 02 11 06 16 19
  21293329.344      886111.277 7    690474.338 3
  22935309.180    -1310241.757 6  -1020963.800 1
  23355269.023     -623236.369 6   -485636.137 1
  24605943.461          -0.84214
  24222796.320     -731361.196 5   -569891.427 1
  21055317.969       45461.081 6     35424.525 2
 91  4 23 20 24  0.0000000  0  6 18 02 11 06 16 19
  21298908.070      915419.155 8    713311.573 3
  22927694.945    -1350264.456 6  -1052150.209 1
  23351944.656     -640708.789 6   -499250.940 1
  24599670.531      -32924.079 4
  24218814.969     -752295.707 4   -586204.046 1
  21055690.750       47438.265 6     36965.173 2
 91  4 23 20 24 15.0000000  0  6 18 02 11 06 16 19
  21304503.289      944826.042 7    736225.968 3
  22920091.398    -1390227.639 6  -1083290.247 1
  23348650.242     -658054.606 6   -512767.101 1
  24593389.281      -65840.728 4
  24214854.617     -773110.107 4   -602423.059 1
  21056078.211       49451.702 6     38534.068 2
 91  4 23 20 24 30.0000000  0  6 18 02 11 06 16 19
  21310122.695      974334.549 8    759219.540 3
  22912497.570    -1430128.102 6  -1114381.412 1
  23345369.734     -675270.628 6   -526182.109 1
  24587139.227      -98747.908 4
  24210923.000     -793801.257 5   -618546.018 1
  21056470.516       51504.326 6     40133.498 2
 91  4 23 20 24 45.0000000  0  6 18 02 11 06 16 19
  21315755.398     1003946.343 7    782293.598 3
  22904916.531    -1469964.502 7  -1145422.654 1
  23342123.406     -692355.264 6   -539494.744 1
  24580882.539     -131644.145 4
  24207006.594     -814367.482 4   -634571.680 1
  21056867.586       53597.779 6     41764.745 2
 91  4 23 20 25  0.0000000  0  6 18 02 11 06 16 19
  21321406.906     1033657.021 8    805444.716 3
  22897347.984    -1509740.750 7  -1176417.021 1
  23338890.727     -709312.337 6   -552707.976 1
  24574619.844     -164533.758 4        -0.29711
  24203106.102     -834812.579 3   -650502.901 1
  21057270.672       55727.966 6     43424.610 2
 91  4 23 20 25 15.0000000  0  6 18 02 11 06 16 19
  21327083.977     1063469.959 8    828675.511 3
  22889791.180    -1549453.239 7  -1207361.712 2
  23335691.906     -726138.131 6   -565818.908 1
  24568355.844     -197413.382 4    -25620.685 1
  24199244.281     -855133.088 4   -666337.044 1
  21057686.391       57898.263 6     45115.736 2
 91  4 23 20 25 30.0000000  0  6 18 02 11 06 16 19
  21332775.867     1093384.631 8    851985.573 1
  22882244.352    -1589102.280 6  -1238256.957 1
  23332511.961     -742832.766 6   -578827.644 1
  24562097.203     -230283.283 4
  24195403.414     -875329.451 5   -682074.478 1
  21058107.141       60108.398 6     46837.908 1
 91  4 23 20 25 45.0000000  0  6 18 02 11 06 16 19
  21338487.992     1123398.595 8    875373.102 3
  22874712.383    -1628690.065 6  -1269104.346 1
  23329359.844     -759398.355 6   -591735.700 1
  24555852.711     -263146.077 4
  24191582.227     -895403.841 5   -697716.706 1
  21058535.242       62356.084 6     48589.482 2
 91  4 23 20 26  0.0000000  0  6 18 02 11 06 16 19
  21344213.602     1153508.864 7    898835.568 2
  22867188.211    -1668219.059 6  -1299906.072 1
  23326230.359     -775837.312 6   -604545.236 1
  24549601.734     -296004.221 4
  24187787.461     -915359.002 5   -713266.237 1
  21058967.742       64638.747 7     50368.145 2
 91  4 23 20 26 15.0000000  0  6 18 02 11 06 16 19
  21349965.008     1183718.908 7    922375.781 2
  22859679.453    -1707685.777 6  -1330659.261 1
  23323125.031     -792146.091 6   -617253.301 1
  24543353.953     -328854.427 4
  24184016.141     -935191.020 5   -728719.762 1
  21059409.938       66959.735 7     52176.695 2
 91  4 23 20 26 30.0000000  0  6 18 02 11 06 16 19
  21355732.188     1214027.979 7    945993.164 3
  22852177.531    -1747090.750 6  -1361364.333 1
  23320052.016     -808325.010 6   -629860.176 1
  24537098.328     -361697.468 4        -0.12011
  24180262.992     -954900.380 5   -744077.716 1
  21059858.680       69318.206 7     54014.451 2
 91  4 23 20 26 45.0000000  0  6 18 02 11 06 16 19
  21361517.641     1244435.248 7    969687.082 3
  22844693.875    -1786434.547 6  -1392021.741 1
  23316998.484     -824374.569 6   -642366.255 1
  24530842.063     -394534.058 4    -25586.962 1
  24176530.383     -974488.094 5   -759340.869 1
  21060314.273       71713.729 7     55881.082 2
 91  4 23 20 27  0.0000000  0  6 18 02 11 06 16 19
  21367325.789     1274942.622 7    993458.990 3
  22837219.461    -1825715.176 6  -1422629.906 1
  23313970.477     -840292.552 6   -654769.799 1
  24524595.219     -427362.316 4
  24172832.875     -993951.799 5   -774507.377 1
  21060777.734       74148.143 7     57778.016 2
 91  4 23 20 27 15.0000000  0  6 18 02 11 06 16 19
  21373147.781     1305549.473 7   1017308.405 3
  22829756.391    -1864932.810 6  -1453189.007 1
  23310967.367     -856078.919 6   -667070.791 1
  24518359.484     -460182.528 4
  24169150.383    -1013291.572 5   -789577.363 1
  21061248.102       76621.359 7     59705.185 2
 91  4 23 20 27 30.0000000  0  6 18 02 11 06 16 19
  21378990.125     1336254.432 7   1041234.287 3
  22822304.406    -1904088.469 6  -1483699.814 1
  23307986.398     -871734.648 6   -679270.002 1
  24512121.047     -492996.002 5
  24165485.297    -1032508.583 4   -804551.673 1
  21061728.211       79132.183 7     61661.657 2
 91  4 23 20 27 45.0000000  0  6 18 02 11 06 16 19
  21384852.188     1367057.133 7   1065236.317 2
  22814866.328    -1943182.428 6  -1514162.539 1
  23305032.938     -887260.023 6   -691367.638 1
  24505874.102     -525803.066 5
  24161854.719    -1051603.206 4   -819430.596 1
  21062212.094       81680.208 7     63647.120 2
 91  4 23 20 28  0.0000000  0  6 18 02 11 06 16 19
  21390737.656     1397961.320 7   1089317.432 3
  22807437.102    -1982210.815 6  -1544574.173 1
  23302100.656     -902651.007 6   -703360.545 1
  24499620.023     -558600.155 4
  24158248.773    -1070571.598 5   -834211.184 1
  21062704.047       84269.276 7     65664.569 2
 91  4 23 20 28 15.0000000  0  6 18 02 11 06 16 19
  21396631.453     1428964.793 7   1113475.903 2
  22800023.484    -2021175.310 6  -1574936.010 1
  23299195.219     -917909.311 6   -715250.067 1
  24493377.055     -591389.153 4        -0.41311
  24154653.688    -1089415.478 5   -848894.749 1
  21063204.656       86897.507 7     67712.536 2
 91  4 23 20 28 30.0000000  0  6 18 02 11 06 16 19
  21402551.961     1460066.877 7   1137711.227 2
  22792617.141    -2060076.442 6  -1605248.484 1
  23296318.000     -933035.265 6   -727036.463 1
  24487153.016     -624170.656 5    -25544.342 1
  24151098.859    -1108134.961 5   -863481.378 1
  21063711.711       89564.478 6     69790.693 2
 91  4 23 20 28 45.0000000  0  6 18 02 11 06 16 19
  21408488.273     1491266.277 7   1162022.382 2
  22785228.992    -2098915.203 6  -1635512.363 1
  23293466.375     -948029.842 6   -738720.501 1
  24480924.594     -656945.874 5    -51083.383 1
  24147564.922    -1126731.616 5   -877972.284 1
  21064226.023       92268.835 7     71897.980 2
 91  4 23 20 29  0.0000000  0  6 18 02 11 06 16 19
  21414448.188     1522565.879 7   1186411.597 2
  22777851.742    -2137688.846 6  -1665725.484 1
  23290638.922     -962889.989 6   -750299.752 1
  24474685.695     -689712.095 4    -76615.381 1
  24144044.141    -1145202.147 5   -892364.944 1
  21064750.531       95013.453 6     74036.639 2
 91  4 23 20 29 15.0000000  0  6 18 02 11 06 16 19
  21420419.484     1553961.705 7   1210875.806 2
  22770483.523    -2176400.692 6  -1695890.451 1
  23287838.508     -977619.030 6   -761776.841 1
  24468439.422     -722472.863 4   -102143.106 1
  24140555.383    -1163550.259 5   -906662.208 1
  21065279.227       97795.066 7     76204.119 2
 91  4 23 20 29 30.0000000  0  6 18 02 11 06 16 19
  21426412.453     1585456.370 7   1235417.023 2
  22763130.453    -2215047.986 6  -1726005.145 1
  23285057.891     -992214.129 6   -773149.579 1
  24462203.805     -755225.659 3   -127664.664 1
  24137090.664    -1181772.829 5   -920861.628 1
  21065810.922      100616.296 7     78402.471 2
 91  4 23 20 29 45.0000000  0  6 18 02 11 06 16 19
  21432422.227     1617049.703 7   1260035.130 3
  22755789.234    -2253630.621 6  -1756069.422 1
  23282307.211    -1006674.932 6   -784417.666 1
  24455968.195     -787970.415 3   -153179.931 1
  24133644.430    -1199869.814 5   -934963.219 1
  21066359.023      103477.280 7     80631.790 2
 91  4 23 20 30  0.0000000  0  6 18 02 11 06 16 19
  21438456.078     1648741.084 7   1284729.652 3
  22748456.102    -2292148.988 6  -1786083.643 1
  23279577.398    -1021001.695 6   -795581.322 1
  24449746.352     -820707.485 3   -178689.235 1
  24130214.500    -1217841.731 5   -948967.300 1
  21066907.867      106377.563 7     82891.737 2
 91  4 23 20 30 15.0000000  0  6 18 02 11 06 16 19
  21444506.719     1680540.124 7   1309508.054 3
  22741142.164    -2330593.269 6  -1816040.120 1
  23276879.047    -1035184.663 6   -806632.937 1
  24443526.172     -853427.589 3   -204185.348 1
  24126832.039    -1235679.012 5   -962866.490 1
  21067472.203      109326.636 6     85189.703 2
 91  4 23 20 30 30.0000000  0  6 18 02 11 06 16 19
  21450576.016     1712440.673 7   1334365.563 3
  22733840.375    -2368969.589 6  -1845943.657 1
  23274208.336    -1049229.728 6   -817577.090 1
  24437296.250     -886136.811 3   -229672.892 1
  24123457.242    -1253387.973 5   -976665.677 1
  21068039.352      112318.559 6     87521.065 2
 91  4 23 20 30 45.0000000  0  6 18 02 11 06 16 19
  21456668.516     1744436.950 7   1359297.658 3
  22726546.523    -2407283.199 6  -1875798.322 1
  23271560.492    -1063142.167 6   -828417.897 1
  24431082.375     -918840.556 4   -255156.189 1
  24120107.875    -1270973.427 5   -990368.667 1
  21068619.438      115347.921 6     89881.606 2
 91  4 23 20 31  0.0000000  0  6 18 02 11 06 16 19
  21462775.531     1776532.013 7   1384306.714 3
  22719270.094    -2445530.878 6  -1905601.619 1
  23268940.156    -1076918.573 6   -839152.708 1
  24424853.930     -951535.990 3   -280633.000 1
  24116787.844    -1288432.118 5  -1003972.875 1
  21069200.867      118417.781 6     92273.695 2
 91  4 23 20 31 15.0000000  0  6 18 02 11 06 16 19
  21468899.234     1808725.337 7   1409392.343 3
  22712004.039    -2483712.786 6  -1935353.660 1
  23266342.672    -1090559.032 6   -849781.588 1
  24418636.695     -984223.170 3   -306103.425 1
  24113494.438    -1305764.348 5  -1017478.520 1
  21069793.672      121527.980 6     94697.222 2
 91  4 23 20 31 30.0000000  0  6 18 02 11 06 16 19
  21475047.758     1841020.566 7   1434557.372 3
  22704751.055    -2521825.110 6  -1965051.485 1
  23263774.047    -1104059.564 6   -860301.426 1
  24412410.313    -1016898.591 3   -331564.661 1
  24110219.344    -1322966.414 5  -1030882.758 1
  21070391.930      124682.184 6     97155.037 2
 91  4 23 20 31 45.0000000  0  6 18 02 11 06 16 19
  21481211.398     1873417.055 7   1459801.306 3
  22697510.250    -2559868.215 6  -1994695.368 1
  23261232.977    -1117420.437 6   -870712.419 1
  24406195.219    -1049562.708 2   -357017.087 1
  24106971.430    -1340038.583 5  -1044185.770 1
  21071002.914      127880.153 6     99646.949 2
 91  4 23 20 32  0.0000000  0  6 18 02 11 06 16 19
  21487395.180     1905913.912 7   1485123.455 3
  22690280.680    -2597843.072 6  -2024286.063 1
  23258717.336    -1130642.543 6   -881015.282 1
  24399985.234    -1082216.616 2   -382461.544 1
  24103745.969    -1356981.737 5  -1057388.295 1
  21071617.922      131120.833 7    102172.148 2
 91  4 23 20 32 15.0000000  0  6 18 02 11 06 16 19
  21493598.047     1938509.668 7   1510522.673 2
  22683072.148    -2635750.401 6  -2053824.159 1
  23256227.016    -1143726.637 6   -891210.621 1
  24393766.445    -1114861.113 3   -407898.717 1
  24100545.313    -1373796.660 5  -1070490.864 1
  21072244.078      134403.251 7    104729.865 2
 91  4 23 20 32 30.0000000  0  6 18 02 11 06 16 19
  21499820.852     1971202.511 7   1535997.517 2
  22675870.047    -2673591.975 6  -2083310.995 1
  23253762.313    -1156674.359 6   -901299.703 1
  24387561.289    -1147498.409 3   -433330.229 1
  24097369.094    -1390485.243 5  -1083494.915 1
  21072875.508      137725.643 7    107318.733 2
 91  4 23 20 32 45.0000000  0  6 18 02 11 06 16 19
  21506059.367     2003992.756 7   1561548.282 2
  22668681.234    -2711367.069 6  -2112746.040 1
  23251319.477    -1169484.838 6   -911281.852 1
  24381355.008    -1180127.840 3   -458755.689 1
  24094224.703    -1407046.676 5  -1096399.980 1
  21073518.562      141088.625 7    109939.228 2
 91  4 23 20 33  0.0000000  0  6 18 02 11 06 16 19
  21512316.867     2036881.607 7   1587175.881 2
  22661507.836    -2749074.264 6  -2142128.190 1
  23248914.453    -1182156.580 6   -921155.878 1
  24375149.422    -1212748.024 4   -484173.873 1
  24091093.750    -1423479.603 5  -1109204.907 1
  21074163.523      144493.676 7    112592.504 2
 91  4 23 20 33 15.0000000  0  6 18 02 11 06 16 19
  21518598.602     2069891.521 7   1612897.802 2
  22654349.195    -2786691.233 6  -2171440.024 1
  23246531.023    -1194667.086 6   -930904.262 1
  24368947.328    -1245336.633 4   -509567.469 1
  24087995.883    -1439761.680 5  -1121892.225 1
  21074824.281      147963.140 6    115295.982 2
 91  4 23 20 33 30.0000000  0  6 18 02 11 06 16 19
  21524899.078     2103001.871 7   1638698.004 2
  22647202.305    -2824238.197 6  -2200697.311 1
  23244176.242    -1207036.588 6   -940542.783 1
  24362738.211    -1277914.343 4   -534952.561 1
  24084920.875    -1455912.984 5  -1134477.695 1
  21075491.289      151476.740 7    118033.849 2
 91  4 23 20 33 45.0000000  0  6 18 02 11 06 16 19
  21531220.586     2136212.250 7   1664576.138 3
  22640072.773    -2861715.115 6  -2229900.009 1
  23241851.008    -1219264.987 6   -950071.354 1
  24356545.711    -1310481.234 4   -560329.237 1
  24081871.547    -1471933.870 5  -1146961.524 1
  21076171.336      155034.244 6    120805.929 2
 91  4 23 20 34  0.0000000  0  6 18 02 11 06 16 19
  21537558.680     2169522.010 7   1690531.699 3
  22632953.000    -2899122.376 6  -2259048.427 1
  23239551.500    -1231352.561 6   -959490.191 1
  24350354.234    -1343037.850 4   -585697.887 1
  24078846.250    -1487824.703 5  -1159343.992 1
  21076855.297      158635.239 7    123611.896 2
 91  4 23 20 34 15.0000000  0  6 18 02 11 06 16 19
  21543916.156     2202925.526 7   1716560.344 2
  22625847.148    -2936465.426 6  -2288146.817 1
  23237276.031    -1243304.660 6   -968803.453 1
  24344159.836    -1375589.627 3   -611062.768 1
  24075847.984    -1503590.664 5  -1171629.173 1
  21077548.563      162274.409 7    126447.609 2
 91  4 23 20 34 30.0000000  0  6 18 02 11 06 16 19
  21550287.391     2236426.607 7   1742664.977 2
  22618754.773    -2973740.299 6  -2317192.079 1
  23235028.820    -1255117.210 6   -978007.968 1
  24337974.180    -1408132.766 3   -636420.951 1
  24072867.680    -1519227.935 5  -1183814.066 1
  21078246.836      165955.448 7    129315.942 2
 91  4 23 20 34 45.0000000  0  6 18 02 11 06 16 19
  21556684.805     2270026.197 7   1768846.393 3
  22611673.484    -3010945.722 6  -2346183.230 1
  23232806.070    -1266788.886 6   -987102.715 1
  24331771.336    -1440666.277 2   -661771.637 1
  24069919.148    -1534735.379 5  -1195897.791 1
  21078958.016      169679.699 7    132217.949 2
 91  4 23 20 35  0.0000000  0  6 18 02 11 06 16 19
  21563094.531     2303724.769 7   1795104.943 2
  22604608.531    -3048080.739 6  -2375119.518 1
  23230615.078    -1278318.633 6   -996086.886 1
  24325593.047    -1473189.313 2   -687114.173 1
  24066992.594    -1550111.963 5  -1207879.560 1
  21079672.109      173447.888 7    135154.193 2
 91  4 23 20 35 15.0000000  0  6 18 02 11 06 16 19
  21569526.953     2337519.534 7   1821438.447 2
  22597554.609    -3085147.987 6  -2404003.002 1
  23228445.383    -1289709.045 6  -1004962.479 1
  24319397.359    -1505704.748 2   -712450.762 1
  24064091.500    -1565360.572 5  -1219761.611 1
  21080401.773      177257.286 6    138122.551 2
 91  4 23 20 35 30.0000000  0  6 18 02 11 06 16 19
  21575977.164     2371411.758 7   1847847.876 3
  22590512.477    -3122146.241 6  -2432832.729 1
  23226304.594    -1300958.682 6  -1013728.357 1
  24313209.227    -1538211.311 3   -737780.468 1
  24061213.359    -1580479.644 5  -1231542.710 1
  21081129.750      181109.306 6    141124.120 2
 91  4 23 20 35 45.0000000  0  6 18 02 11 06 16 19
  21582446.313     2405401.542 7   1874333.332 3
  22583485.422    -3159075.038 6  -2461608.327 1
  23224189.625    -1312067.064 6  -1022384.168 1
  24307021.422    -1570708.612 3   -763102.925 1
  24058363.141    -1595468.882 5  -1243222.633 1
  21081872.219      185004.328 6    144159.188 2
 91  4 23 20 36  0.0000000  0  6 18 02 11 06 16 19
  21588932.195     2439488.590 7   1900894.581 3
  22576471.523    -3195934.360 6  -2490329.790 1
  23222105.047    -1323034.118 6  -1030929.866 1
  24300844.031    -1603196.956 4   -788418.429 1
  24055535.336    -1610328.545 5  -1254801.620 1
  21082621.352      188942.335 6    147227.756 2
 91  4 23 20 36 15.0000000  0  6 18 02 11 06 16 19
  21595435.922     2473671.293 7   1927530.364 3
  22569473.031    -3232725.477 6  -2518998.106 1
  23220041.641    -1333861.079 6  -1039366.407 1
  24294656.344    -1635677.748 4   -813727.995 1
  24052731.109    -1625059.586 5  -1266280.376 1
  21083382.000      192922.051 6    150328.821 2
 91  4 23 20 36 30.0000000  0  6 18 02 11 06 16 19
  21601960.305     2507948.878 7   1954240.087 2
  22562483.633    -3269448.942 6  -2547613.708 1
  23218009.508    -1344548.271 6  -1047694.037 1
  24288483.023    -1668151.532 5   -839032.163 1
  24049952.945    -1639662.809 5  -1277659.528 1
  21084143.594      196942.921 6    153461.945 2
 91  4 23 20 36 45.0000000  0  6 18 02 11 06 16 19
  21608503.773     2542329.380 7   1981030.004 3
  22555508.969    -3306096.617 6  -2576170.262 1
  23216001.594    -1355087.556 6  -1055906.413 1
  24282308.813    -1700610.562 5   -864324.760 1
  24047206.180    -1654130.069 6  -1288932.761 1
  21084920.594      201012.984 6    156633.407 2
 91  4 23 20 37  0.0000000  0  6 18 02 11 06 16 19
  21615062.328     2576805.794 7   2007894.649 3
  22548546.742    -3342675.190 6  -2604672.958 1
  23214026.430    -1365485.629 6  -1064008.757 1
  24276137.648    -1733061.431 5
  24044469.164    -1668467.909 5  -1300105.122 1
  21085702.914      205125.404 7    159837.874 2
 91  4 23 20 37 15.0000000  0  6 18 02 11 06 16 19
  21621639.477     2611372.094 7   2034829.349 2
  22541599.234    -3379190.350 6  -2633126.248 1
  23212071.219    -1375747.960 6  -1072005.322 1
  24269958.609    -1765509.952 4
  24041771.977    -1682681.910 6  -1311180.995 1
  21086491.406      209274.581 6    163070.981 2
 91  4 23 20 37 30.0000000  0  6 18 02 11 06 16 19
  21628235.430     2646036.167 7   2061840.240 2
  22534662.695    -3415634.093 6  -2661523.888 1
  23210148.148    -1385866.491 6  -1079889.847 1
  24263787.328    -1797948.530 4
  24039094.422    -1696764.315 6  -1322154.320 1
  21087287.477      213468.402 6    166338.884 2
 91  4 23 20 37 45.0000000  0  6 18 02 11 06 16 19
  21634850.320     2680794.410 7   2088924.494 2
  22527740.852    -3452009.643 6  -2689868.394 1
  23208250.508    -1395844.506 6  -1087664.858 1
  24257612.063    -1830380.245 4        -0.46811
  24036431.508    -1710718.251 5  -1333027.529 1
  21088098.141      217703.729 6    169639.130 2
 91  4 23 20 38  0.0000000  0  6 18 02 11 06 16 19
  21641482.156     2715646.473 7   2116081.847 2
  22520831.789    -3488317.159 6  -2718159.886 1
  23206378.242    -1405682.167 6  -1095330.497 1
  24251446.633    -1862805.507 4    -25266.809 1
  24033799.102    -1724544.141 5  -1343800.980 1
  21088910.078      221980.188 6    172971.422 2
 91  4 23 20 38 15.0000000  0  6 18 02 11 06 16 19
  21648133.805     2750597.005 7   2143315.936 3
  22513937.563    -3524551.730 6  -2746394.537 1
  23204531.656    -1415374.212 6  -1102882.668 1
  24245274.125    -1895219.338 4    -50524.242 1
  24031192.352    -1738237.046 5  -1354470.782 1
  21089732.867      226302.806 6    176339.689 2
 91  4 23 20 38 30.0000000  0  6 18 02 11 06 16 19
  21654801.297     2785644.995 7   2170625.963 2
  22507056.586    -3560713.848 6  -2774572.736 1
  23202716.500    -1424921.141 6  -1110321.774 1
  24239105.773    -1927622.657 4    -75773.498 1
  24028615.070    -1751797.522 5  -1365037.398 1
  21090561.391      230670.826 6    179743.336 2
 91  4 23 20 38 45.0000000  0  6 18 02 11 06 16 19
  21661493.070     2820789.219 7   2198010.979 2
  22500186.852    -3596804.880 6  -2802695.537 1
  23200924.594    -1434324.236 6  -1117648.818 1
  24232945.406    -1960016.946 4   -101015.695 1
  24026061.359    -1765227.109 5  -1375502.024 1
  21091402.852      235082.844 6    183181.258 2
 91  4 23 20 39  0.0000000  0  6 18 02 11 06 16 19
  21668198.039     2856027.078 7   2225468.938 2
  22493331.781    -3632827.062 6  -2830764.693 1
  23199165.141    -1443585.694 6  -1124865.482 1
  24226777.844    -1992404.432 4   -126252.618 1
  24023529.297    -1778527.666 5  -1385866.130 1
  21092252.063      239536.739 7    186651.807 2
 91  4 23 20 39 15.0000000  0  6 18 02 11 06 16 19
  21674922.125     2891362.867 7   2253003.229 2
  22486491.539    -3668775.675 6  -2858776.532 1
  23197427.594    -1452700.767 6  -1131968.084 1
  24220616.109    -2024780.598 4   -151480.706 1
  24021025.633    -1791694.723 5  -1396126.188 1
  21093108.414      244037.099 7    190158.561 2
 91  4 23 20 39 30.0000000  0  6 18 02 11 06 16 19
  21681665.523     2926794.785 7   2280612.420 2
  22479664.289    -3704652.540 6  -2886732.450 1
  23195725.992    -1461671.157 6  -1138957.964 1
  24214459.336    -2057147.280 4   -176701.405 1
  24018545.820    -1804730.053 5  -1406283.605 1
  21093973.891      248582.180 7    193700.160 2
 91  4 23 20 39 45.0000000  0  6 18 02 11 06 16 19
  21688422.180     2962321.498 7   2308295.473 2
  22472850.711    -3740458.829 6  -2914633.383 1
  23194044.430    -1470498.084 6  -1145836.053 1
  24208301.063    -2089505.959 4   -201915.870 1
  24016089.156    -1817634.993 5  -1416339.441 1
  21094846.070      253170.601 7    197275.533 2
 91  4 23 20 40  0.0000000  0  6 18 02 11 06 16 19
  21695203.016     2997943.234 7   2336052.579 2
  22466050.250    -3776193.388 6  -2942478.423 1
  23192390.891    -1479180.325 6  -1152601.393 1
  24202142.484    -2121855.710 4   -227123.408 1
  24013656.344    -1830408.669 5  -1426292.978 1
  21095728.305      257803.514 7    200885.584 2
 91  4 23 20 40 15.0000000  0  6 18 02 11 06 16 19
  21701998.695     3033662.654 7   2363885.803 2
  22459261.797    -3811853.606 6  -2970265.528 1
  23190762.156    -1487715.162 6  -1159251.870 1
  24195987.500    -2154193.788 4   -252321.809 1
  24011250.727    -1843048.161 5  -1436141.956 1
  21096615.781      262483.814 7    204532.556 2
 91  4 23 20 40 30.0000000  0  6 18 02 11 06 16 19
  21708814.375     3069474.988 7   2391791.436 2
  22452491.297    -3847444.172 6  -2997998.369 1
  23189174.008    -1496107.114 6  -1165790.981 1
  24189835.297    -2186525.188 4   -277515.029 1
  24008872.211    -1855558.074 5  -1445889.957 1
  21097515.727      267206.797 7    208212.793 2
 91  4 23 20 40 45.0000000  0  6 18 02 11 06 16 19
  21715648.797     3105380.948 7   2419770.000 3
  22445733.680    -3882963.982 6  -3025676.063 1
  23187598.273    -1504355.084 6  -1172217.916 1
  24183688.008    -2218848.834 5   -302702.194 1
  24006517.438    -1867937.617 5  -1455536.389 1
  21098424.781      271973.279 6    211926.932 2
 91  4 23 20 41  0.0000000  0  6 18 02 11 06 16 19
  21722497.328     3141381.778 7   2447822.498 3
  22438989.055    -3918411.982 6  -3053297.804 1
  23186053.555    -1512458.019 6  -1178531.852 1
  24177542.195    -2251163.690 5   -327882.490 1
  24004182.461    -1880185.638 5  -1465080.329 1
  21099339.727      276784.140 6    215675.649 2
 91  4 23 20 41 15.0000000  0  6 18 02 11 06 16 19
  21729365.086     3177473.560 7   2475945.889 3
  22432254.266    -3953791.450 6  -3080866.143 1
  23184537.180    -1520419.167 6  -1184735.315 1
  24171394.695    -2283473.417 5   -353058.794 1
  24001879.594    -1892305.516 5  -1474524.414 1
  21100262.500      281636.026 7    219456.325 2
 91  4 23 20 41 30.0000000  0  6 18 02 11 06 16 19
  21736253.852     3213660.843 7   2504143.677 3
  22425534.570    -3989097.392 6  -3108377.188 1
  23183055.992    -1528233.416 6  -1190824.309 1
  24165248.227    -2315772.957 5   -378227.164 1
  23999599.109    -1904292.310 5  -1483864.783 1
  21101197.852      286533.998 7    223272.919 2
 91  4 23 20 41 45.0000000  0  6 18 02 11 06 16 19
  21743158.172     3249941.276 7   2532414.032 2
  22418831.375    -4024331.980 6  -3135832.649 1
  23181593.695    -1535902.892 6  -1196800.484 1
  24159100.313    -2348064.686 5   -403389.416 1
  23997336.586    -1916148.165 5  -1493103.130 1
  21102134.469      291476.154 7    227123.931 2
 91  4 23 20 42  0.0000000  0  6 18 02 11 06 16 19
  21750079.133     3286314.814 7   2560756.953 2
  22412139.617    -4059494.840 6  -3163232.205 1
  23180165.195    -1543427.163 6  -1202663.516 1
  24152957.750    -2380348.432 5   -428545.498 1
  23995105.656    -1927873.266 5  -1502239.572 1
  21103082.586      296462.728 7    231009.545 2
 91  4 23 20 42 15.0000000  0  6 18 02 11 06 16 19
  21757016.430     3322775.825 7   2589168.047 2
  22405461.000    -4094591.387 6  -3190580.083 1
  23178756.773    -1550811.545 6  -1208417.555 1
  24146811.445    -2412629.613 5   -453699.552 1
  23992900.813    -1939472.516 5  -1511277.968 1
  21104039.898      301488.145 7    234925.441 2
 91  4 23 20 42 30.0000000  0  6 18 02 11 06 16 19
  21763973.930     3359329.772 7   2617651.542 3
  22398795.758    -4129616.442 7  -3217872.260 1
  23177382.266    -1558050.795 6  -1214058.488 1
  24140663.805    -2444903.142 5   -478847.628 1
  23990719.000    -1950940.785 5  -1520214.271 1
  21105003.148      306557.685 7    238875.713 2
 91  4 23 20 42 45.0000000  0  6 18 02 11 06 16 19
  21770949.531     3395978.177 7   2646208.626 2
  22392144.977    -4164567.953 7  -3245107.125 1
  23176031.188    -1565142.857 6  -1219584.712 1
  24134525.781    -2477167.042 5   -503988.229 1
  23988558.469    -1962276.306 5  -1529047.173 1
  21105977.523      311673.397 6    242861.970 2
 91  4 23 20 43  0.0000000  0  6 18 02 11 06 16 19
  21777938.227     3432718.240 7   2674837.146 2
  22385506.484    -4199448.472 7  -3272286.680 1
  23174708.734    -1572090.230 6  -1224998.193 1
  24128396.242    -2509424.174 4   -529123.527 1
  23986430.883    -1973481.590 5  -1537778.587 1
  21106957.078      316832.741 6    246882.230 2
 91  4 23 20 43 15.0000000  0  6 18 02 11 06 16 19
  21784946.891     3469548.699 7   2703536.114 2
  22378884.133    -4234258.792 7  -3299411.529 1
  23173417.586    -1578893.798 6  -1230299.635 1
  24122257.359    -2541675.429 4   -554254.281 1
  23984323.852    -1984557.534 5  -1546409.206 1
  21107949.250      322034.582 6    250935.606 2
 91  4 23 20 43 30.0000000  0  6 18 02 11 06 16 19
  21791974.438     3506473.701 7   2732308.734 2
  22372272.250    -4268994.564 7  -3326478.282 1
  23172145.883    -1585549.143 6  -1235485.580 1
  24116121.758    -2573916.599 5   -579377.158 1
  23982243.063    -1995499.819 5  -1554935.687 1
  21108948.391      327283.254 7    255025.473 2
 91  4 23 20 43 45.0000000  0  6 18 02 11 06 16 19
  21799019.250     3543492.467 7   2761154.427 2
  22365677.453    -4303656.475 7  -3353487.495 2
  23170906.180    -1592056.654 6  -1240556.326 1
  24109982.438    -2606148.319 4   -604492.674 1
  23980182.609    -2006309.178 5  -1563358.587 1
  21109955.828      332578.224 7    259151.416 2
 91  4 23 20 44  0.0000000  0  6 18 02 11 06 16 19
  21806079.820     3580603.301 7   2790071.861 2
  22359096.555    -4338245.797 7  -3380440.143 2
  23169696.422    -1598417.619 6  -1245512.890 1
  24103848.805    -2638372.118 3   -629602.033 1
  23978153.180    -2016986.931 5  -1571678.932 1
  21110970.211      337918.160 7    263312.389 2
 91  4 23 20 44 15.0000000  0  6 18 02 11 06 16 19
  21813158.953     3617805.951 7   2819060.849 2
  22352527.531    -4372762.723 7  -3407336.365 1
  23168512.773    -1604632.031 6  -1250355.265 1
  24097720.141    -2670588.149 4   -654705.293 1
  23976148.367    -2027533.313 5  -1579896.897 1
  21111998.000      343303.016 7    267508.363 2
 91  4 23 20 44 30.0000000  0  6 18 02 11 06 16 19
  21820257.289     3655105.431 7   2848125.272 2
  22345973.000    -4407201.745 6  -3434171.908 1
  23167365.680    -1610694.673 6  -1255079.358 1
  24091593.703    -2702791.074 4   -679798.373 1
  23974163.391    -2037942.620 5  -1588008.064 1
  21113031.602      348738.228 7    271743.573 2
 91  4 23 20 44 45.0000000  0  6 18 02 11 06 16 19
  21827371.898     3692493.989 7   2877259.112 2
  22339432.125    -4441570.458 6  -3460952.642 1
  23166237.875    -1616613.138 6  -1259691.110 1
  24085460.844    -2734988.755 4   -704887.366 1
  23972208.156    -2048222.662 5  -1596018.521 1
  21114073.688      354216.082 7    276012.013 2
 91  4 23 20 45  0.0000000  0  6 18 02 11 06 16 19
  21834501.813     3729972.222 7   2906462.838 2
  22332905.578    -4475867.907 6  -3487677.853 1
  23165137.992    -1622386.230 6  -1264189.582 1
  24079332.836    -2767180.156 4   -729971.453 1
  23970274.781    -2058372.583 5  -1603927.617 1
  21115123.516      359737.631 7    280314.501 2
 91  4 23 20 45 15.0000000  0  6 18 02 11 06 16 19
  21841655.422     3767542.050 7   2935737.937 2
  22326392.063    -4510091.948 6  -3514345.866 2
  23164065.961    -1628011.845 6  -1268573.160 1
  24073208.211    -2799363.386 4   -755049.225 1
  23968370.211    -2068390.385 5  -1611733.719 1
  21116184.219      365304.826 7    284652.561 2
 91  4 23 20 45 30.0000000  0  6 18 02 11 06 16 19
  21848820.820     3805200.694 7   2965082.225 2
  22319892.703    -4544245.333 6  -3540958.820 1
  23163026.773    -1633492.550 6  -1272843.802 1
  24067087.625    -2831541.203 4   -780122.741 1
  23966488.430    -2078278.691 5  -1619438.900 1
  21117248.539      370915.099 6    289024.192 2
 91  4 23 20 45 45.0000000  0  6 18 02 11 06 16 19
  21856003.023     3842952.529 7   2994499.140 2
  22313409.633    -4578323.437 7  -3567513.112 1
  23162011.820    -1638823.728 6  -1276997.925 1
  24060973.633    -2863709.045 5   -805188.487 1
  23964631.563    -2088033.059 5  -1627039.736 1
  21118328.195      376573.186 7    293433.073 2
 91  4 23 20 46  0.0000000  0  6 18 02 11 06 16 19
  21863206.219     3880794.210 7   3023986.062 2
  22306939.430    -4612329.185 6  -3594011.018 1
  23161021.750    -1644008.189 6  -1281037.734 1
  24054853.625    -2895870.033 5   -830248.893 1
  23962800.992    -2097656.412 5  -1634538.512 1
  21119411.016      382275.866 7    297876.704 2
 91  4 23 20 46 15.0000000  0  6 18 02 11 06 16 19
  21870423.898     3918729.623 7   3053546.025 2
  22300479.672    -4646258.372 6  -3620449.281 1
  23160062.750    -1649041.921 6  -1284960.097 1
  24048736.172    -2928020.113 5   -855300.789 1
  23960992.570    -2107144.658 5  -1641931.959 1
  21120507.625      388027.230 7    302358.263 2
 91  4 23 20 46 30.0000000  0  6 18 02 11 06 16 19
  21877661.961     3956756.166 7   3083176.984 2
  22294036.648    -4680113.284 6  -3646829.656 1
  23159135.859    -1653927.120 6  -1288766.737 1
  24042627.492    -2960161.775 5   -880346.154 1
  23959214.695    -2116500.187 5  -1649222.032 1
  21121610.922      393825.144 7    306876.095 2
 91  4 23 20 46 45.0000000  0  6 18 02 11 06 16 19
  21884915.594     3994870.865 7   3112876.651 2
  22287609.266    -4713896.753 7  -3673154.374 2
  23158234.125    -1658666.479 6  -1292459.724 1
  24036511.734    -2992297.738 5   -905387.056 1
  23957463.359    -2125726.063 5  -1656411.064 1
  21122723.578      399666.669 7    311427.913 2
 91  4 23 20 47  0.0000000  0  6 18 02 11 06 16 19
  21892183.227     4033074.646 7   3142645.736 2
  22281195.117    -4747607.564 7  -3699422.462 2
  23157358.695    -1663258.987 6  -1296038.268 1
  24030398.148    -3024427.148 5   -930422.854 1
  23955733.594    -2134820.842 5  -1663497.948 1
  21123842.453      405553.055 7    316014.691 2
 91  4 23 20 47 15.0000000  0  6 18 02 11 06 16 19
  21899472.242     4071370.614 7   3172486.641 2
  22274793.758    -4781242.549 7  -3725631.466 2
  23156516.852    -1667701.251 6  -1299499.739 1
  24024280.641    -3056546.695 5   -955450.949 1
  23954026.570    -2143781.296 5  -1670480.166 1
  21124972.000      411487.558 6    320638.963 2
 91  4 23 20 47 30.0000000  0  6 18 02 11 06 16 19
  21906778.250     4109756.540 7   3202397.661 2
  22268408.594    -4814803.243 7  -3751782.593 2
  23155698.344    -1671994.758 6  -1302845.293 1
  24018174.656    -3088658.044 5   -980472.688 1
  23952344.867    -2152609.416 5  -1677359.249 1
  21126107.633      417468.522 6    325299.446 2
 91  4 23 20 47 45.0000000  0  6 18 02 11 06 16 19
  21914098.609     4148233.630 7   3232379.705 2
  22262035.305    -4848288.527 7  -3777874.953 2
  23154911.469    -1676138.292 6  -1306073.985 1
  24012063.164    -3120760.241 5  -1005487.289 1
  23950686.516    -2161304.037 5  -1684134.269 1
  21127255.594      423497.271 6    329997.154 2
 91  4 23 20 48  0.0000000  0  6 18 02 11 06 16 19
  21921438.844     4186799.087 7   3262430.602 2
  22255680.023    -4881700.865 7  -3803910.478 2
  23154151.953    -1680134.348 6  -1309187.757 1
  24005956.391    -3152855.735 5  -1030496.667 1
  23949057.883    -2169867.635 5  -1690807.254 1
  21128414.117      429571.464 6    334730.274 2
 91  4 23 20 48 15.0000000  0  6 18 02 11 06 16 19
  21928793.516     4225452.831 7   3292550.299 2
  22249331.695    -4915039.793 7  -3829888.802 2
  23153415.758    -1683982.581 6  -1312186.364 1
  23999847.063    -3184944.382 5  -1055500.687 1
  23947453.352    -2178299.984 5  -1697377.924 1
  21129578.219      435691.278 6    339498.943 2
 91  4 23 20 48 30.0000000  0  6 18 02 11 06 16 19
  21936165.867     4264195.391 7   3322739.208 2
  22243001.602    -4948304.814 7  -3855809.530 2
  23152710.781    -1687682.434 6  -1315069.337 1
  23993738.547    -3217025.786 5  -1080499.103 1
  23945875.547    -2186600.236 5  -1703845.691 1
  21130749.266      441857.213 7    344303.542 2
 91  4 23 20 48 45.0000000  0  6 18 02 11 06 16 19
  21943555.305     4303026.474 7   3352997.092 2
  22236687.906    -4981495.880 7  -3881672.629 1
  23152033.578    -1691233.827 6  -1317836.638 1
  23987633.453    -3249099.844 5  -1105491.743 1
  23944322.445    -2194768.670 5  -1710210.745 1
  21131934.625      448069.409 7    349144.194 2
 91  4 23 20 49  0.0000000  0  6 18 02 11 06 16 19
  21950958.828     4341944.632 7   3383322.828 2
  22230387.156    -5014614.179 7  -3907479.030 2
  23151387.531    -1694637.937 6  -1320489.179 1
  23981529.727    -3281167.916 5  -1130479.773 1
  23942798.305    -2202806.614 5  -1716474.114 1
  21133120.836      454326.435 7    354019.775 2
 91  4 23 20 49 15.0000000  0  6 18 02 11 06 16 19
  21958381.031     4380953.352 7   3413719.132 2
  22224095.391    -5047656.071 7  -3933225.883 1
  23150768.414    -1697891.042 6  -1323024.040 1
  23975430.594    -3313226.636 5  -1155460.491 1
  23941290.328    -2210710.775 5  -1722633.275 1
  21134324.781      460631.986 7    358933.173 2
 91  4 23 20 49 30.0000000  0  6 18 02 11 06 16 19
  21965823.484     4420051.889 6   3444185.430 2
  22217823.992    -5080621.749 7  -3958913.369 2
  23150180.781    -1700993.433 6  -1325441.465 1
  23969330.633    -3345276.243 5  -1180434.119 1
  23939810.023    -2218481.281 5  -1728688.247 1
  21135535.461      466985.694 7    363884.102 2
 91  4 23 20 49 45.0000000  0  6 18 02 11 06 16 19
  21973279.531     4459236.941 7   3474719.125 2
  22211566.016    -5113514.522 7  -3984544.032 2
  23149616.602    -1703948.301 6  -1327743.929 1
  23963236.844    -3377319.998 5  -1205403.182 1
  23938351.375    -2226121.273 5  -1734641.526 1
  21136751.391      473384.425 6    368870.111 2
 91  4 23 20 50  0.0000000  0  6 18 02 11 06 16 19
  21980753.180     4498505.356 7   3505317.793 2
  22205319.891    -5146336.845 7  -4010119.807 2
  23149080.664    -1706758.231 6  -1329933.456 1
  23957137.766    -3409360.610 5  -1230369.802 1
  23936924.266    -2233633.326 5  -1740495.115 1
  21137974.805      479825.901 7    373889.441 2
 91  4 23 20 50 15.0000000  0  6 18 02 11 06 16 19
  21988244.422     4537860.887 7   3535984.330 2
  22199086.336    -5179084.928 7  -4035637.738 1
  23148574.859    -1709419.325 6  -1332006.993 1
  23951043.234    -3441394.268 5  -1255331.002 1
  23935527.102    -2241013.859 5  -1746246.212 1
  21139213.484      486313.742 7    378944.895 2
 91  4 23 20 50 30.0000000  0  6 18 02 11 06 16 19
  21995750.266     4577305.431 7   3566720.239 2
  22192871.422    -5211756.833 7  -4061096.310 2
  23148096.852    -1711929.472 6  -1333962.927 1
  23944946.016    -3473418.991 5  -1280285.229 1
  23934142.828    -2248260.745 5  -1751893.172 1
  21140458.578      492850.055 7    384038.115 2
 91  4 23 20 50 45.0000000  0  6 18 02 11 06 16 19
  22003270.883     4616838.746 7   3597525.310 2
  22186665.891    -5244352.556 7  -4086495.509 2
  23147648.953    -1714288.593 6  -1335801.194 1
  23938857.758    -3505434.879 5  -1305232.577 1
  23932793.117    -2255373.796 5  -1757435.860 1
  21141709.828      499434.716 7    389168.999 2
 91  4 23 20 51  0.0000000  0  6 18 02 11 06 16 19
  22010808.625     4656459.479 7   3628398.506 2
  22180478.336    -5276873.247 7  -4111836.252 2
  23147229.672    -1716497.812 6  -1337522.647 1
  23932767.695    -3537443.240 6  -1330174.058 1
  23931462.336    -2262354.486 5  -1762875.397 1
  21142968.648      506066.761 7    394336.812 2
 91  4 23 20 51 15.0000000  0  6 18 02 11 06 16 19
  22018367.758     4696165.477 7   3659338.132 2
  22174303.031    -5309320.580 7  -4137119.828 2
  23146837.039    -1718558.976 6  -1339128.728 1
  23926676.477    -3569445.954 6  -1355111.113 1
  23930155.555    -2269204.868 5  -1768213.395 1
  21144240.586      512744.384 7    399540.140 2
 91  4 23 20 51 30.0000000  0  6 18 02 11 06 16 19
  22025940.883     4735958.555 7   3690345.612 2
  22168145.203    -5341692.365 7  -4162344.532 1
  23146472.523    -1720469.983 6  -1340617.811 1
  23920586.328    -3601440.937 5  -1380042.186 1
  23928877.922    -2275922.898 5  -1773448.270 1
  21145519.578      519469.628 7    404780.575 2
 91  4 23 20 51 45.0000000  0  6 18 02 11 06 16 19
  22033529.852     4775835.394 7   3721418.364 2
  22161999.398    -5373991.756 7  -4187512.829 1
  23146136.156    -1722233.900 6  -1341992.282 1
  23914498.391    -3633431.319 5  -1404969.681 1
  23927623.820    -2282511.759 5  -1778582.476 1
  21146809.547      526239.462 6    410055.747 2
 91  4 23 20 52  0.0000000  0  6 18 02 11 06 16 19
  22041133.602     4815798.323 7   3752558.202 2
  22155863.039    -5406216.312 7  -4212622.806 1
  23145829.672    -1723848.223 6  -1343250.186 1
  23908413.141    -3665414.714 5  -1429891.730 1
  23926391.609    -2288969.029 5  -1783614.165 1
  21148107.477      533056.455 6    415367.688 2
 91  4 23 20 52 15.0000000  0  6 18 02 11 06 16 19
  22048755.500     4855852.073 7   3783768.814 2
  22149746.547    -5438361.262 7  -4237670.762 2
  23145554.539    -1725308.164 6  -1344387.773 1
  23902327.117    -3697386.523 5  -1454804.727 1
  23925192.461    -2295289.755 5  -1788539.437 1
  21149412.063      539925.363 6    420720.080 2
 91  4 23 20 52 30.0000000  0  6 18 02 11 06 16 19
  22056393.617     4895996.122 7   3815049.786 2
  22143645.633    -5470426.343 7
  23145305.883    -1726613.498 6  -1345404.899 1
  23896244.000    -3729346.577 5
  23924016.188    -2301473.815 5  -1793358.233 1
  21150730.008      546846.362 6    426113.063 2
 91  4 23 20 52 45.0000000  0  6 18 02 11 06 16 19
  22064049.109     4936218.104 7   3846391.479 2
  22137558.195    -5502423.843 7
  23145081.813    -1727776.374 6  -1346310.999 1
  23890161.297    -3761307.062 5
  23922865.289    -2307533.473 5  -1798080.079 1
  21152055.609      553807.313 6    431537.170 2
 91  4 23 20 53  0.0000000  0  6 18 02 11 06 16 19
  22071719.203     4976523.092 7   3877797.848 2
  22131481.313    -5534348.376 6
  23144892.117    -1728791.559 6  -1347102.019 1
  23884083.250    -3793262.830 5
  23921732.383    -2313463.871 5  -1802701.200 1
  21153388.609      560813.429 7    436996.471 2
 91  4 23 20 53 15.0000000  0  6 18 02 11 06 16 19
  22079404.789     5016916.714 7   3909273.293 2
  22125421.031    -5566193.970 6  -4337280.405 2
  23144729.117    -1729653.097 6  -1347773.310 1
  23878002.602    -3825208.155 5  -1554405.667 1
  23920627.617    -2319258.790 5  -1807216.769 1
  21154734.344      567870.651 7    442495.595 2
 91  4 23 20 53 30.0000000  0  6 18 02 11 06 16 19
  22087108.156     5057393.628 7   3940813.640 2
  22119375.906    -5597965.964 7  -4362037.739 1
  23144585.820    -1730366.264 6  -1348329.005 1
  23871923.266    -3857148.414 5  -1579294.112 1
  23919550.898    -2324923.883 5  -1811631.173 1
  21156084.320      574973.663 7    448030.392 2
 91  4 23 20 53 45.0000000  0  6 18 02 11 06 16 19
  22094826.516     5097956.944 7   3972421.303 2
  22113344.344    -5629660.793 7  -4386734.952 2
  23144476.672    -1730927.385 6  -1348766.236 1
  23865849.117    -3889079.858 5  -1604175.667 1
  23918503.078    -2330455.331 5  -1815941.431 1
  21157443.086      582126.300 7    453603.856 2
 91  4 23 20 54  0.0000000  0  6 18 02 11 06 16 19
  22102563.820     5138608.979 7   4004098.103 2
  22107325.359    -5661276.111 6  -4411370.204 2
  23144403.969    -1731334.227 6  -1349083.261 1
  23859771.906    -3921000.382 5  -1629048.734 1
  23917485.680    -2335851.169 5  -1820146.052 1
  21158818.211      589330.673 7    459217.640 2
 91  4 23 20 54 15.0000000  0  6 18 02 11 06 16 19
  22110314.016     5179344.407 6   4035839.889 2
  22101326.922    -5692817.061 7  -4435947.507 2
  23144356.414    -1731591.809 6  -1349283.978 1
  23853698.633    -3952915.125 5  -1653917.284 1
  23916478.016    -2341116.602 5  -1824249.041 1
  21160195.195      596581.740 7    464867.807 2
 91  4 23 20 54 30.0000000  0  6 18 02 11 06 16 19
  22118081.852     5220162.959 6   4067646.447 2
  22095337.867    -5724283.314 7  -4460466.605 2
  23144332.469    -1731699.950 6
  23847631.313    -3984823.977 5  -1678781.256 1
  23915499.344    -2346251.124 5  -1828250.009 1
  21161582.617      603879.933 7    470554.697 2
 91  4 23 20 54 45.0000000  0  6 18 02 11 06 16 19
  22125865.164     5261063.491 6   4099516.878 2
  22089364.211    -5755675.601 7  -4484928.070 2
  23144348.094    -1731659.468 6
  23841558.109    -4016727.785 5  -1703641.318 1
  23914548.766    -2351256.085 5  -1832150.027 1
  21162981.602      611224.391 6    476277.645 2
 91  4 23 20 55  0.0000000  0  6 18 02 11 06 16 19
  22133663.570     5302049.466 6   4131453.905 2
  22083405.383    -5786990.545 7  -4509329.267 2
  23144379.180    -1731466.673 6
  23835482.375    -4048623.113 5  -1728494.747 1
  23913623.609    -2356127.972 5  -1835946.367 1
  21164385.641      618618.835 7    482039.535 2
 91  4 23 20 55 15.0000000  0  6 18 02 11 06 16 19
  22141479.828     5343120.785 6   4163457.420 2
  22077460.641    -5818228.076 7  -4533670.139 2
  23144441.570    -1731121.542 6
  23829419.188    -4080509.805 5  -1753341.441 1
  23912710.828    -2360866.523 5  -1839638.795 1
  21165807.688      626063.185 7    487840.316 2
 91  4 23 20 55 30.0000000  0  6 18 02 11 06 16 19
  22149312.000     5384274.008 7   4195524.741 2
  22071532.164    -5849390.970 7  -4557952.859 2
  23144538.664    -1730627.023 6  -1348532.119 1
  23823350.758    -4112391.045 5  -1778183.922 1
  23911835.656    -2365474.993 5  -1843229.861 1
  21167228.242      633554.271 7    493677.512 2
 91  4 23 20 55 45.0000000  0  6 18 02 11 06 16 19
  22157155.961     5425511.439 6   4227657.697 2
  22065614.406    -5880476.718 7  -4582175.455 2
  23144659.445    -1729980.631 6  -1348028.415 1
  23817290.695    -4144264.320 5  -1803020.184 1
  23910985.609    -2369950.848 5  -1846717.602 1
  21168667.500      641094.846 7    499553.265 2
 91  4 23 20 56  0.0000000  0  6 18 02 11 06 16 19
  22165020.664     5466832.672 7   4259855.949 2
  22059714.430    -5911485.704 7  -4606338.242 2
  23144815.523    -1729182.819 6  -1347406.729 1
  23811221.266    -4176130.008 5  -1827850.509 1
  23910154.531    -2374294.476 5  -1850102.305 1
  21170109.703      648684.550 7    505467.295 2
 91  4 23 20 56 15.0000000  0  6 18 02 11 06 16 19
  22172900.836     5508233.968 7   4292116.581 2
  22053829.023    -5942421.063 7  -4630443.654 2
  23144991.789    -1728236.613 6  -1346669.413 1
  23805158.328    -4207991.267 5  -1852677.405 1
  23909356.273    -2378509.062 5  -1853386.459 1
  21171563.859      656320.427 7    511417.305 2
 91  4 23 20 56 30.0000000  0  6 18 02 11 06 16 19
  22180793.914     5549717.749 7   4324441.498 2
  22047954.156    -5973280.360 7  -4654489.798 2
  23145205.883    -1727139.647 6  -1345814.621 1
  23799096.109    -4239845.924 5  -1877499.146 1
  23908580.000    -2382592.500 5  -1856568.412 1
  21173023.125      664004.870 7    517405.167 2
 91  4 23 20 56 45.0000000  0  6 18 02 11 06 16 19
  22188702.820     5591280.925 6   4356828.278 2
  22042096.203    -6004066.594 7  -4678479.009 2
  23145437.320    -1725894.843 6  -1344844.634 1
  23793032.953    -4271696.871 5  -1902317.991 1
  23907830.961    -2386547.748 5  -1859650.465 1
  21174498.617      671734.954 6    523428.591 2
 91  4 23 20 57  0.0000000  0  6 18 02 11 06 16 19
  22196627.789     5632925.231 6   4389278.271 2
  22036254.781    -6034777.646 7  -4702409.630 2
  23145707.766    -1724500.173 6  -1343757.857 1
  23786978.063    -4303542.206 5  -1927132.485 1
  23907105.352    -2390372.703 6  -1862631.003 1
  21175974.336      679512.806 6    529489.242 2
 91  4 23 20 57 15.0000000  0  6 18 02 11 06 16 19
  22204565.750     5674649.474 6   4421790.549 2
  22030422.578    -6065414.377 7  -4726282.353 2
  23146001.977    -1722956.380 6  -1342554.881 1
  23780919.172    -4335382.831 5  -1951943.287 1
  23906399.750    -2394068.345 6  -1865510.798 1
  21177465.734      687337.504 6    535586.394 2
 91  4 23 20 57 30.0000000  0  6 18 02 11 06 16 19
  22212521.477     5716457.286 6   4454367.954 2
  22024608.461    -6095973.099 7  -4750094.267 2
  23146322.102    -1721259.849 6  -1341232.885 1
  23774861.109    -4367214.914 5  -1976747.447 1
  23905718.547    -2397631.153 6  -1868287.069 1
  21178960.711      695213.028 7    541723.144 2
 91  4 23 20 57 45.0000000  0  6 18 02 11 06 16 19
  22220494.516     5758347.633 6   4487009.665 2
  22018807.289    -6126454.212 7  -4773845.721 2
  23146672.711    -1719410.982 6  -1339792.190 1
  23768804.680    -4399039.021 5  -2001545.371 1
  23905068.797    -2401061.475 6  -1870960.116 1
  21180471.500      703138.761 7    547899.016 2
 91  4 23 20 58  0.0000000  0  6 18 02 11 06 16 19
  22228482.680     5800318.492 6   4519714.119 1
  22013023.055    -6156859.487 7  -4797538.077 2
  23147059.656    -1717411.675 6  -1338234.278 1
  23762749.445    -4430857.222 5  -2026338.688 1
  23904443.289    -2404361.288 6  -1873531.470 1
  21181988.930      711112.817 7    554112.541 2
 91  4 23 20 58 15.0000000  0  6 18 02 11 06 16 19
  22236485.406     5842366.663 6   4552478.810 2
  22007249.352    -6187191.976 7  -4821173.722 2
  23147460.289    -1715264.942 6  -1336561.483 1
  23756696.680    -4462672.550 5  -2051129.781 1
  23903831.719    -2407533.779 6  -1876003.611 1
  21183516.875      719132.289 7    560361.455 2
 91  4 23 20 58 30.0000000  0  6 18 02 11 06 16 19
  22244504.148     5884501.197 6   4585310.783 2
  22001492.945    -6217442.432 7  -4844745.445 2
  23147902.938    -1712961.587 6  -1334766.647 1
  23750646.172    -4494475.751 5  -2075911.411 1
  23903255.008    -2410569.820 6  -1878369.404 1
  21185052.352      727206.507 7    566653.030 2
 91  4 23 20 58 45.0000000  0  6 18 02 11 06 16 19
  22252533.758     5926716.131 6   4618205.421 2
  21995750.633    -6247616.362 7  -4868257.543 2
  23148371.672    -1710507.188 6  -1332854.115 1
  23744596.023    -4526272.267 5  -2100687.839 1
  23902704.086    -2413475.317 6  -1880633.506 1
  21186596.180      735330.036 6    572983.033 2
 91  4 23 20 59  0.0000000  0  6 18 02 11 06 16 19
  22260583.664     5969008.945 6   4651160.758 2
  21990022.328    -6277716.262 7  -4891711.947 2
  23148862.570    -1707904.250 6  -1330825.845 1
  23738544.141    -4558064.829 5  -2125461.179 1
  23902176.773    -2416252.544 6  -1882797.631 1
  21188153.539      743500.358 6    579349.503 2
 91  4 23 20 59 15.0000000  0  6 18 02 11 06 16 19
  22268645.258     6011381.237 6   4684178.016 2
  21984309.461    -6307740.193 7  -4915107.158 2
  23149385.492    -1705150.734 6  -1328680.231 1
  23732499.617    -4589851.488 5  -2150229.922 1
  23901675.961    -2418899.708 6  -1884860.403 1
  21189712.320      751719.472 6    585753.989 2
 91  4 23 20 59 30.0000000  0  6 18 02 11 06 16 19
  22276725.039     6053835.067 6   4717258.797 2
  21978608.953    -6337685.994 7  -4938441.501 2
  23149943.414    -1702244.648 6  -1326415.726 1
  23726449.078    -4621630.236 5  -2174992.505 1
  23901199.539    -2421414.688 5  -1886820.201 1
  21191288.969      759989.391 7    592198.059 2
 91  4 23 20 59 45.0000000  0  6 18 02 11 06 16 19
  22284820.945     6096368.129 6   4750401.319 2
  21972924.844    -6367555.424 6  -4961716.317 2
  23150522.828    -1699187.730 6  -1324033.682 1
  23720405.813    -4653402.881 5  -2199750.343 1
  23900740.016    -2423799.857 5  -1888678.850 1
  21192873.898      768308.529 7    598680.476 2
 91  4 23 21  0  0.0000000  0  6 18 02 11 06 16 19
  22292929.172     6138982.779 6   4783607.438 1
  21967258.281    -6397345.943 7  -4984929.652 2
  23151131.984    -1695977.447 6  -1321532.140 1
  23714356.000    -4685166.948 5  -2224501.476 1
  23900307.648    -2426052.512 5  -1890434.226 1
  21194465.984      776679.440 7    605203.225 2
 91  4 23 21  0 15.0000000  0  6 18 02 11 06 16 19
  22301052.695     6181679.789 6   4816877.729 1
  21961603.195    -6427056.661 7  -5008080.814 2
  23151772.883    -1692612.763 6  -1318910.276 1
  23708318.023    -4716921.304 5  -2249245.030 1
  23899903.883    -2428171.208 5  -1892085.224 1
  21196071.109      785103.334 7    611767.270 2
 91  4 23 21  0 30.0000000  0  6 18 02 11 06 16 19
  22309195.336     6224455.286 6   4850209.170 2
  21955966.250    -6456691.108 7  -5031172.521 2
  23152439.656    -1689097.423 6  -1316171.035 1
  23702275.688    -4748669.831 5  -2273984.054 1
  23899533.609    -2430160.096 5  -1893635.055 1
  21197681.242      793576.412 7    618369.646 2
 91  4 23 21  0 45.0000000  0  6 18 02 11 06 16 19
  22317351.906     6267308.058 6   4883600.829 1
  21950338.328    -6486250.268 7  -5054205.572 2
  23153144.945    -1685432.314 6  -1313315.079 1
  23696232.328    -4780413.417 5  -2298719.268 1
  23899176.898    -2432020.072 5  -1895084.484 1
  21199302.695      802097.808 6    625009.670 2
 91  4 23 21  1  0.0000000  0  6 18 02 11 06 16 19
  22325516.492     6310237.866 6   4917052.502 1
  21944729.094    -6515733.823 7  -5077179.701 2
  23153870.266    -1681617.401 6  -1310342.413 1
  23690197.242    -4812152.037 5  -2323450.581 1
  23898849.578    -2433751.035 5  -1896433.372 1
  21200930.641      810667.833 6    631687.593 2
 91  4 23 21  1 15.0000000  0  6 18 02 11 06 16 19
  22333702.422     6353246.745 6   4950565.796 2
  21939134.898    -6545139.896 7  -5100093.451 2
  23154619.672    -1677650.716 6  -1307251.478 1
  23684150.508    -4843883.602 5  -2348176.392 1
  23898544.742    -2435351.566 5  -1897680.585 1
  21202577.078      819288.393 6    638404.896 2
 91  4 23 21  1 30.0000000  0  6 18 02 11 06 16 19
  22341904.422     6396333.888 7   4984140.069 1
  21933550.750    -6574468.752 7  -5122947.042 2
  23155403.266    -1673532.598 6  -1304042.539 1
  23678117.000    -4875608.626 5  -2372897.107 1
  23898260.750    -2436821.979 5  -1898826.428 1
  21204222.578      827959.075 6    645161.262 2
 91  4 23 21  1 45.0000000  0  6 18 02 11 06 16 19
  22350114.539     6439492.129 6   5017769.740 1
  21927983.422    -6603727.253 7  -5145745.816 2
  23156213.117    -1669269.933 6  -1300720.979 1
  23672080.078    -4907333.962 5  -2397618.075 1
  23898005.898    -2438168.921 5  -1899876.068 1
  21205880.695      836673.255 7    651951.511 2
 91  4 23 21  2  0.0000000  0  6 18 02 11 06 16 19
  22358342.227     6482728.194 6   5051460.070 2
  21922431.508    -6632908.353 7  -5168484.265 2
  23157057.906    -1664855.761 6  -1297281.356 1
  23666043.039    -4939052.729 5  -2422333.909 1
  23897777.773    -2439385.580 5  -1900824.164 1
  21207548.305      845437.978 7    658781.145 2
 91  4 23 21  2 15.0000000  0  6 18 02 11 06 16 19
  22366588.844     6526046.876 6   5085214.767 1
  21916895.273    -6662007.372 7  -5191158.752 2
  23157924.484    -1660285.336 6  -1293719.968 1
  23660016.195    -4970760.108 5  -2447040.887 1
  23897565.906    -2440467.444 5  -1901667.247 1
  21209232.703      854258.027 7    665653.884 2
 91  4 23 21  2 30.0000000  0  6 18 02 11 06 16 19
  22374844.883     6569443.162 6   5119029.934 2
  21911370.117    -6691028.880 7  -5213772.859 2
  23158823.695    -1655563.219 6  -1290040.384 1
  23653985.555    -5002460.838 5  -2471742.649 1
  23897383.383    -2441419.105 5  -1902408.857 1
  21210915.844      863128.900 7    672566.225 2
 91  4 23 21  2 45.0000000  0  6 18 02 11 06 16 19
  22383115.523     6612918.235 6   5152906.487 1
  21905864.906    -6719971.215 7  -5236325.260 2
  23159752.711    -1650687.955 6  -1286241.455 1
  23647948.648    -5034153.172 5  -2496437.884 1
  23897225.031    -2442238.855 5  -1903047.701 1
  21212613.688      872052.205 7    679519.432 2
 91  4 23 21  3  0.0000000  0  6 18 02 11 06 16 19
  22391402.922     6656466.700 6   5186840.239 1
  21900370.023    -6748839.738 7  -5258820.150 2
  23160710.164    -1645664.817 6  -1282327.295 1
  23641918.773    -5065842.561 5  -2521130.833 1
  23897099.492    -2442932.645 5  -1903588.367 1
  21214326.922      881022.719 6    686509.415 2
 91  4 23 21  3 15.0000000  0  6 18 02 11 06 16 19
  22399702.445     6700091.744 6   5220833.663 1
  21894891.219    -6777631.167 7  -5281254.958 2
  23161696.078    -1640490.521 6  -1278295.351 1
  23635887.414    -5097525.766 5  -2545818.946 1
  23896997.219    -2443497.163 5  -1904028.325 1
  21216041.680      890043.669 6    693538.717 2
 91  4 23 21  3 30.0000000  0  6 18 02 11 06 16 19
  22408023.102     6743795.277 6   5254888.242 1
  21889427.016    -6806343.068 7  -5303627.809 2
  23162704.664    -1635162.744 6  -1274143.806 1
  23629861.898    -5129200.535 5  -2570500.499 1
  23896919.008    -2443929.955 5  -1904365.637 1
  21217763.930      899117.495 6    700609.233 2
 91  4 23 21  3 45.0000000  0  6 18 02 11 06 16 19
  22416356.469     6787575.675 6   5289002.718 1
  21883977.398    -6834976.868 7  -5325939.802 2
  23163750.492    -1629682.805 6  -1269873.714 1
  23623836.555    -5160868.092 5  -2595176.447 1
  23896852.406    -2444232.765 5  -1904601.639 1
  21219501.500      908242.961 6    707719.982 2
 91  4 23 21  4  0.0000000  0  6 18 02 11 06 16 19
  22424699.461     6831431.091 6   5323175.659 1
  21878544.477    -6863534.064 7  -5348192.097 2
  23164819.789    -1624052.615 6  -1265486.545 1
  23617810.617    -5192530.362 5  -2619848.280 1
  23896817.898    -2444407.261 5
  21221245.773      917418.402 7    714869.662 2
 91  4 23 21  4 15.0000000  0  6 18 02 11 06 16 19
  22433057.531     6875360.994 6   5357406.634 1
  21873122.867    -6892014.913 7  -5370384.906 2
  23165921.414    -1618272.306 6  -1260982.417 1
  23611783.734    -5224187.560 5  -2644516.133 1
  23896797.953    -2444453.593 5
  21223006.852      926643.581 7    722058.099 2
 91  4 23 21  4 30.0000000  0  6 18 02 11 06 16 19
  22441432.656     6919364.573 6   5391695.024 2
  21867720.188    -6920419.989 7  -5392518.667 2
  23167046.797    -1612342.412 6  -1256361.717 1
  23605760.586    -5255840.097 5  -2669180.367 1
  23896814.734    -2444372.720 5
  21224769.891      935918.253 7    729285.094 2
 91  4 23 21  4 45.0000000  0  6 18 02 11 06 16 19
  22449821.336     6963442.023 6   5426040.948 1
  21862329.430    -6948748.781 7  -5414592.988 2
  23168205.258    -1606262.440 6  -1251624.072 1
  23599739.898    -5287487.497 5  -2693840.617 1
  23896864.156    -2444164.006 5
  21226546.219      945242.861 7    736551.001 2
 91  4 23 21  5  0.0000000  0  6 18 02 11 06 16 19
  22458222.086     7007597.717 6   5460447.863 1
  21856952.914    -6976996.776 7  -5436604.341 2
  23169389.109    -1600028.015 6  -1246766.076 1
  23593722.406    -5319125.399 5  -2718493.439 1
  23896933.859    -2443822.977 5
  21228329.953      954621.932 6    743859.351 2
 91  4 23 21  5 15.0000000  0  6 18 02 11 06 16 19
  22466638.797     7051827.227 6   5494912.286 2
  21851590.516    -7005168.051 7  -5458555.926 2
  23170604.570    -1593643.282 6  -1241790.944 1
  23587703.680    -5350757.789 5  -2743141.966 1
  23897031.539    -2443354.093 5  -1903917.398 1
  21230122.484      964051.466 6    751207.017 2
 91  4 23 21  5 30.0000000  0  6 18 02 11 06 16 19
  22475072.508     7096131.615 6   5529435.057 1
  21846247.016    -7033261.592 7  -5480446.926 2
  23171854.242    -1587107.240 6  -1236697.905 1
  23581679.031    -5382383.783 5  -2767785.551 1
  23897137.867    -2442756.263 5  -1903451.609 1
  21231925.813      973532.497 6    758594.818 2
 91  4 23 21  5 45.0000000  0  6 18 02 11 06 16 19
  22483519.016     7140511.919 7   5564016.976 1
  21840914.414    -7061275.758 7  -5502276.091 2
  23173127.102    -1580418.475 6  -1231485.867 1
  23575662.055    -5414001.906 5  -2792422.923 1
  23897272.563    -2442028.125 5  -1902884.325 1
  21233740.008      983066.464 6    766023.872 2
 91  4 23 21  6  0.0000000  0  6 18 02 11 06 16 19
  22491978.695     7184968.772 6   5598658.539 1
  21835600.141    -7089209.711 7  -5524042.747 2
  23174424.891    -1573576.013 6  -1226154.060 1
  23569651.820    -5445611.102 5  -2817053.407 1
  23897431.414    -2441168.903 5  -1902214.858 1
  21235564.969      992654.623 6    773495.156 2
 91  4 23 21  6 15.0000000  0  6 18 02 11 06 16 19
  22500450.828     7229497.288 6   5633355.971 2
  21830297.336    -7117068.183 7  -5545750.585 2
  23175756.602    -1566584.756 6  -1220706.319 1
  23563633.750    -5477216.330 6  -2841680.782 1
  23897611.922    -2440183.291 5  -1901446.939 1
  21237399.000     1002292.095 7    781004.858 2
 91  4 23 21  6 30.0000000  0  6 18 02 11 06 16 19
  22508935.063     7274098.283 6   5668109.860 1
  21825010.938    -7144849.902 7  -5567398.634 2
  23177111.250    -1559443.580 6  -1215141.766 1
  23557622.617    -5508816.432 6  -2866304.132 1
  23897827.672    -2439070.571 5  -1900579.940 1
  21239247.789     1011980.078 6    788553.923 2
 91  4 23 21  6 45.0000000  0  6 18 02 11 06 16 19
  22517439.328     7318769.805 6   5702918.694 1
  21819737.570    -7172556.601 7  -5588988.215 2
  23178501.711    -1552154.102 6  -1209461.647 1
  23551606.953    -5540413.011 6  -2890924.775 1
  23898075.305    -2437832.436 5  -1899615.181 1
  21241096.938     1021717.115 7    796141.212 2
 91  4 23 21  7  0.0000000  0  6 18 02 11 06 16 19
  22525952.211     7363513.316 6   5737783.639 1
  21814480.203    -7200186.912 7  -5610518.270 2
  23179916.820    -1544714.821 6  -1203664.802 1
  23545601.773    -5572004.531 6  -2915541.453 1
  23898341.680    -2436467.458 5  -1898551.635 1
  21242951.609     1031504.668 7    803767.862 2
 91  4 23 21  7 15.0000000  0  6 18 02 11 06 16 19
  22534479.406     7408332.846 6   5772707.821 1
  21809238.828    -7227736.471 7  -5631985.400 2
  23181363.977    -1537121.474 6  -1197747.903 1
  23539586.266    -5603586.744 6  -2940150.892 1
  23898621.797    -2434971.420 5  -1897385.953 1
  21244829.836     1041347.255 6    811437.402 2
 91  4 23 21  7 30.0000000  0  5 18 02 11 06 19
  22543023.719     7453224.823 6   5807688.442 1
  21804011.953    -7255208.289 7  -5653391.963 2
  23182837.141    -1529377.353 6  -1191713.532 1
  23533577.609    -5635162.864 6  -2964755.590 1
  21246712.180     1051241.829 6    819147.442 2
 91  4 23 21  7 45.0000000  0  6 18 02 11 06 16 19
  22551578.109     7498186.032 6   5842723.021 1
  21798797.641    -7282605.402 7  -5674740.300 2
  23184334.891    -1521485.502 6  -1185564.037 1
  23527571.063    -5666735.921 6  -2989357.874 1
  23899257.805          -0.92415
  21248606.273     1061185.340 6    826895.617 2
 91  4 23 21  8  0.0000000  0  6 18 02 11 06 16 19
  22560150.281     7543220.128 6   5877814.380 1
  21793597.375    -7309923.762 7  -5696027.277 2
  23185868.852    -1513442.008 6  -1179296.377 1
  23521563.203    -5698301.852 6  -3013954.591 1
  23899617.938        1876.194 5
  21250507.383     1071181.966 6    834685.169 2
 91  4 23 21  8 15.0000000  0  6 18 02 11 06 16 19
  22568732.219     7588328.293 6   5912963.461 1
  21788414.680    -7337162.170 7  -5717251.955 2
  23187431.180    -1505245.683 6  -1172909.630 1
  23515557.852    -5729859.522 6  -3038544.905 1
  23899997.680        3882.817 5
  21252423.906     1081232.980 6    842517.112 2
 91  4 23 21  8 30.0000000  0  6 18 02 11 06 16 19
  22577329.391     7633508.159 6   5948168.432 1
  21783247.023    -7364322.539 7  -5738415.812 2
  23189014.469    -1496898.636 6  -1166405.429 1
  23509555.414    -5761410.974 6  -3063130.370 1
  23900412.445        6017.192 5        -0.35711
  21254346.211     1091336.355 7    850389.850 2
 91  4 23 21  8 45.0000000  0  6 18 02 11 06 16 19
  22585943.711     7678757.002 6   5983427.129 1
  21778093.563    -7391407.526 7  -5759520.939 2
  23190635.109    -1488403.436 6  -1159785.793 1
  23503550.320    -5792958.743 6  -3087712.924 1
  23900833.563        8276.134 5      1759.780 1
  21256275.867     1101489.556 6    858301.412 2
 91  4 23 21  9  0.0000000  0  6 18 02 11 06 16 19
  22594567.063     7724077.827 6   6018741.903 1
  21772955.383    -7418413.569 7  -5780564.549 2
  23192275.219    -1479756.669 6  -1153048.044 1
  23497547.516    -5824499.363 6  -3112289.910 1
  23901287.234       10663.077 5      3619.695 1
  21258214.836     1111696.100 6    866254.543 2
 91  4 23 21  9 15.0000000  0  6 18 02 11 06 16 19
  22603202.539     7769469.257 6   6054111.712 1
  21767828.797    -7445342.208 7  -5801547.848 2
  23193950.672    -1470959.833 6  -1146193.375 1
  23491547.609    -5856034.224 5  -3136862.438 1
  23901770.750       13176.705 5      5578.307 1
  21260170.430     1121954.588 6    874248.151 2
 91  4 23 21  9 30.0000000  0  6 18 02 11 06 16 19
  22611853.859     7814931.439 6   6089536.648 1
  21762720.023    -7472192.695 7  -5822470.247 2
  23195656.531    -1462012.149 6  -1139221.139 1
  23485547.313    -5887562.753 6  -3161430.018 1
  23902268.875       15817.284 5      7635.837 1
  21262132.711     1132265.723 6    882282.790 2
 91  4 23 21  9 45.0000000  0  6 18 02 11 06 16 19
  22620516.953     7860462.188 6   6125015.025 1
  21757625.727    -7498967.041 7  -5843333.323 2
  23197386.063    -1452915.807 6  -1132133.099 1
  23479545.734    -5919086.882 6  -3185994.143 1
  23902789.781       18582.845 5      9790.769 1
  21264104.414     1142627.795 6    890357.124 2
 91  4 23 21 10  0.0000000  0  6 18 02 11 06 16 19
  22629196.281     7906062.622 6   6160547.684 1
  21752543.906    -7525663.934 7  -5864136.037 2
  23199147.219    -1443669.604 6  -1124928.264 1
  23473551.891    -5950605.548 6  -3210554.057 1
  23903340.344       21474.544 5     12043.932 1
  21266082.328     1153042.108 6    898472.162 2
 91  4 23 21 10 15.0000000  0  6 18 02 11 06 16 19
  22637888.852     7951732.018 6   6196134.082 1
  21747479.539    -7552283.504 7  -5884878.507 2
  23200936.406    -1434273.806 6  -1117606.859 1
  23467554.125    -5982118.744 5  -3235109.682 1
  23903919.227       24492.067 5     14395.218 1
  21268077.633     1163508.470 6    906627.754 2
 91  4 23 21 10 30.0000000  0  6 18 02 11 06 16 19
  22646592.992     7997471.608 6   6231775.179 1
  21742426.766    -7578824.539 7  -5905559.785 2
  23202749.391    -1424727.267 6  -1110167.991 1
  23461561.313    -6013625.371 5  -3259660.214 1
  23904520.742       27636.274 5     16845.181 1
  21270078.797     1174028.078 7    914824.823 2
 91  4 23 21 10 45.0000000  0  6 18 02 11 06 16 19
  22655308.297     8043279.174 6   6267469.255 1
  21737394.586    -7605288.990 7  -5926181.379 2
  23204601.117    -1415031.967 6  -1102613.208 1
  23455565.703    -6045127.297 5  -3284207.061 1
  23905145.734       30905.540 5     19392.584 1
  21272094.563     1184599.283 7    923062.110 2
 91  4 23 21 11  0.0000000  0  6 18 02 11 06 16 19
  22664037.938     8089157.447 6   6303218.426 1
  21732370.500    -7631673.909 7  -5946741.006 2
  23206469.156    -1405185.000 6  -1094940.248 1
  23449569.922    -6076621.578 5  -3308747.962 1
  23905788.617       34302.516 5     22039.523 1
  21274111.969     1195225.247 7    931342.051 2
 91  4 23 21 11 15.0000000  0  6 18 02 11 06 16 19
  22672781.609     8135103.814 6   6339020.665 1
  21727362.508    -7657981.558 7  -5967240.428 2
  23208369.859    -1395188.874 6  -1087151.073 1
  23443578.773    -6108110.605 5  -3333284.756 1
  23906453.352       37824.410 5     24783.796 1
  21276148.391     1205903.538 7    939662.777 2
 91  4 23 21 11 30.0000000  0  6 18 02 11 06 16 19
  22681537.531     8181118.206 6   6374875.881 1
  21722373.031    -7684211.989 7  -5987679.679 2
  23210308.125    -1385043.603 6  -1079245.674 1
  23437586.023    -6139594.365 5  -3357817.453 1
  23907149.641       41471.059 5     27625.287 1
  21278185.008     1216634.192 6    948024.314 2
 91  4 23 21 11 45.0000000  0  6 18 02 11 06 16 19
  22690307.625     8227198.984 6   6410782.835 1
  21717395.703    -7710366.428 7  -6008059.705 2
  23212254.180    -1374750.381 6  -1071224.994 1
  23431597.633    -6171074.073 5  -3382347.018 1
  23907866.914       45241.526 5     30563.217 1
  21280241.656     1227415.915 6    956425.647 2
 91  4 23 21 12  0.0000000  0  6 18 02 11 06 16 19
  22699089.570     8273348.600 6   6446743.429 1
  21712434.094    -7736442.222 7  -6028378.461 2
  23214245.594    -1364306.698 6  -1063087.070 1
  23425607.078    -6202547.013 5  -3406871.274 1
  23908606.594       49138.368 5     33599.666 1
  21282300.945     1238251.551 7    964868.990 2
 91  4 23 21 12 15.0000000  0  6 18 02 11 06 16 19
  22707887.844     8319566.962 6   6482757.590 1
  21707486.656    -7762438.929 7  -6048635.583 2
  23216260.695    -1353712.238 6  -1054831.655 1
  23419621.031    -6234012.902 5  -3431390.047 1
  23909384.664       53161.356 5     36734.399 1
  21284375.523     1249141.421 6    973354.600 2
 91  4 23 21 12 30.0000000  0  6 18 02 11 06 16 19
  22716694.719     8365854.213 6   6518825.437 1
  21702554.891    -7788356.303 7  -6068830.888 2
  23218312.086    -1342966.772 6  -1046458.566 1
  23413631.164    -6265471.462 5  -3455903.130 1
  23910175.063       57310.825 5     39967.703 1
  21286454.500     1260086.078 7    981882.882 2
 91  4 23 21 12 45.0000000  0  6 18 02 11 06 16 19
  22725514.945     8412207.520 6   6554944.753 1
  21697637.227    -7814197.126 7  -6088966.537 2
  23220385.336    -1332073.152 6
  23407650.820    -6296925.355 5  -3480412.570 1
  23910978.492       61584.028 5     43297.375 1
  21288550.031     1271082.822 7
 91  4 23 21 13  0.0000000  0  6 18 02 11 06 16 19
  22734349.344     8458627.600 6   6591116.100 1
  21692734.211    -7839960.235 7  -6109041.634 2
  23222486.047    -1321030.429 6
  23401662.313    -6328373.522 5  -3504917.533 1
  23911816.320       65981.766 5     46724.105 1
  21290650.594     1282132.801 7
 91  4 23 21 13 15.0000000  0  6 18 02 11 06 16 19
  22743196.461     8505116.405 6   6627340.985 1
  21687848.688    -7865643.374 7  -6129054.411 2
  23224614.883    -1309836.310 6  -1020642.660 1
  23395679.641    -6359813.658 5  -3529416.246 1
  23912676.578       70506.385 5     50249.720 1
  21292763.586     1293238.528 6   1007715.900 2
 91  4 23 21 13 30.0000000  0  6 18 02 11 06 16 19
  22752056.594     8551672.814 6   6663618.556 1
  21682976.125    -7891247.414 7  -6149005.554 2
  23226776.648    -1298491.943 6  -1011802.899 1
  23389695.094    -6391246.762 5  -3553909.471 1
  23913559.070       75156.623 5     53873.232 1
  21294886.297     1304399.057 7   1016412.395 2
 91  4 23 21 13 45.0000000  0  6 18 02 11 06 16 19
  22760923.289     8598290.387 6   6699943.795 1
  21678115.945    -7916778.687 7  -6168899.996 2
  23228955.992    -1287003.729 6  -1002851.042 1
  23383720.125    -6422679.139 5  -3578402.163 1
  23914469.844       79925.838 5     57589.428 1
  21297021.094     1315608.053 6   1025146.647 2
 91  4 23 21 14  0.0000000  0  6 18 02 11 06 16 19
  22769811.016     8644970.698 6   6736317.917 1
  21673273.367    -7942235.270 7  -6188736.247 2
  23231172.953    -1275369.669 6   -993785.537 1
  23377737.680    -6454108.834 5  -3602892.742 1
  23915402.578       84815.888 5     61399.794 1
  21299166.063     1326867.515 6   1033920.242 2
 91  4 23 21 14 15.0000000  0  5 18 02 11 06 19
  22778706.406     8691716.133 6   6772742.786 1
  21668442.406    -7967614.275 7  -6208512.027 2
  23233416.461    -1263587.149 6   -984604.357 1
  23371758.656    -6485533.156 5  -3627379.154 1
  21301316.852     1338180.320 6   1042735.398 2
 91  4 23 21 14 30.0000000  0  6 18 02 11 06 16 19
  22787610.727     8738528.426 6   6809219.738 1
  21663627.367    -7992913.863 7  -6228225.934 2
  23235684.469    -1251654.386 6   -975306.109 1
  23365780.859    -6516950.161 5  -3651859.862 1
  23917331.055          -0.61915
  21303477.195     1349548.311 6   1051593.555 2
 91  4 23 21 14 45.0000000  0  6 18 02 11 06 16 19
  22796534.523     8785408.325 6   6845749.381 1
  21658828.313    -8018133.008 7  -6247877.158 2
  23237987.461    -1239570.413 6   -965890.048 1
  23359800.156    -6548358.767 5  -3676334.025 1
  23918335.188        5264.391 5
  21305653.859     1360972.775 6   1060495.715 2
 91  4 23 21 15  0.0000000  0  6 18 02 11 06 16 19
  22805467.633     8832353.227 6   6882329.662 1
  21654044.438    -8043274.189 7  -6267467.638 2
  23240313.313    -1227337.770 6   -956358.133 1
  23353826.188    -6579761.365 5  -3700803.491 1
  23919363.039       10653.096 5        -0.33511
  21307837.227     1372451.374 7   1069440.051 2
 91  4 23 21 15 15.0000000  0  6 18 02 11 06 16 19
  22814414.063     8879362.492 6   6918960.102 1
  21649276.531    -8068337.764 7  -6286997.626 2
  23242667.414    -1214957.051 6   -946710.818 1
  23347850.266    -6611158.496 5  -3725268.713 1
  23920411.383       16164.699 5      4294.336 1
  21310033.953     1383983.688 6   1078426.242 2
 91  4 23 21 15 30.0000000  0  6 18 02 11 06 16 19
  22823372.773     8926433.884 6   6955638.947 1
  21644521.281    -8093325.588 7  -6306468.604 2
  23245047.172    -1202430.129 6   -936949.591 1
  23341877.703    -6642551.905 5  -3749731.032 1
  23921480.500       21797.413 5      8683.388 1
  21312239.937     1395567.883 6   1087452.867 2
 91  4 23 21 15 45.0000000  0  6 18 02 11 06 16 19
  22832339.039     8973568.246 6   6992366.860 1
  21639781.852    -8118236.766 8  -6325879.851 2
  23247463.008    -1189756.058 6   -927073.703 1
  23335899.789    -6673940.575 6  -3774189.663 1
  23922568.633       27551.983 5     13167.404 1
  21314454.133     1407205.099 6   1096520.801 2
 91  4 23 21 16  0.0000000  0  6 18 02 11 06 16 19
  22841318.453     9020767.510 6   7029145.348 1
  21635055.695    -8143068.989 8  -6345229.579 2
  23249903.742    -1176932.768 6   -917081.546 1
  23329933.172    -6705322.354 6  -3798642.923 1
  23923695.648       33430.510 5     17747.999 1
  21316676.523     1418897.643 6   1105631.848 2
 91  4 23 21 16 15.0000000  0  6 18 02 11 06 16 19
  22850315.281     9068029.948 6   7065973.063 1
  21630344.883    -8167823.683 8  -6364518.894 2
  23252374.898    -1163961.825 6   -906974.326 1
  23323960.016    -6736698.744 5  -3823091.981 1
  23924836.516       39431.089 5     22423.698 1
  21318914.961     1430643.961 6   1114784.796 2
 91  4 23 21 16 30.0000000  0  6 18 02 11 06 16 19
  22859317.000     9115352.845 6   7102847.911 1
  21625647.227    -8192503.420 7  -6383749.803 2
  23254867.234    -1150845.949 6   -896754.171 1
  23317991.156    -6768072.159 6  -3847538.730 1
  23926001.000       45551.161 5     27192.494 1
  21321157.609     1442441.742 6   1123977.842 2
 91  4 23 21 16 45.0000000  0  6 18 02 11 06 16 19
  22868334.328     9162739.263 6   7139772.242 1
  21620965.789    -8217104.877 7  -6402919.722 2
  23257395.375    -1137581.847 6   -886418.525 1
  23312020.297    -6799439.323 6  -3871980.616 1
  23927189.094       51793.978 5     32056.970 1
  21323413.820     1454294.426 6   1133213.669 2
 91  4 23 21 17  0.0000000  0  6 18 02 11 06 16 19
  22877366.586     9210186.325 6   7176743.821 1
  21616296.813    -8241630.427 7  -6422030.490 2
  23259946.195    -1124171.985 6   -875969.300 1
  23306054.078    -6830802.629 6  -3896419.475 1
  23928396.273       58156.830 5     37014.956 1
  21325679.984     1466199.560 6   1142490.361 2
 91  4 23 21 17 15.0000000  0  6 18 02 11 06 16 19
  22886406.570     9257694.672 6   7213763.151 1
  21611646.367    -8266079.411 7  -6441081.602 3
  23262522.945    -1110615.659 6   -865405.936 1
  23300085.625    -6862161.237 6  -3920854.685 1
  23929634.164       64640.401 5     42067.017 1
  21327954.609     1478158.203 6   1151808.758 2
 91  4 23 21 17 30.0000000  0  6 18 02 11 06 16 19
  22895455.031     9305261.507 6   7250828.084 1
  21607008.328    -8290454.366 7  -6460075.023 2
  23265132.000    -1096915.651 6   -854730.615 1
  23294121.461    -6893517.774 6  -3945288.280 1
  23930891.938       71242.185 5     47211.185 1
  21330240.188     1490167.837 6   1161166.880 2
 91  4 23 21 17 45.0000000  0  6 18 02 11 06 16 19
  22904522.586     9352891.970 6   7287942.574 1
  21602385.539    -8314749.925 7  -6479006.588 3
  23267767.500    -1083066.678 6   -843939.230 1
  23288155.875    -6924866.820 6  -3969716.051 1
  23932174.516       77967.287 5     52451.458 1
  21332537.727     1502233.842 6   1170568.936 2
 91  4 23 21 18  0.0000000  0  6 18 02 11 06 16 19
  22913598.258     9400580.000 6   7325101.913 1
  21597775.180    -8338971.788 7  -6497880.719 2
  23270430.898    -1069074.627 6   -833036.345 1
  23282186.898    -6956214.200 6  -3994142.509 1
  23933471.375       84809.339 5     57782.832 1
  21334839.070     1514350.402 6   1180010.380 2
 91  4 23 21 18 15.0000000  0  6 18 02 11 06 16 19
  22922686.633     9448327.527 6   7362307.637 1
  21593176.922    -8363117.679 7  -6516695.659 2
  23273119.945    -1054937.275 6   -822020.255 1
  23276227.555    -6987557.627 6  -4018565.864 1
  23934795.883       91770.811 5     63207.276 1
  21337156.156     1526519.937 6   1189493.104 1
 91  4 23 21 18 30.0000000  0  6 18 02 11 06 16 19
  22931785.031     9496137.661 6   7399562.106 1
  21588602.023    -8387184.446 7  -6535448.933 2
  23275838.297    -1040651.533 6   -810888.538 1
  23270260.906    -7018893.855 6  -4042983.635 1
  23936144.547       98854.503 5     68726.920 1
  21339484.930     1538745.806 6   1199019.727 2
 91  4 23 21 18 45.0000000  0  6 18 02 11 06 16 19
  22940893.188     9544010.904 6   7436865.766 1
  21584036.359    -8411171.309 7  -6554139.947 2
  23278587.266    -1026216.749 6   -799640.682 1
  23264299.070    -7050221.985 6  -4067395.109 1
  23937523.008      106061.209 5     74342.491 1
  21341823.133     1551028.790 6   1208590.849 2
 91  4 23 21 19  0.0000000  0  6 18 02 11 06 16 19
  22950015.102     9591941.433 6   7474214.085 1
  21579485.039    -8435083.617 7  -6572772.867 2
  23281357.945    -1011638.467 6   -788281.011 1
  23258337.273    -7081547.611 6  -4091804.622 1
  23938909.234      113385.392 5     80049.523 1
  21344173.453     1563363.571 6   1218202.328 2
 91  4 23 21 19 15.0000000  0  6 18 02 11 06 16 19
  22959145.477     9639931.540 6   7511608.805 1
  21574950.320    -8458918.785 7  -6591345.683 2
  23284156.859     -996914.098 6   -776807.513 1
  23252372.570    -7112867.905 6  -4116209.969 1
  23940317.875      120829.584 4     85850.121 1
  21346528.563     1575752.997 6   1227856.393 2
 91  4 23 21 19 30.0000000  0  6 18 02 11 06 16 19
  22968292.234     9687980.844 6   7549049.656 1
  21570430.836    -8482677.128 7  -6609858.629 2
  23286989.484     -982044.054 6   -765220.482 1
  23246418.922    -7144183.238 6  -4140611.466 1
  23941754.055      128393.069 4     91743.678 1
  21348892.531     1588196.619 7   1237552.686 2
 91  4 23 21 19 45.0000000  0  6 18 02 11 06 16 19
  22977447.695     9736085.689 6   7586533.792 1
  21565923.578    -8506362.071 7  -6628314.373 2
  23289846.883     -967031.946 6   -753522.750 1
  23240460.578    -7175497.081 6  -4165011.798 1
  23943229.445      136072.237 5     97727.392 1
  21351272.953     1600691.038 6   1247288.572 2
 91  4 23 21 20  0.0000000  0  6 18 02 11 06 16 19
  22986612.078     9784251.212 6   7624065.200 1
  21561429.586    -8529968.133 7  -6646708.666 2
  23292731.250     -951872.307 6   -741710.061 1
  23234505.156    -7206803.788 6  -4189406.557 1
  23944713.938      143872.495 5    103805.444 1
  21353661.945     1613242.101 6   1257068.594 2
 91  4 23 21 20 15.0000000  0  6 18 02 11 06 16 19
  22995787.586     9832473.082 6   7661640.518 1
  21556950.883    -8553499.754 7  -6665044.947 3
  23295647.531     -936569.767 6   -729786.029 1
  23228544.500    -7238107.823 6  -4213799.239 1
  23946210.477      151789.142 5    109974.172 1
  21356062.164     1625845.373 6   1266889.318 2
 91  4 23 21 20 30.0000000  0  6 18 02 11 06 16 19
  23004971.813     9880752.597 6   7699260.775 1
  21552487.367    -8576954.899 7  -6683321.635 2
  23298585.000     -921122.405 6   -717749.135 1
  23222588.211    -7269407.227 6  -4238188.317 1
  23947738.445      159824.069 5    116235.064 1
  21358463.102     1638502.939 6   1276752.337 2
 91  4 23 21 20 45.0000000  0  6 18 02 11 06 16 19
  23014172.289     9929084.476 6   7736921.821 1
  21548038.492    -8600338.616 7  -6701542.668 2
  23301548.719     -905535.457 6   -705603.487 1
  23216631.031    -7300706.907 6  -4262577.601 1
  23949297.055      167972.150 5    122584.118 1
  21360884.797     1651209.751 6   1286653.732 2
 91  4 23 21 21  0.0000000  0  6 18 02 11 06 16 19
  23023380.516     9977473.051 6   7774627.050 1
  21543603.039    -8623646.488 7  -6719704.598 3
  23304543.211     -889804.699 6   -693345.788 1
  23210675.594    -7332002.479 6  -4286963.691 1
  23950869.258      176237.664 5    129024.712 1
  21363312.305     1663970.316 6   1296597.007 2
 91  4 23 21 21 15.0000000  0  6 18 02 11 06 16 19
  23032598.211    10025918.568 6   7812376.637 1
  21539182.617    -8646877.989 7  -6737807.019 2
  23307563.898     -873929.773 6   -680975.718 1
  23204722.898    -7363293.435 6  -4311346.183 1
  23952462.500      184620.855 5    135556.991 1
  21365752.672     1676785.330 6   1306582.700 2
 91  4 23 21 21 30.0000000  0  6 18 02 11 06 16 19
  23041828.711    10074422.654 6   7850171.859 1
  21534776.000    -8670031.075 7  -6755848.337 2
  23310614.516     -857908.699 6   -668491.780 1
  23198769.992    -7394577.827 6  -4335723.553 1
  23954073.797      193123.290 5    142182.167 1
  21368199.180     1689656.845 6   1316612.423 2
 91  4 23 21 21 45.0000000  0  6 18 02 11 06 16 19
  23051073.203    10122987.479 6   7888014.431 1
  21530386.727    -8693103.507 7  -6773826.808 2
  23313689.180     -841739.206 6   -655892.184 1
  23192816.945    -7425853.067 6  -4360093.808 1
  23955719.570      201747.512 5    148902.252 1
  21370662.195     1702587.331 6   1326688.098 2
 91  4 23 21 22  0.0000000  0  6 18 02 11 06 16 19
  23060320.813    10171605.535 6   7925898.451 1
  21526009.852    -8716102.520 7  -6791748.068 2
  23316788.398     -825428.698 6   -643182.717 1
  23186869.203    -7457126.457 6  -4384462.610 1
  23957386.664      210486.295 5    155711.580 1
  21373132.203     1715569.657 6   1336804.178 2
 91  4 23 21 22 15.0000000  0  6 18 02 11 06 16 19
  23069582.984    10220277.222 6   7963824.274 1
  21521647.758    -8739027.372 7  -6809611.537 2
  23319925.719     -808976.496 6   -630362.833 1
  23180916.570    -7488397.357 6  -4408829.462 1
  23959072.664      219339.816 5    162610.357 1
  21375613.055     1728604.641 6   1346961.295 2
 91  4 23 21 22 30.0000000  0  6 18 02 11 06 16 19
  23078853.562    10269003.172 6   8001792.377 1
  21517299.930    -8761877.553 8  -6827416.816 2
  23323083.289     -792382.169 6   -617432.200 1
  23174965.836    -7519665.026 6  -4433193.810 1
  23960780.406      228308.317 5    169598.718 1
  21378102.180     1741692.917 6   1357159.943 2
 91  4 23 21 22 45.0000000  0  6 18 02 11 06 16 19
  23088137.875    10317783.390 5   8039802.767 1
  21512965.953    -8784652.550 8  -6845163.515 2
  23326266.055     -775645.440 6   -604390.594 1
  23169017.547    -7550929.029 6  -4457555.304 1
  23962506.602      237391.960 5    176676.793 1
  21380603.984     1754835.068 6   1367400.566 2
 91  4 23 21 23  0.0000000  0  6 18 02 11 06 16 19
  23097425.523    10366617.807 5   8077855.406 1
  21508646.906    -8807351.982 8  -6862851.327 2
  23329478.773     -758766.114 6   -591237.873 1
  23163067.375    -7582188.994 6  -4481913.666 1
  23964261.570      246591.050 5    183844.851 1
  21383115.781     1768031.431 6   1377683.425 2
 91  4 23 21 23 15.0000000  0  6 18 02 11 06 16 19
  23106733.867    10415508.099 5   8115951.573 1
  21504339.719    -8829973.945 7  -6880478.776 2
  23332720.570     -741742.614 6   -577972.824 1
  23157121.766    -7613443.161 6  -4506267.476 1
  23966039.188      255907.607 5    191104.378 1
  21385637.766     1781283.772 6   1388009.910 2
 91  4 23 21 23 30.0000000  0  6 18 02 11 06 16 19
  23116050.070    10464450.168 6   8154088.092 1
  21500048.766    -8852522.313 8  -6898048.884 2
  23335990.078     -724578.829 6   -564598.456 1
  23151177.938    -7644695.185 6  -4530619.630 1
  23967827.602      265337.386 5    198452.174 1
  21388166.883     1794588.624 6   1398377.309 2
 91  4 23 21 23 45.0000000  0  6 18 02 11 06 16 19
  23125375.008    10513447.690 6   8192267.816 1
  21495774.172    -8874993.398 8  -6915558.760 2
  23339282.672     -707271.152 6   -551111.967 1
  23145226.297    -7675941.321 6  -4554967.174 1
  23969633.477      274883.690 4    205890.750 1
  21390713.719     1807949.568 6   1408788.406 2
 91  4 23 21 24  0.0000000  0  6 18 02 11 06 16 19
  23134708.336    10562499.372 6   8230489.744 1
  21491513.828    -8897388.077 8  -6933009.116 2
  23342597.938     -689820.416 6   -537513.996 1
  23139281.133    -7707182.300 6  -4579310.738 1
  23971474.273      284545.775 5    213419.583 1
  21393265.625     1821365.943 6   1419242.706 2
 91  4 23 21 24 15.0000000  0  6 18 02 11 06 16 19
  23144051.867    10611605.873 6   8268754.385 1
  21487265.930    -8919705.281 7  -6950399.090 2
  23345947.211     -672225.852 6   -523803.949 1
  23133339.367    -7738417.114 6  -4603649.498 1
  23973349.414      294324.519 5    221039.279 1
  21395828.695     1834838.905 6   1429741.100 2
 91  4 23 21 24 30.0000000  0  6 18 02 11 06 16 19
  23153404.805    10660762.012 6   8307057.707 1
  21483031.055    -8941950.160 7  -6967732.712 2
  23349322.039     -654492.784 6   -509985.976 1
  23127397.703    -7769651.018 6  -4627987.526 1
  23975228.078      304214.210 5    228745.447 1
  21398400.875     1848363.394 6   1440279.650 2
 91  4 23 21 24 45.0000000  0  6 18 02 11 06 16 19
  23162768.188    10709971.336 6   8345402.464 1
  21478810.641    -8964118.879 7  -6985006.992 2
  23352722.781     -636617.575 6   -496057.245 1
  23121455.313    -7800880.103 5  -4652321.795 1
  23977128.594      314218.629 5    236541.007 1
  21400987.727     1861943.209 6   1450861.312 2
 91  4 23 21 25  0.0000000  0  6 18 02 11 06 16 19
  23172149.891    10759235.382 6   8383789.862 1
  21474609.094    -8986209.731 7  -7002220.596 2
  23356151.164     -618598.467 6   -482016.374 1
  23115508.141    -7832102.379 5  -4676650.794 1
  23979061.086      324339.697 5    244427.474 1
  21403581.805     1875580.307 6   1461487.600 2
 91  4 23 21 25 15.0000000  0  6 18 02 11 06 16 19
  23181531.836    10808552.803 6   8422218.839 1
  21470418.344    -9008223.579 7  -7019374.199 2
  23359608.227     -600436.506 6   -467864.215 1
  23109572.672    -7863318.900 5  -4700975.281 1
  23981000.586      334576.166 5    252403.823 1
  21406189.766     1889273.765 6   1472157.807 2
 91  4 23 21 25 30.0000000  0  6 18 02 11 06 16 19
  23190925.375    10857922.208 6   8460688.329 1
  21466244.492    -9030161.813 7  -7036468.886 2
  23363091.117     -582133.251 6   -453601.942 1
  23103633.461    -7894530.819 5  -4725296.158 1
  23982964.461      344926.426 5    260468.888 1
  21408803.492     1903022.581 7   1482871.148 2
 91  4 23 21 25 45.0000000  0  6 18 02 11 06 16 19
  23200331.445    10907345.019 6   8499199.418 1
  21462085.289    -9052022.538 7  -7053503.163 2
  23366598.844     -563687.035 6   -439228.266 1
  23097693.344    -7925736.244 5  -4749611.985 1
  23984964.398      355391.927 5    268623.734 1
  21411433.266     1916828.495 6   1493628.978 2
 91  4 23 21 26  0.0000000  0  6 18 02 11 06 16 19
  23209746.648    10956820.972 6   8537751.932 1
  21457940.875    -9073806.114 7  -7070477.325 2
  23370137.867     -545098.301 6   -424743.544 1
  23091755.164    -7956935.537 5  -4773923.063 1
  23986979.219      365972.240 5    276868.036 1
  21414072.281     1930691.358 7   1504431.193 2
 91  4 23 21 26 15.0000000  0  6 18 02 11 06 16 19
  23219171.641    11006351.077 6   8576346.636 1
  21453810.469    -9095511.279 7  -7087390.392 2
  23373701.719     -526365.865 6   -410146.838 1
  23085821.977    -7988127.395 5  -4798228.327 1
  23989008.609      376668.901 5    285202.989 1
  21416720.664     1944612.509 6   1515278.822 2
 91  4 23 21 26 30.0000000  0  6 18 02 11 06 16 19
  23228608.828    11055932.332 6   8614981.208 1
  21449693.773    -9117140.415 7  -7104244.205 2
  23377291.930     -507492.340 6   -395440.203 1
  23079884.867    -8019314.186 5  -4822529.602 1
  23991066.477      387478.725 5    293626.146 1
  21419375.016     1958589.569 6   1526170.024 2
 91  4 23 21 26 45.0000000  0  6 18 02 11 06 16 19
  23238054.117    11105564.976 6   8653655.811 1
  21445591.531    -9138693.159 7  -7121038.500 2
  23380915.578     -488477.579 6   -380623.514 1
  23073946.781    -8050495.484 4  -4846826.676 1
  23993157.531      398401.934 5    302137.657 1
  21422045.086     1972623.105 6   1537105.231 2
 91  4 23 21 27  0.0000000  0  6 18 02 11 06 16 19
  23247506.914    11155250.330 6   8692371.489 1
  21441505.062    -9160168.004 7  -7137772.099 2
  23384555.500     -469320.027 6   -365695.581 1
  23068023.117    -8081669.620 5  -4871118.144 1
  23995251.133      409440.305 5    310738.890 1
  21424732.063     1986714.964 7   1548085.880 2
 91  4 23 21 27 15.0000000  0  6 18 02 11 06 16 19
  23256967.469    11204983.112 6   8731124.144 1
  21437433.078    -9181570.005 7  -7154448.940 2
  23388231.141     -450024.894 6   -350660.430 1
  23062085.320    -8112841.735 5  -4895408.018 1
  23997367.539      420588.358 5    319425.567 1
  21427423.977     2000859.920 7   1559107.892 2
 91  4 23 21 27 30.0000000  0  6 18 02 11 06 16 19
  23266443.578    11254766.204 6   8769915.975 1
  21433374.680    -9202895.860 7  -7171066.438 2
  23391927.359     -430589.139 6   -335515.698 1
  23056155.656    -8144008.405 5  -4919693.671 1
  23999517.352      431848.882 5    328199.947 1
  21430120.695     2015061.272 7   1570173.850 2
 91  4 23 21 27 45.0000000  0  6 18 02 11 06 16 19
  23275927.461    11304599.255 6   8808746.742 1
  21429331.742    -9224145.768 7  -7187624.768 2
  23395650.641     -411013.262 6   -320261.763 1
  23050224.797    -8175170.015 5  -4943975.366 1
  24001673.664      443221.443 5    337061.553 1
  21432839.125     2029318.845 7   1581283.618 2
 91  4 23 21 28  0.0000000  0  6 18 02 11 06 16 19
  23285421.320    11354483.219 6   8847617.174 1
  21425302.008    -9245318.316 7  -7204122.814 3
  23399408.148     -391295.774 6   -304897.495 1
  23044299.289    -8206325.004 5  -4968251.902 1
  24003866.836      454707.479 5    346011.649 1
  21435559.477     2043634.266 6   1592438.468 2
 91  4 23 21 28 15.0000000  0  6 18 02 11 06 16 19
  23294920.414    11404417.298 6   8886526.662 1
  21421288.938    -9266414.496 7  -7220561.350 3
  23403183.758     -371437.652 6   -289423.642 1
  23038370.852    -8237474.082 5  -4992523.828 1
  24006074.180      466305.900 5    355049.251 1
  21438296.000     2058006.886 6   1603637.889 2
 91  4 23 21 28 30.0000000  0  6 18 02 11 06 16 19
  23304432.711    11454397.620 6   8925472.188 1
  21417286.508    -9287437.752 7  -7236943.058 3
  23406991.500     -351442.696 6   -273843.165 1
  23032440.344    -8268620.679 4  -5016793.807 1
  24008294.867      478013.133 5    364171.654 1
  21441041.438     2072433.099 6   1614879.080 2
 91  4 23 21 28 45.0000000  0  6 18 02 11 06 16 19
  23313949.313    11504428.392 5   8964457.030 1
  21413301.469    -9308383.713 7  -7253264.546 3
  23410825.336     -331306.559 6   -258152.674 1
  23026520.563    -8299760.389 5  -5041058.449 1
  24010544.586      489833.189 5    373382.015 1
  21443799.422     2086917.451 6   1626165.574 2
 91  4 23 21 29  0.0000000  0  6 18 02 11 06 16 19
  23323475.930    11554509.342 5   9003480.976 1
  21409331.609    -9329252.286 7  -7269525.722 3
  23414681.844     -311029.417 6   -242352.316 1
  23020596.148    -8330893.278 4  -5065317.720 1
  24012826.711      501766.311 5    382680.435 1
  21446565.711     2101460.070 6   1637497.450 2
 91  4 23 21 29 15.0000000  0  6 18 02 11 06 16 19
  23333022.055    11604636.686 5   9042541.084 1
  21405372.727    -9350047.013 7  -7285729.363 3
  23418567.266     -290614.812 6   -226444.855 1
  23014670.141    -8362022.469 5  -5089574.209 1
  24015116.172      513808.470 5    392063.837 1
  21449345.070     2116057.715 7   1648872.213 2
 91  4 23 21 29 30.0000000  0  6 18 02 11 06 16 19
  23342566.641    11654808.839 5   9081636.098 1
  21401428.906    -9370769.109 7  -7301876.407 3
  23422475.750     -270064.145 6   -210431.375 1
  23008743.961    -8393149.276 5  -5113828.769 1
  24017410.203      525958.214 5
  21452136.875     2130709.245 7   1660288.953 2
 91  4 23 21 29 45.0000000  0  6 18 02 11 06 16 19
  23352129.086    11705030.472 6   9120769.658 1
  21397500.773    -9391413.723 7  -7317963.071 3
  23426414.469     -249372.950 6   -194308.378 1
  23002818.727    -8424268.870 4  -5138077.706 1
  24019749.273      538220.216 5
  21454932.156     2145419.309 7   1671751.313 2
 91  4 23 21 30  0.0000000  0  6 18 02 11 06 16 19
  23361695.656    11755303.438 6   9159943.230 1
  21393586.969    -9411978.716 7  -7333987.691 3
  23430378.648     -228539.279 6   -178074.358 1
  22996896.055    -8455379.082 4  -5162319.344 1
  24022121.656      550596.197 5
  21457741.836     2160190.193 6   1683261.058 2
 91  4 23 21 30 15.0000000  0  6 18 02 11 06 16 19
  23371267.672    11805620.975 6   9199151.505 1
  21389686.930    -9432470.727 7  -7349955.457 3
  23434366.914     -207569.809 6   -161734.524 1
  22990984.539    -8486486.443 5  -5186558.811 1
  24024484.328      563079.513 5        -0.00311
  21460559.984     2175015.538 6   1694813.253 2
 91  4 23 21 30 30.0000000  0  6 18 02 11 06 16 19
  23380850.086    11855986.543 5   9238397.235 1
  21385802.906    -9452885.828 7  -7365863.284 3
  23438387.359     -186460.662 6   -145285.863 1
  22985065.453    -8517586.873 5  -5210792.813 1
  24026874.398      575674.214 5      9813.977 1
  21463393.586     2189899.440 6   1706411.085 2
 91  4 23 21 30 45.0000000  0  6 18 02 11 06 16 19
  23390443.133    11906397.725 6   9277678.518 1
  21381932.930    -9473226.394 7  -7381713.039 3
  23442429.422     -165214.677 6   -128730.578 1
  22979148.750    -8548682.893 5  -5235023.382 1
  24029303.750      588376.998 5     19712.157 1
  21466237.805     2204839.339 6   1718052.546 2
 91  4 23 21 31  0.0000000  0  6 18 02 11 06 16 19
  23400049.570    11956850.832 6   9316992.451 1
  21378075.086    -9493496.076 7  -7397507.552 3
  23446495.133     -143835.450 6   -112071.466 1
  22973233.797    -8579777.894 5  -5259253.205 1
  24031733.047      601184.286 5     29691.755 1
  21469091.570     2219832.049 6   1729735.149 2
 91  4 23 21 31 15.0000000  0  6 18 02 11 06 16 19
  23409657.617    12007346.759 6   9356339.746 1
  21374230.852    -9513693.536 7  -7413245.787 3
  23450589.672     -122321.654 6    -95307.475 1
  22967313.555    -8610870.432 5  -5283481.094 1
  24034192.164      614097.402 5     39753.877 1
  21471952.695     2234878.902 7   1741459.948 2
 91  4 23 21 31 30.0000000  0  6 18 02 11 06 16 19
  23419273.008    12057889.369 6   9395723.403 1
  21370401.742    -9533814.524 7  -7428924.438 3
  23454710.617     -100669.404 6    -78435.601 1
  22961399.641    -8641956.288 5  -5307703.745 1
  24036682.195      627120.319 5     49901.502 1
  21474833.102     2249984.039 7   1753230.157 2
 91  4 23 21 31 45.0000000  0  6 18 02 11 06 16 19
  23428899.570    12108478.736 5   9435143.518 1
  21366587.922    -9553858.885 7  -7444543.377 3
  23458857.906      -78878.764 6    -61455.894 1
  22955486.641    -8673035.354 5  -5331921.135 1
  24039179.516      640252.956 5     60134.663 1
  21477715.078     2265147.938 6   1765046.138 2
 91  4 23 21 32  0.0000000  0  6 18 02 11 06 16 19
  23438534.953    12159112.937 5   9474598.557 1
  21362789.086    -9573828.040 7  -7460103.718 3
  23463028.953      -56951.256 6    -44369.530 1
  22949572.641    -8704108.780 5  -5356134.125 1
  24041683.891      653493.642 4     70451.961 1
  21480608.898     2280369.186 6   1776906.821 2
 91  4 23 21 32 15.0000000  0  6 18 02 11 06 16 19
  23448180.375    12209790.398 6   9514087.305 1
  21359001.313    -9593723.552 7  -7475606.673 3
  23467230.641      -34888.470 6    -27177.762 1
  22943663.281    -8735178.101 5  -5380343.897 1
  24044224.438      666840.815 4     80852.291 1
  21483520.219     2295646.442 6   1788811.155 2
 91  4 23 21 32 30.0000000  0  6 18 02 11 06 16 19
  23457832.070    12260513.945 5   9553611.972 1
  21355231.852    -9613542.579 7  -7491050.028 3
  23471449.297      -12687.815 6     -9878.563 1
  22937750.195    -8766240.390 5  -5404548.206 1
  24046802.648      680296.999 5     91337.521 1
  21486433.164     2310982.472 6   1800761.282 2
 91  4 23 21 32 45.0000000  0  6 18 02 11 06 16 19
  23467492.484    12311279.722 6   9593169.543 1
  21351472.125    -9633288.307 7  -7506436.265 3
  23475705.117        9647.291 6      7525.399 1
  22931838.008    -8797298.846 5  -5428749.532 1
  24049365.656      693859.008 5    101905.213 1
  21489365.297     2326374.348 6   1812754.937 2
 91  4 23 21 33  0.0000000  0  6 18 02 11 06 16 19
  23477159.922    12362088.259 6   9632760.441 1
  21347729.336    -9652960.237 7  -7521765.006 3
  23479979.469       32117.222 6     25034.432 1
  22925930.133    -8828352.769 5  -5452947.310 1
  24051972.258      707526.757 5    112555.307 1
  21492304.305     2341822.636 6   1824792.547 2
 91  4 23 21 33 15.0000000  0  6 18 02 11 06 16 19
  23486838.367    12412940.908 6   9672385.715 1
  21344000.555    -9672556.435 7  -7537034.730 3
  23484284.148       54723.533 6     42649.726 1
  22920016.805    -8859400.411 5  -5477140.208 1
  24054599.789      721301.886 5    123289.050 1
  21495252.508     2357329.174 6   1836875.534 2
 91  4 23 21 33 30.0000000  0  6 18 02 11 06 16 19
  23496525.180    12463835.625 5   9712043.752 1
  21340285.695    -9692078.814 7  -7552246.932 3
  23488609.047       77464.289 6     60369.777 1
  22914111.164    -8890443.471 5  -5501329.538 1
  24057231.086      735182.306 5    134104.818 1
  21498219.133     2372892.183 7   1849002.526 2
 91  4 23 21 33 45.0000000  0  6 18 02 11 06 16 19
  23506214.391    12514773.697 5   9751735.564 1
  21336583.672    -9711525.929 7  -7567400.485 3
  23492955.367      100341.011 6     78195.781 1
  22908209.141    -8921480.246 5  -5525513.958 1
  24059896.938      749169.376 5
  21501194.328     2388513.465 6   1861174.919 2
 91  4 23 21 34  0.0000000  0  6 18 02 11 06 16 19
  23515913.977    12565754.629 5   9791460.784 1
  21332898.898    -9730898.111 7  -7582495.649 3
  23497340.445      123352.936 6     96127.132 1
  22902302.914    -8952511.159 5  -5549693.806 1
  24062582.977      763262.498 5
  21504174.797     2404192.728 7   1873392.494 2
 91  4 23 21 34 15.0000000  0  6 18 02 11 06 16 19
  23525627.813    12616777.630 5   9831218.800 1
  21329225.203    -9750196.208 7  -7597533.074 3
  23501744.711      146499.191 6    114163.161 1
  22896396.664    -8983536.859 5  -5573869.607 1
  24065283.914      777460.853 5
  21507169.508     2419929.214 6   1885654.662 2
 91  4 23 21 34 30.0000000  0  6 18 02 11 06 16 19
  23535346.594    12667842.247 5   9871009.205 1
  21325568.086    -9769420.325 8  -7612512.868 3
  23506175.305      169779.465 6    132303.601 1
  22890497.109    -9014557.509 5  -5598041.465 1
  24068004.250      791764.241 5        -0.31811
  21510174.117     2435722.937 6   1897961.438 2
 91  4 23 21 34 45.0000000  0  6 18 02 11 06 16 19
  23545075.203    12718946.558 6   9910830.561 1
  21321924.508    -9788571.775 8  -7627436.035 3
  23510631.648      193192.076 6    150547.182 1
  22884590.039    -9045574.355 5  -5622210.388 1
  24070753.148      806170.316 5     11225.092 1
  21513191.406     2451572.617 6   1910311.811 2
 91  4 23 21 35  0.0000000  0  6 18 02 11 06 16 19
  23554807.813    12770089.325 6   9950681.840 1
  21318291.969    -9807651.565 7  -7642303.357 3
  23515112.945      216735.887 6    168892.973 1
  22878689.813    -9076588.411 5  -5646377.127 1
  24073508.945      820678.462 5     22530.053 1
  21516218.750     2467477.255 6   1922705.013 2
 91  4 23 21 35 15.0000000  0  6 18 02 11 06 16 19
  23564541.555    12821271.418 5   9990563.816 1
  21314675.164    -9826658.403 7  -7657113.845 3
  23519614.836      240412.015 6    187341.907 1
  22872789.625    -9107598.279 5  -5670540.587 1
  24076291.750      835289.325 5     33915.065 1
  21519254.664     2483438.399 6   1935142.240 2
 91  4 23 21 35 30.0000000  0  6 18 02 11 06 16 19
  23574289.391    12872494.211 6  10030477.474 1
  21311072.695    -9845590.951 7  -7671866.440 3
  23524149.430      264221.850 6    205895.016 1
  22866888.391    -9138602.223 5  -5694699.431 1
  24079091.055      850004.552 5     45381.394 1
  21522298.766     2499457.629 6   1947624.729 2
 91  4 23 21 35 45.0000000  0  6 18 02 11 06 16 19
  23584044.156    12923756.504 5  10070421.924 1
  21307483.367    -9864450.278 7  -7686561.984 3
  23528705.383      288164.005 6    224551.231 1
  22860988.328    -9169601.412 5  -5718854.566 1
  24081901.125      864823.048 5     56928.162 1
  21525364.141     2515533.879 6   1960151.665 3
 91  4 23 21 36  0.0000000  0  6 18 02 11 06 16 19
  23593808.773    12975060.050 5  10110398.545 1
  21303908.984    -9883234.366 7  -7701198.891 3
  23533281.844      312240.334 6    243311.988 1
  22855095.156    -9200593.842 5  -5743004.454 1
  24084744.781      879746.109 5     68556.441 1
  21528432.438     2531669.227 6   1972724.629 2
 91  4 23 21 36 15.0000000  0  6 18 02 11 06 16 19
  23603579.406    13026406.544 5  10150408.623 1
  21300348.750    -9901941.084 7  -7715775.513 3
  23537890.391      336452.710 6    262178.751 1
  22849198.383    -9231577.127 5  -5767147.202 1
  24087609.586      894775.723 5     80267.745 1
  21531513.836     2547865.874 6   1985345.361 3
 91  4 23 21 36 30.0000000  0  6 18 02 11 06 16 19
  23613357.125    13077793.470 5  10190450.179 1
  21296804.070    -9920572.865 7  -7730293.737 3
  23542527.508      360798.530 6    281149.500 1
  22843306.648    -9262553.746 5  -5791284.756 1
  24090484.703      909909.291 5     92060.032 1
  21534609.055     2564121.560 6   1998012.112 3
 91  4 23 21 36 45.0000000  0  6 18 02 11 06 16 19
  23623143.320    13129219.072 5  10230521.887 1
  21293272.688    -9939131.082 7  -7744754.645 2
  23547184.219      385276.127 6    300222.910 1
  22837409.867    -9293525.063 5  -5815418.195 1
  24093389.461      925144.799 5    103931.744 1
  21537714.031     2580434.805 6   2010723.708 3
 91  4 23 21 37  0.0000000  0  6 18 02 11 06 16 19
  23632936.445    13180682.942 5  10270623.388 1
  21289753.500    -9957615.941 7  -7759158.393 2
  23551871.766      409885.280 6    319398.844 1
  22831514.234    -9324491.048 5  -5839547.462 1
  24096311.859      940482.426 5    115883.050 1
  21540823.945     2596805.783 6   2023480.284 2
 91  4 23 21 37 15.0000000  0  6 18 02 11 06 16 19
  23642735.359    13232181.544 5  10310751.983 1
  21286250.602    -9976030.829 7  -7773507.616 2
  23556572.383      434622.479 6    338674.558 1
  22825621.328    -9355454.900 5  -5863675.076 1
  24099242.570      955918.355 5    127910.932 1
  21543955.602     2613231.108 6   2036279.222 3
 91  4 23 21 37 30.0000000  0  6 18 02 11 06 16 19
  23652545.313    13283714.123 5  10350907.047 1
  21282759.242    -9994376.540 7  -7787802.936 2
  23561308.422      459486.883 6    358049.411 1
  22819730.484    -9386417.367 5  -5887801.616 1
  24102198.516      971451.322 5    140014.433 1
  21547086.922     2629710.189 7   2049120.032 2
 91  4 23 21 37 45.0000000  0  6 18 02 11 06 16 19
  23662358.727    13335283.312 5  10391090.633 1
  21279283.242   -10012649.936 7  -7802041.909 2
  23566060.195      484481.128 6    377525.447 1
  22813840.773    -9417375.360 5  -5911924.658 1
  24105174.859      987084.750 5    152196.220 1
  21550238.398     2646246.116 7   2062005.138 3
 91  4 23 21 38  0.0000000  0  6 18 02 11 06 16 19
  23672183.070    13386893.025 5  10431305.803 1
  21275820.102   -10030846.754 7  -7816221.200 2
  23570842.820      509609.245 6    397105.792 1
  22807954.492    -9448324.536 6  -5936040.834 1
  24108173.422     1002822.442 5    164459.234 1
  21553391.922     2662843.245 7   2074937.935 3
 91  4 23 21 38 15.0000000  0  6 18 02 11 06 16 19
  23682010.078    13438544.143 6  10471553.216 1
  21272371.648   -10048965.767 7  -7830339.868 2
  23575651.227      534872.437 6    416791.388 1
  22802063.656    -9479263.423 6  -5960148.970 1
  24111181.680     1018665.455 5    176804.319 1
  21556563.039     2679503.045 6   2087919.566 3
 91  4 23 21 38 30.0000000  0  6 18 02 11 06 16 19
  23691850.844    13490231.537 6  10511828.896 1
  21268937.242   -10067012.122 7  -7844401.929 2
  23580484.773      560265.304 6    436578.032 1
  22796177.508    -9510197.135 5  -5984253.093 1
  24114209.578     1034608.270 5    189227.161 1
  21559744.695     2696220.367 6   2100946.034 3
 91  4 23 21 38 45.0000000  0  6 18 02 11 06 16 19
  23701692.125    13541953.512 6  10552131.520 1
  21265514.914   -10084987.314 7  -7858408.531 2
  23585342.289      585786.430 6    456464.587 1
  22790293.281    -9541127.010 5  -6008354.232 1
  24117276.281     1050649.276 5    201726.557 1
  21562941.383     2712994.203 6   2114016.535 3
 91  4 23 21 39  0.0000000  0  6 18 02 11 06 16 19
  23711533.047    13593713.989 5  10592464.139 1
  21262112.164   -10102887.087 7  -7872356.371 2
  23590224.070      611439.708 6    476454.136 1
  22784406.836    -9572048.753 5  -6032449.024 1
  24120335.453     1066792.691 5    214305.709 1
  21566141.445     2729828.642 6   2127134.258 3
 91  4 23 21 39 15.0000000  0  6 18 02 11 06 16 19
  23721389.531    13645509.091 5  10632823.747 1
  21258718.266   -10120714.776 7  -7886248.034 2
  23595125.703      637221.449 6    496543.787 1
  22778523.672    -9602965.667 5  -6056540.047 1
  24123430.281     1083034.679 5    226961.675 1
  21569357.430     2746720.236 7   2140296.508 3
 91  4 23 21 39 30.0000000  0  6 18 02 11 06 16 19
  23731257.477    13697344.083 6  10673214.446 1
  21255340.031   -10138465.159 7  -7900079.457 2
  23600057.406      663136.795 6    516737.550 1
  22772642.133    -9633872.391 5  -6080623.138 1
  24126548.898     1099380.205 5    239698.343 1
  21572583.328     2763674.562 7   2153507.639 3
 91  4 23 21 39 45.0000000  0  6 18 02 11 06 16 19
  23741128.164    13749212.887 6  10713631.508 1
  21251976.461   -10156144.165 7  -7913855.265 2
  23605013.914      689179.679 6    537030.690 1
  22766759.938    -9664774.672 5  -6104702.783 1
  24129673.672     1115823.195 5    252510.953 1
  21575819.594     2780685.713 7   2166763.040 2
 91  4 23 21 40  0.0000000  0  6 18 02 11 06 16 19
  23751008.500    13801116.061 6  10754075.348 1
  21248624.500   -10173751.091 7  -7927574.910 2
  23609993.313      715350.553 6    557423.563 1
  22760882.375    -9695671.902 6  -6128778.476 1
  24132824.586     1132363.989 5    265399.768 1
  21579065.031     2797754.529 7   2180063.383 2
 91  4 23 21 40 15.0000000  0  6 18 02 11 06 16 19
  23760888.453    13853050.352 5  10794543.405 1
  21245287.820   -10191288.633 7  -7941240.493 2
  23614998.477      741646.571 6    577913.956 1
  22755006.359    -9726566.480 5  -6152852.096 1
  24135988.836     1148999.622 5    278362.516 1
  21582329.961     2814878.523 6   2193406.724 3
 91  4 23 21 40 30.0000000  0  6 18 02 11 06 16 19
  23770780.242    13905028.702 5  10835045.806 1
  21241968.711   -10208743.751 7  -7954841.838 2
  23620029.656      768080.709 6    598511.971 1
  22749128.570    -9757445.241 5  -6176913.399 1
  24139162.156     1165743.404 5    291409.505 1
  21585597.789     2832070.970 6   2206803.408 3
 91  4 23 21 40 45.0000000  0  6 18 02 11 06 16 19
  23780677.922    13957045.212 5  10875577.961 1
  21238658.898   -10226122.264 7  -7968383.496 2
  23625081.984      794646.724 6    619212.742 1
  22743254.305    -9788314.098 5  -6200966.988 1
  24142386.477     1182588.819 6    304535.721 1
  21588881.344     2849325.869 6   2220248.766 3
 91  4 23 21 41  0.0000000  0  6 18 02 11 06 16 19
  23790580.617    14009095.858 5  10916136.672 1
  21235366.477   -10243427.836 7  -7981868.325 2
  23630161.773      821340.904 6    640013.373 1
  22737379.875    -9819176.415 5  -6225015.482 1
  24145597.859     1199531.928 5    317738.012 1
  21592172.766     2866639.615 6   2233739.969 2
 91  4 23 21 41 15.0000000  0  6 18 02 11 06 16 19
  23800498.570    14061181.612 5  10956722.764 1
  21232086.813   -10260659.181 7  -7995295.304 2
  23635264.039      848164.350 6    660914.740 1
  22731507.750    -9850030.651 5  -6249057.670 1
  24148846.875     1216574.348 5    331017.733 1
  21595482.641     2884013.971 6   2247278.409 3
 91  4 23 21 41 30.0000000  0  6 18 02 11 06 16 19
  23810415.461    14113302.079 5  10997335.895 1
  21228822.938   -10277816.677 7  -8008664.743 2
  23640396.602      875116.355 6    681916.276 1
  22725640.859    -9880877.362 5  -6273094.003 1
  24152112.672     1233714.924 6    344373.905 1
  21598801.352     2901448.400 7   2260863.649 3
 91  4 23 21 41 45.0000000  0  6 18 02 11 06 16 19
  23820338.070    14165457.259 5  11037976.060 1
  21225570.844   -10294899.940 7  -8021976.342 2
  23645551.508      902196.992 6    703018.069 1
  22719769.313    -9911716.045 5  -6297124.072 1
  24155384.281     1250953.902 6    357806.756 1
  21602133.953     2918943.587 7   2274496.229 2
 91  4 23 21 42  0.0000000  0  6 18 02 11 06 16 19
  23830268.484    14217643.849 5  11078640.725 1
  21222333.422   -10311911.957 7  -8035232.424 2
  23650730.797      929403.323 6    724217.804 1
  22713903.391    -9942549.476 5  -6321150.052 1
  24158691.242     1268288.184 5    371313.896 1
  21605469.617     2936496.575 6   2288173.844 2
 91  4 23 21 42 15.0000000  0  6 18 02 11 06 16 19
  23840204.531    14269864.920 5  11119332.286 1
  21219112.688   -10328849.374 7  -8048430.370 2
  23655930.492      956738.503 6    745517.930 1
  22708033.883    -9973374.156 5  -6345169.217 1
  24162008.273     1285721.058 5    384897.853 1
  21608822.922     2954110.779 6   2301899.178 2
 91  4 23 21 42 30.0000000  0  6 18 02 11 06 16 19
  23850150.063    14322122.311 5  11160052.114 1
  21215901.617   -10345710.456 7  -8061568.839 2
  23661156.164      984203.946 6    766919.548 1
  22702171.195   -10004188.419 5  -6369180.285 1
  24165336.094     1303253.838 5    398559.624 1
  21612187.945     2971788.028 6   2315673.628 2
 91  4 23 21 42 45.0000000  0  6 18 02 11 06 16 19
  23860104.188    14374413.217 5  11200798.089 1
  21212707.234   -10362497.417 7  -8074649.553 2
  23666406.359     1011797.142 6    788420.727 1
  22696312.305   -10034994.265 5  -6393184.791 1
  24168696.797     1320883.843 5
  21615560.820     2989526.198 6
 91  4 23 21 43  0.0000000  0  6 18 02 11 06 16 19
  23870061.586    14426735.892 5  11241568.784 1
  21209528.320   -10379211.699 7  -8087673.620 2
  23671680.695     1039516.556 6    810020.242 1
  22690451.234   -10065793.176 5  -6417183.857 1
  24172070.430     1338609.335 4
  21618945.695     3007323.969 6
 91  4 23 21 43 15.0000000  0  6 18 02 11 06 16 19
  23880019.539    14479088.896 5  11282363.101 1
  21206360.180   -10395854.677 7  -8100642.132 2
  23676981.938     1067360.580 6    831716.876 1
  22684591.516   -10096586.255 5  -6441178.395 1
  24175463.313     1356428.954 4
  21622346.523     3025180.170 6
 91  4 23 21 43 30.0000000  0  6 18 02 11 06 16 19
  23889989.172    14531477.225 5  11323184.959 1
  21203206.766   -10412421.216 7  -8113551.079 2
  23682302.250     1095334.113 6    853514.426 1
  22678731.742   -10127368.244 5  -6465164.307 1
  24178857.359     1374347.635 4
  21625760.945     3043099.974 6   2371241.285 2
 91  4 23 21 43 45.0000000  0  6 18 02 11 06 16 19
  23899967.531    14583902.582 5  11364035.668 1
  21200069.148   -10428909.201 7  -8126398.818 2
  23687652.414     1123439.135 6    875414.439 1
  22672878.492   -10158137.025 5  -6489139.894 1
  24182302.766     1392367.147 5
  21629175.750     3061085.615 6   2385256.051 3
 91  4 23 21 44  0.0000000  0  6 18 02 11 06 16 19
  23909949.125    14636358.460 5  11404910.156 1
  21196946.828   -10445325.095 7  -8139190.387 2
  23693023.438     1151669.040 6    897411.768 1
  22667022.492   -10188898.775 5  -6513110.027 1
  24185750.016     1410480.817 5
  21632615.398     3079130.809 6   2399317.219 2
 91  4 23 21 44 15.0000000  0  6 18 02 11 06 16 19
  23919941.523    14688846.160 5  11445809.424 1
  21193836.445   -10461667.400 7  -8151924.604 2
  23698419.672     1180025.163 6    919507.431 1
  22661172.016   -10219651.911 5  -6537073.426 1
  24189211.352     1428689.998 5
  21636057.898     3097237.208 6   2413426.079 2
 91  4 23 21 44 30.0000000  0  6 18 02 11 06 16 19
  23929927.141    14741365.404 5  11486733.294 1
  21190739.109   -10477936.115 7  -8164601.489 2
  23703840.055     1208507.182 6    941701.203 1
  22655322.664   -10250396.291 5  -6561030.009 1
  24192694.531     1446994.313 5
  21639512.336     3115405.024 6   2427582.790 2
 91  4 23 21 44 45.0000000  0  6 18 02 11 06 16 19
  23939930.172    14793919.867 5  11527684.621 1
  21187660.211   -10494127.450 7  -8177218.070 2
  23709282.266     1237118.872 6    963996.002 1
  22649471.203   -10281127.929 5  -6584976.688 1
  24196196.352     1465397.645 5
  21642982.258     3133638.143 6   2441790.402 2
 91  4 23 21 45  0.0000000  0  6 18 02 11 06 16 19
  23949938.133    14846503.559 5  11568658.707 1
  21184593.031   -10510246.815 7  -8189778.575 2
  23714754.352     1265854.345 6    986387.259 1
  22643627.688   -10311852.373 5  -6608917.751 1
  24199719.375     1483894.273 5
  21646464.625     3151930.939 6   2456044.505 2
 91  4 23 21 45 15.0000000  0  6 18 02 11 06 16 19
  23959942.578    14899117.782 5  11609656.596 1
  21181536.937   -10526292.835 7  -8202281.924 2
  23720242.469     1294714.796 6   1008875.890 1
  22637776.922   -10342568.064 5  -6632851.993 1
  24203247.344     1502484.927 5
  21649959.688     3170284.989 6   2470346.341 2
 91  4 23 21 45 30.0000000  0  6 18 02 11 06 16 19
  23969962.844    14951762.367 5  11650678.125 1
  21178496.484   -10542265.411 7  -8214728.055 2
  23725762.773     1323700.126 6   1031461.823 1
  22631935.383   -10373274.776 5  -6656779.251 1
  24206812.680     1521169.688 5        -0.25111
  21653459.188     3188700.528 7   2484696.081 2
 91  4 23 21 45 45.0000000  0  6 18 02 11 06 16 19
  23979985.484    15004433.283 5  11691720.162 1
  21175474.125   -10558168.171 7  -8227119.774 2
  23731299.953     1352806.500 6   1054142.080 1
  22626093.469   -10403976.006 5  -6680702.221 1
  24210388.672     1539944.323 5     14629.204 1
  21656976.961     3207174.138 7   2499091.068 3
 91  4 23 21 46  0.0000000  0  6 18 02 11 06 16 19
  23990018.820    15057137.454 5  11732788.121 1
  21172461.094   -10573994.319 7  -8239451.802 3
  23736862.539     1382040.625 6   1076921.882 1
  22620250.773   -10434664.647 5  -6704615.383 1
  24213978.844     1558816.069 5     29334.342 1
  21660505.375     3225712.823 6   2513536.767 3
 91  4 23 21 46 15.0000000  0  6 18 02 11 06 16 19
  24000052.547    15109875.095 5  11773882.182 1
  21169465.164   -10589743.398 7  -8251723.773 3
  23742445.781     1411402.650 6   1099801.352 1
  22614417.750   -10465340.331 5  -6728518.468 1
  24217583.742     1577784.747 4     44115.033 1
  21664046.539     3244316.975 6   2528033.481 2
 91  4 23 21 46 30.0000000  0  6 18 02 11 06 16 19
  24010095.859    15162641.060 5  11814998.292 1
  21166482.125   -10605420.422 7  -8263939.602 3
  23748059.719     1440887.492 6   1122776.518 1
  22608581.656   -10496007.752 6  -6752415.111 1
  24221200.563     1596845.215 3     58967.212 1
  21667597.805     3262981.807 6   2542577.483 2
 91  4 23 21 46 45.0000000  0  6 18 02 11 06 16 19
  24020147.586    15215434.039 5  11856135.415 1
  21163510.953   -10621026.336 7  -8276100.020 3
  23753693.891     1470494.003 6   1145846.502 1
  22602746.180   -10526667.770 6  -6776305.960 1
  24224852.406     1615996.334 3     73890.054 1
  21671162.766     3281706.586 6   2557168.201 2
 91  4 23 21 47  0.0000000  0  6 18 02 11 06 16 19
  24030197.305    15268256.958 5  11897295.912 1
  21160554.352   -10636557.743 7  -8288202.372 3
  23759352.828     1500225.111 6   1169013.576 1
  22596914.109   -10557316.949 6  -6800188.366 1
  24228507.375     1635241.220 3     88885.952 1
  21674736.344     3300494.611 6   2571808.196 2
 91  4 23 21 47 15.0000000  0  6 18 02 11 06 16 19
  24040247.820    15321105.787 5  11938476.584 1
  21157612.719   -10652018.493 7  -8300249.678 3
  23765031.703     1530076.699 6   1192274.519 1
  22591083.367   -10587959.264 6  -6824065.453 1
  24232196.578     1654575.688 4    103951.636 1
  21678325.102     3319342.138 6   2586494.565 2
 91  4 23 21 47 30.0000000  0  6 18 02 11 06 16 19
  24050315.859    15373980.678 5  11979677.576 1
  21154682.898   -10667408.286 7  -8312241.687 3
  23770735.039     1560048.968 6   1215629.505 1
  22585254.430   -10618593.928 6  -6847936.565 1
  24235889.469     1673999.691 5    119087.107 1
  21681919.906     3338249.784 6   2601227.768 2
 91  4 23 21 47 45.0000000  0  6 18 02 11 06 16 19
  24060383.773    15426881.128 5  12020898.476 1
  21151767.789   -10682727.488 7  -8324178.693 2
  23776462.563     1590141.404 6   1239078.131 1
  22579426.406   -10649221.239 6  -6871801.930 1
  24239604.305     1693512.676 5    134291.904 1
  21685530.727     3357217.246 6   2616007.566 2
 91  4 23 21 48  0.0000000  0  6 18 02 11 06 16 19
  24070453.539    15479806.013 5  12062138.410 1
  21148868.297   -10697976.809 7  -8336061.246 3
  23782210.289     1620353.142 6   1262619.697 1
  22573598.977   -10679841.879 6  -6895662.129 1
  24243340.383     1713113.907 5    149565.439 1
  21689151.844     3376243.908 7   2630833.495 2
 91  4 23 21 48 15.0000000  0  6 18 02 11 06 16 19
  24080531.445    15532758.284 5  12103399.706 1
  21145980.133   -10713153.155 7  -8347886.938 3
  23787982.078     1650686.902 6   1286256.358 1
  22567776.422   -10710452.514 6  -6919514.510 1
  24247076.664     1732806.168 5    164909.930 1
  21692784.719     3395332.836 6   2645707.952 2
 91  4 23 21 48 30.0000000  0  6 18 02 11 06 16 19
  24090614.969    15585737.309 5  12144681.807 1
  21143105.898   -10728257.132 7  -8359656.231 2
  23793775.672     1681142.131 6   1309987.665 1
  22561950.945   -10741053.516 6  -6943359.378 1
  24250860.344     1752588.811 5    180324.828 1
  21696426.406     3414483.719 6   2660630.697 2
 91  4 23 21 48 45.0000000  0  6 18 02 11 06 16 19
  24100702.156    15638743.263 5  12185984.926 1
  21140243.938   -10743288.257 7  -8371368.754 2
  23799597.961     1711719.031 6   1333813.778 1
  22556128.164   -10771644.363 6  -6967196.359 1
  24254618.688     1772461.657 5    195810.025 1
  21700084.945     3433697.028 6   2675602.088 2
 91  4 23 21 49  0.0000000  0  6 18 02 11 06 16 19
  24110793.984    15691775.123 5  12227308.192 1
  21137397.531   -10758247.131 7  -8383024.979 2
  23805438.125     1742416.471 6   1357733.835 1
  22550310.078   -10802225.636 6  -6991025.880 1
  24258438.086     1792424.192 5    211365.122 1
  21703750.289     3452972.195 6   2690621.672 2
 91  4 23 21 49 15.0000000  0  6 18 02 11 06 16 19
  24120886.531    15744835.397 5  12268653.616 1
  21134566.727   -10773131.135 7  -8394622.869 2
  23811306.883     1773237.081 6   1381749.856 1
  22544493.281   -10832794.477 6  -7014845.708 1
  24262252.258     1812478.791 5    226991.959 1
  21707434.195     3472312.114 6   2705691.731 2
 91  4 23 21 49 30.0000000  0  6 18 02 11 06 16 19
  24130981.383    15797916.536 5  12310015.301 1
  21131747.547   -10787947.661 7  -8406168.172 2
  23817188.523     1804173.174 6   1405855.892 1
  22538679.063   -10863358.208 6  -7038661.538 1
  24266074.836     1832617.489 4    242684.301 1
  21711124.867     3491709.624 6   2720806.647 2
 91  4 23 21 49 45.0000000  0  6 18 02 11 06 16 19
  24141094.383    15851023.975 5  12351397.510 1
  21128939.391   -10802691.015 7  -8417656.459 2
  23823102.859     1835230.299 6   1430056.205 1
  22532863.461   -10893910.754 6  -7062468.664 1
  24269927.711     1852845.837 4    258446.552 1
  21714826.805     3511170.560 6   2735970.981 2
 91  4 23 21 50  0.0000000  0  6 18 02 11 06 16 19
  24151206.875    15904165.286 5  12392806.095 1
  21126149.453   -10817353.504 7  -8429081.732 2
  23829036.125     1866415.928 6   1454356.673 1
  22527052.188   -10924444.484 6  -7086261.121 1
  24273803.867     1873171.116 5    274284.358 1
  21718541.336     3530702.670 6   2751190.766 2
 91  4 23 21 50 15.0000000  0  6 18 02 11 06 16 19
  24161324.273    15957334.778 5  12434236.639 1
  21123373.797   -10831940.336 7  -8440448.057 2
  23834990.711     1897724.499 6   1478752.919 1
  22521245.227   -10954964.532 6  -7110042.914 1
  24277673.898     1893587.933 5    290193.411 1
  21722274.211     3550300.564 6   2766461.812 2
 91  4 23 21 50 30.0000000  0  6 18 02 11 06 16 19
  24171448.078    16010525.037 5  12475683.331 1
  21120610.805   -10846458.706 7  -8451761.035 2
  23840974.383     1929148.564 6   1503239.175 1
  22515438.773   -10985477.929 6  -7133819.514 1
  24281571.047     1914088.865 5    306168.044 1
  21726012.305     3569957.273 6   2781778.694 2
 91  4 23 21 50 45.0000000  0  6 18 02 11 06 16 19
  24181573.625    16063741.920 5  12517150.797 1
  21117862.086   -10860902.589 7  -8463015.976 2
  23846978.477     1960693.931 6   1527819.939 1
  22509631.688   -11015978.485 6  -7157586.130 1
  24285507.320     1934679.754 5    322212.802 1
  21729767.703     3589679.065 6   2797146.295 2
 91  4 23 21 51  0.0000000  0  6 18 02 11 06 16 19
  24191703.352    16116980.332 5  12558635.010 1
  21115128.398   -10875276.845 7  -8474216.659 2
  23853001.234     1992355.568 6   1552491.326 1
  22503832.828   -11046470.899 6  -7181346.400 1
  24289427.320     1955355.605 5    338323.714 1
  21733528.852     3609461.107 6   2812560.840 2
 91  4 23 21 51 15.0000000  0  6 18 02 11 06 16 19
  24201844.992    16170242.743 5  12600137.942 1
  21112406.367   -10889578.654 7  -8485360.888 2
  23859048.398     2024136.013 6   1577255.269 1
  22498030.750   -11076952.295 6  -7205098.063 1
  24293391.289     1976118.886 5    354502.791 1
  21737308.188     3629306.199 6   2828024.530 2
 91  4 23 21 51 30.0000000  0  6 18 02 11 06 16 19
  24211981.641    16223528.390 5  12641659.006 1
  21109696.180   -10903808.938 7  -8496449.386 2
  23865119.156     2056034.285 6   1602111.043 1
  22492235.500   -11107423.224 7  -7228841.583 1
  24297353.719     1996968.563 5
  21741093.992     3649213.793 6   2843536.919 2
 91  4 23 21 51 45.0000000  0  6 18 02 11 06 16 19
  24222127.742    16276838.798 5  12683199.367 1
  21107003.953   -10917965.993 7  -8507480.829 2
  23871211.156     2088051.874 6   1627059.783 1
  22486436.875   -11137881.833 6  -7252575.504 1
  24301340.844     2017906.186 5
  21744896.219     3669186.050 6   2859099.686 2
 91  4 23 21 52  0.0000000  0  6 18 02 11 06 16 19
  24232274.375    16330172.557 5  12724757.869 1
  21104327.289   -10932050.530 7  -8518455.757 3
  23877327.672     2120187.698 6   1652100.667 1
  22480640.344   -11168328.942 6  -7276300.450 1
  24305341.211     2038930.309 5
  21748711.078     3689221.933 6   2874712.029 2
 91  4 23 21 52 15.0000000  0  5 18 02 11 06 19
  24242432.719    16383532.439 5  12766336.785 1
  21101660.125   -10946059.752 7  -8529372.000 3
  23883463.930     2152444.526 6   1677235.831 1
  22474849.789   -11198761.384 6  -7300013.966 1
  21752535.594     3709324.326 6   2890376.188 2
 91  4 23 21 52 30.0000000  0  5 18 02 11 06 19
  24252589.484    16436914.551 5  12807932.978 1
  21099005.086   -10959997.679 7  -8540232.692 3
  23889626.984     2184818.029 6   1702461.919 1
  22469061.070   -11229183.036 6  -7323719.084 1
  21756371.844     3729489.517 6   2906089.287 2
 91  4 23 21 52 45.0000000  0  5 18 02 11 06 19
  24262753.891    16490316.914 5  12849544.961 1
  21096366.594   -10973865.848 7  -8551039.024 3
  23895807.695     2217306.562 6   1727777.643 1
  22463272.984   -11259595.282 7  -7347416.875 2
  21760220.719     3749716.033 6   2921850.180 2
 91  4 23 21 53  0.0000000  0  5 18 02 11 06 19
  24272923.414    16543740.382 5  12891173.352 1
  21093742.719   -10987663.025 7  -8561790.032 3
  23902015.008     2249910.980 6   1753183.665 1
  22457488.727   -11289996.789 6  -7371106.293 1
  21764080.445     3770005.211 6   2937659.906 2
 91  4 23 21 53 15.0000000  0  5 18 02 11 06 19
  24283091.656    16597182.025 5  12932815.938 1
  21091129.555   -11001391.795 7  -8572487.736 3
  23908238.836     2282628.435 6   1778677.768 1
  22451706.547   -11320389.980 7  -7394789.226 2
  21767955.188     3790354.491 6   2953516.464 2
 91  4 23 21 53 30.0000000  0  5 18 02 11 06 19
  24293266.930    16650646.075 5  12974475.973 1
  21088530.867   -11015047.946 7  -8583128.857 3
  23914487.313     2315462.870 6   1804263.029 1
  22445927.133   -11350770.577 7  -7418462.355 2
  21771839.289     3810768.252 6   2969423.258 2
 91  4 23 21 53 45.0000000  0  5 18 02 11 06 19
  24303442.148    16704127.125 5  13016149.255 1
  21085944.406   -11028636.801 7  -8593717.544 2
  23920753.078     2348408.870 6   1829935.227 1
  22440144.570   -11381143.614 7  -7442129.594 2
  21775733.648     3831241.408 6   2985376.331 2
 91  4 23 21 54  0.0000000  0  5 18 02 11 06 19
  24313623.578    16757628.225 5  13057838.172 1
  21083374.859   -11042154.746 7  -8604250.967 2
  23927049.055     2381469.729 6   1855696.931 1
  22434367.219   -11411505.327 7  -7465787.999 2
  21779643.109     3851777.655 6   3001378.576 2
 91  4 23 21 54 15.0000000  0  5 18 02 11 06 19
  24323802.344    16811147.177 5  13099540.976 1
  21080812.891   -11055603.858 7  -8614730.764 2
  23933357.898     2414643.069 6   1881546.270 1
  22428591.664   -11441857.767 7  -7489439.183 2
  21783561.492     3872374.877 6   3017428.322 2
 91  4 23 21 54 30.0000000  0  5 18 02 11 06 19
  24333993.625    16864684.905 5  13141258.439 1
  21078268.516   -11068983.127 7  -8625156.135 2
  23939695.773     2447929.802 6   1907483.947 1
  22422816.516   -11472199.636 6  -7513082.136 2
  21787492.414     3893034.363 6   3033526.590 2
 91  4 23 21 54 45.0000000  0  5 18 02 11 06 19
  24344178.969    16918239.065 5  13182988.721 1
  21075733.344   -11082294.785 7  -8635528.818 2
  23946051.047     2481327.509 6   1933508.102 1
  22417045.102   -11502532.982 7  -7536718.450 2
  21791436.898     3913753.997 6   3049671.720 2
 91  4 23 21 55  0.0000000  0  5 18 02 11 06 19
  24354377.539    16971814.654 5  13224735.649 1
  21073214.500   -11095533.544 7  -8645844.708 2
  23952430.797     2514841.274 6   1959622.680 1
  22411275.977   -11532852.275 7  -7560343.808 2
  21795392.039     3934539.179 6   3065867.938 2
 91  4 23 21 55 15.0000000  0  5 18 02 11 06 19
  24364574.930    17025407.529 5  13266496.073 1
  21070707.609   -11108703.181 7  -8656106.728 2
  23958822.539     2548466.910 6   1985824.430 1
  22405507.180   -11563161.404 6  -7583961.237 2
  21799361.047     3955386.078 6   3082112.240 2
 91  4 23 21 55 30.0000000  0  5 18 02 11 06 19
  24374780.422    17079018.807 5  13308270.851 1
  21068214.523   -11121802.337 7  -8666313.829 2
  23965249.055     2582205.465 6   2012114.183 1
  22399742.398   -11593458.860 6  -7607569.581 2
  21803335.984     3976296.191 6   3098405.799 2
 91  4 23 21 55 45.0000000  0  5 18 02 11 06 19
  24384984.891    17132647.567 5  13350059.253 1
  21065735.938   -11134831.584 7  -8676466.448 2
  23971688.422     2616056.161 6   2038491.313 1
  22393976.438   -11623745.132 6  -7631169.224 2
  21807329.492     3997268.996 6   3114748.209 2
 91  4 23 21 56  0.0000000  0  5 18 02 11 06 19
  24395193.617    17186292.794 4  13391860.497 1
  21063270.469   -11147791.807 7  -8686565.283 2
  23978150.586     2650017.923 6   2064954.995 1
  22388217.117   -11654020.773 6  -7654760.574 2
  21811329.648     4018303.912 6   3131139.009 2
 91  4 23 21 56 15.0000000  0  5 18 02 11 06 19
  24405406.063    17239953.121 4  13433673.480 1
  21060818.445   -11160684.387 7  -8696611.412 2
  23984634.922     2684089.139 6   2091503.963 1
  22382457.883   -11684286.971 6  -7678344.564 2
  21815347.219     4039399.663 6   3147577.212 2
 91  4 23 21 56 30.0000000  0  5 18 02 11 06 19
  24415620.188    17293628.051 4  13475497.867 1
  21058375.367   -11173509.357 7  -8706604.852 2
  23991140.594     2718269.611 6   2118138.069 1
  22376699.859   -11714543.574 6  -7701921.076 2
  21819373.836     4060556.242 6   3164062.819 2
 91  4 23 21 56 45.0000000  0  5 18 02 11 06 19
  24425834.742    17347318.580 4  13517334.369 1
  21055948.203   -11186265.610 7  -8716544.758 2
  23997665.094     2752560.123 6   2144857.915 1
  22370943.273   -11744789.433 6  -7725489.220 2
  21823410.609     4081774.768 6   3180596.703 2
 91  4 23 21 57  0.0000000  0  5 18 02 11 06 19
  24436059.859    17401029.189 4  13559186.508 1
  21053534.289   -11198948.572 7  -8726427.552 2
  24004209.172     2786965.028 6   2171666.907 1
  22365191.289   -11775019.687 6  -7749045.214 2
  21827459.883     4103060.083 6   3197182.627 2
 91  4 23 21 57 15.0000000  0  5 18 02 11 06 19
  24446288.945    17454758.301 5  13601053.104 1
  21051134.281   -11211559.456 7  -8736254.178 2
  24010781.359     2821483.039 6   2198564.027 1
  22359442.383   -11805235.255 6  -7772589.757 2
  21831523.531     4124411.304 6   3213819.924 2
 91  4 23 21 57 30.0000000  0  5 18 02 11 06 19
  24456514.594    17508504.649 5  13642933.107 1
  21048746.305   -11224099.325 7  -8746025.468 2
  24017371.812     2856112.737 6   2225548.170 1
  22353693.195   -11835437.170 6  -7796123.655 2
  21835596.805     4145827.310 6   3230507.702 2
 91  4 23 21 57 45.0000000  0  5 18 02 11 06 19
  24466736.938    17562263.074 4  13684822.516 1
  21046374.586   -11236573.186 7  -8755745.327 2
  24023978.039     2890848.778 5   2252615.159 1
  22347949.063   -11865630.366 6  -7819650.766 2
  21839689.547     4167303.076 6   3247242.027 2
 91  4 23 21 58  0.0000000  0  5 18 02 11 06 19
  24476967.766    17616035.984 4  13726723.228 1
  21044013.172   -11248978.361 7  -8765411.665 2
  24030607.094     2925693.790 5   2279767.074 1
  22342203.336   -11895811.865 6  -7843168.771 2
  21843780.961     4188841.449 6   3264025.139 2
 91  4 23 21 58 15.0000000  0  4 02 11 06 19
  21041666.859   -11261317.767 7  -8775026.756 2
  24037262.969     2960644.541 5   2307001.363 1
  22336462.328   -11925984.503 6  -7866679.860 2
  21847896.430     4210439.753 6   3280854.948 2
 91  4 23 21 58 30.0000000  0  4 02 11 06 19
  21039332.414   -11273588.095 7  -8784588.015 2
  24043931.938     2995703.968 5   2334320.332 1
  22330725.945   -11956144.784 6  -7890181.326 2
  21852012.930     4232101.335 6   3297734.067 2
 91  4 23 21 58 45.0000000  0  4 02 11 06 19
  21037007.703   -11285789.188 7  -8794095.327 2
  24050627.148     3030872.066 5   2361723.989 1
  22324988.211   -11986292.313 6  -7913672.857 1
  21856150.391     4253826.485 6   3314662.720 2
 91  4 23 21 59  0.0000000  0  4 02 11 06 19
  21034700.180   -11297919.679 7  -8803547.628 2
  24057335.359     3066149.848 5   2389213.102 1
  22319255.227   -12016425.756 6  -7937153.404 1
  21860292.672     4275616.701 6   3331642.074 2
 91  4 23 21 59 15.0000000  0  4 02 11 06 19
  21032406.664   -11309980.780 7  -8812945.854 2
  24064070.906     3101535.959 6   2416786.650 1
  22313520.648   -12046545.937 6  -7960623.627 1
  21864458.711     4297470.811 6   3348671.225 2
 91  4 23 21 59 30.0000000  0  4 02 11 06 19
  21030124.938   -11321971.753 7  -8822289.438 2
  24070825.141     3137030.842 6   2444444.966 1
  22307790.477   -12076651.899 6  -7984082.765 1
  21868624.359     4319389.682 6   3365750.846 2
 91  4 23 21 59 45.0000000  0  4 02 11 06 19
  21027856.047   -11333891.585 7  -8831577.592 2
  24077603.469     3172635.299 6   2472188.664 1
  22302064.922   -12106742.753 6  -8007530.132 1
  21872808.859     4341374.368 6   3382881.734 2
 91  4 23 22  0  0.0000000  0  4 02 11 06 19
  21025602.258   -11345738.960 7  -8840809.285 2
  24084399.664     3208350.497 6   2500018.663 1
  22296343.375   -12136816.854 6  -8030964.445 1
  21877005.727     4363426.562 6   3400065.232 2
 91  4 23 22  0 15.0000000  0  4 02 11 06 19
  21023358.602   -11357521.769 7  -8849990.656 3
  24091215.734     3244168.205 6   2527928.559 1
  22290623.297   -12166881.790 6  -8054391.615 1
  21881210.078     4385538.176 6   3417295.035 2
 91  4 23 22  0 30.0000000  0  4 02 11 06 19
  21021130.594   -11369232.012 7  -8859115.491 2
  24098048.875     3280096.313 6   2555924.443 1
  22284904.805   -12196929.344 6  -8077805.241 1
  21885434.875     4407717.603 6   3434577.668 2
 91  4 23 22  0 45.0000000  0  4 02 11 06 19
  21018916.141   -11380874.291 7  -8868187.369 2
  24104910.203     3316129.869 6   2584002.513 1
  22279188.328   -12226964.149 6  -8101208.940 1
  21889663.805     4429960.285 6   3451909.597 2
 91  4 23 22  1  0.0000000  0  4 02 11 06 19
  21016712.578   -11392445.092 7  -8877203.547 2
  24111787.039     3352272.123 6   2612165.272 1
  22273475.008   -12256982.466 6  -8124599.801 1
  21893911.625     4452269.897 6   3469293.685 2
 91  4 23 22  1 15.0000000  0  4 02 11 06 19
  21014523.766   -11403947.423 8  -8886166.369 3
  24118685.336     3388519.794 6   2640410.163 1
  22267768.633   -12286987.013 6  -8147979.922 1
  21898164.797     4474643.524 6   3486727.650 2
 91  4 23 22  1 30.0000000  0  4 02 11 06 19
  21012347.273   -11415383.086 7  -8895077.241 3
  24125601.727     3424870.876 6   2668735.637 1
  22262061.844   -12316979.588 6  -8171350.695 1
  21902442.914     4497079.344 6   3504210.086 2
 91  4 23 22  1 45.0000000  0  4 02 11 06 19
  21010186.508   -11426752.701 8  -8903936.664 3
  24132540.289     3461324.602 6   2697141.109 1
  22256354.070   -12346960.422 6  -8194712.344 1
  21906718.914     4519576.947 6   3521740.645 2
 91  4 23 22  2  0.0000000  0  4 02 11 06 19
  21008035.305   -11438055.068 8  -8912743.671 3
  24139493.688     3497881.886 5   2725627.254 1
  22250650.875   -12376928.165 6  -8218063.775 1
  21911013.320     4542137.525 6   3539320.275 2
 91  4 23 22  2 15.0000000  0  4 02 11 06 19
  21005897.070   -11449288.483 8  -8921496.953 3
  24146469.477     3534544.163 5   2754195.215 1
  22244951.211   -12406880.824 6  -8241403.476 1
  21915320.305     4564763.008 6   3556950.489 2
 91  4 23 22  2 30.0000000  0  4 02 11 06 19
  21003770.688   -11460456.161 8  -8930199.007 3
  24153464.984     3571307.972 5   2782842.292 1
  22239256.242   -12436821.568 6  -8264733.878 1
  21919636.813     4587450.402 6   3574628.944 2
 91  4 23 22  2 45.0000000  0  4 02 11 06 19
  21001659.258   -11471555.866 8  -8938848.094 3
  24160481.406     3608175.229 5   2811569.977 1
  22233559.742   -12466748.164 6  -8288053.260 1
  21923965.172     4610201.915 6   3592357.365 2
 91  4 23 22  3  0.0000000  0  4 02 11 06 19
  20999560.797   -11482587.211 8  -8947443.919 3
  24167517.727     3645146.130 5   2840378.430 1
  22227867.227   -12496659.765 6  -8311360.955 1
  21928307.336     4633017.937 6   3610136.061 2
 91  4 23 22  3 15.0000000  0  4 02 11 06 19
  20997474.914   -11493551.852 8  -8955987.762 3
  24174574.461     3682218.700 6   2869266.105 1
  22222178.172   -12526558.048 6  -8334658.271 1
  21932658.563     4655896.886 6   3627963.800 1
 91  4 23 22  3 30.0000000  0  4 02 11 06 19
  20995399.492   -11504448.427 8  -8964478.567 3
  24181647.727     3719394.125 5   2898233.931 1
  22216491.508   -12556441.328 6  -8357943.898 1
  21937028.195     4678840.342 6   3645841.779 2
 91  4 23 22  3 45.0000000  0  4 02 11 06 19
  20993338.039   -11515275.398 8  -8972915.142 3
  24188740.438     3756673.555 5   2927282.812 1
  22210808.648   -12586307.913 7  -8381216.514 1
  21941407.766     4701850.017 6   3663771.364 2
 91  4 23 22  4  0.0000000  0  4 02 11 06 19
  20991292.938   -11526032.971 8  -8981297.637 3
  24195854.602     3794056.612 5   2956412.418 1
  22205127.172   -12616157.771 7  -8404476.095 1
  21945798.078     4724925.884 6   3681752.533 2
 91  4 23 22  4 15.0000000  0  4 02 11 06 19
  20989257.789   -11536725.556 8  -8989629.500 3
  24202986.461     3831538.654 5   2985619.173 1
  22199449.172   -12645995.175 7  -8427725.970 1
  21950200.219     4748063.670 6   3699781.948 2
 91  4 23 22  4 30.0000000  0  4 02 11 06 19
  20987235.727   -11547348.988 8  -8997907.465 3
  24210139.789     3869123.692 5   3014906.188 1
  22193775.273   -12675815.569 7  -8450962.592 1
  21954617.109     4771267.649 6   3717862.942 2
 91  4 23 22  4 45.0000000  0  4 02 11 06 19
  20985228.219   -11557904.498 8  -9006132.507 3
  24217310.352     3906810.119 5   3044272.183 1
  22188102.977   -12705620.208 7  -8474186.941 1
  21959045.109     4794536.578 6   3735994.537 2
 91  4 23 22  5  0.0000000  0  4 02 11 06 19
  20983231.547   -11568392.223 8  -9014304.729 4
  24224503.055     3944597.331 6   3073716.736 1
  22182434.211   -12735409.197 7  -8497399.089 1
  21963480.234     4817870.235 6   3754176.574 2
 91  4 23 22  5 15.0000000  0  4 02 11 06 19
  20981247.922   -11578809.649 8  -9022422.176 4
  24231712.063     3982487.755 6   3103241.712 1
  22176770.734   -12765179.649 7  -8520596.793 1
  21967936.102     4841271.434 6   3772411.269 2
 91  4 23 22  5 30.0000000  0  4 02 11 06 19
  20979280.695   -11589159.224 7  -9030486.757 4
  24238943.406     4020478.842 6   3132845.120 1
  22171107.117   -12794933.709 7  -8543781.721 1
  21972406.313     4864737.947 6   3790696.830 2
 91  4 23 22  5 45.0000000  0  4 02 11 06 19
  20977325.156   -11599440.687 7  -9038498.262 4
  24246191.914     4058570.393 6   3162526.805 1
  22165448.773   -12824671.108 7  -8566953.664 1
  21976880.703     4888270.037 6   3809033.469 2
 91  4 23 22  6  0.0000000  0  4 02 11 06 19
  20975379.234   -11609655.009 7  -9046457.451 3
  24253457.383     4096761.125 6   3192285.772 1
  22159794.336   -12854392.466 7  -8590113.108 2
  21981370.977     4911866.919 6   3827420.599 2
 91  4 23 22  6 15.0000000  0  4 02 11 06 19
  20973448.867   -11619801.157 7  -9054363.513 3
  24260747.492     4135052.102 6   3222122.845 1
  22154140.594   -12884096.537 7  -8613259.076 2
  21985871.320     4935529.904 6   3845859.252 2
 91  4 23 22  6 30.0000000  0  4 02 11 06 19
  20971530.383   -11629879.224 7  -9062216.521 3
  24268047.945     4173442.922 6   3252037.739 1
  22148491.078   -12913783.326 7  -8636391.586 2
  21990385.133     4959258.754 6   3864349.233 2
 91  4 23 22  6 45.0000000  0  4 02 11 06 19
  20969625.992   -11639887.133 7  -9070014.865 3
  24275376.266     4211935.347 6   3282031.785 1
  22142844.766   -12943450.500 6  -8659508.800 2
  21994918.094     4983055.558 6   3882892.153 2
 91  4 23 22  7  0.0000000  0  4 02 11 06 19
  20967734.805   -11649828.964 7  -9077761.714 3
  24282717.891     4250525.310 5   3312101.837 1
  22137205.016   -12973101.716 7  -8682613.588 2
  21999462.586     5006916.739 6   3901485.232 2
 91  4 23 22  7 15.0000000  0  4 02 11 06 19
  20965854.320   -11659704.653 7  -9085457.025 3
  24290076.359     4289212.246 5   3342247.443 1
  22131564.008   -13002737.018 6  -8705705.971 2
  22004008.781     5030842.217 6   3920128.418 2
 91  4 23 22  7 30.0000000  0  4 02 11 06 19
  20963989.641   -11669513.565 7  -9093100.305 3
  24297459.727     4327996.446 5   3372468.843 1
  22125927.141   -13032355.610 6  -8728785.330 2
  22008578.016     5054832.594 6   3938822.186 2
 91  4 23 22  7 45.0000000  0  4 02 11 06 19
  20962136.078   -11679253.753 7  -9100690.028 3
  24304856.734     4366879.841 5   3402767.536 1
  22120293.414   -13061955.176 6  -8751849.866 2
  22013152.500     5078890.059 6   3957568.214 2
 91  4 23 22  8  0.0000000  0  4 02 11 06 19
  20960294.688   -11688929.486 7  -9108229.536 3
  24312277.641     4405857.874 5   3433139.984 1
  22114666.523   -13091539.754 6  -8774902.717 2
  22017744.594     5103010.479 6   3976363.311 1
 91  4 23 22  8 15.0000000  0  4 02 11 06 19
  20958464.844   -11698536.747 7  -9115715.679 3
  24319713.875     4444934.162 5   3463588.994 1
  22109038.938   -13121105.208 6  -8797940.661 2
  22022348.375     5127197.951 6   3995210.633 1
 91  4 23 22  8 30.0000000  0  4 02 11 06 19
  20956650.641   -11708079.356 7  -9123151.447 2
  24327166.102     4484104.672 5   3494111.459 1
  22103415.367   -13150655.260 6  -8820966.608 2
  22026965.555     5151448.859 6   4014107.400 1
 91  4 23 22  8 45.0000000  0  4 02 11 06 19
  20954847.008   -11717555.634 7  -9130535.522 2
  24334640.266     4523370.869 5   3524708.452 1
  22097793.672   -13180187.849 6  -8843978.945 2
  22031586.914     5175764.889 6   4033054.911 2
 91  4 23 22  9  0.0000000  0  4 02 11 06 19
  20953054.703   -11726964.863 7  -9137867.362 2
  24342130.945     4562733.411 5   3555380.522 1
  22092180.320   -13209702.083 6  -8866976.997 2
  22036234.477     5200147.006 6   4052053.919 1
 91  4 23 22  9 15.0000000  0  4 02 11 06 19
  20951277.766   -11736310.835 7  -9145149.899 2
  24349639.109     4602188.051 5   3586124.356 1
  22086564.148   -13239201.565 6  -8889963.538 2
  22040876.383     5224591.372 6   4071101.425 2
 91  4 23 22  9 30.0000000  0  4 02 11 06 19
  20949509.516   -11745592.557 7  -9152382.376 2
  24357164.695     4641735.491 5   3616940.501 1
  22080956.211   -13268685.273 6  -8912937.781 2
  22045543.984     5249098.876 6   4090198.143 1
 91  4 23 22  9 45.0000000  0  4 02 11 06 19
  20947758.117   -11754810.053 7  -9159564.816 2
  24364709.688     4681375.461 5   3647828.742 1
  22075346.648   -13298152.751 6  -8935899.391 2
  22050217.008     5273669.729 6   4109344.223 2
 91  4 23 22 10  0.0000000  0  4 02 11 06 19
  20946014.609   -11763959.673 7  -9166694.364 2
  24372269.297     4721111.484 5   3678791.844 1
  22069743.180   -13327600.177 6  -8958845.380 2
  22054908.281     5298307.902 6   4128542.751 2
 91  4 23 22 10 15.0000000  0  4 02 11 06 19
  20944286.125   -11773046.307 7  -9173774.830 2
  24379849.109     4760938.253 5   3709825.644 1
  22064141.313   -13357032.335 6  -8981779.466 2
  22059611.336     5323008.596 6   4147789.995 2
 91  4 23 22 10 30.0000000  0  4 02 11 06 19
  20942569.594   -11782070.501 7  -9180806.647 2
  24387444.195     4800854.744 5   3740929.353 1
  22058545.133   -13386449.686 6  -9004702.015 2
  22064320.445     5347771.051 6   4167085.365 2
 91  4 23 22 10 45.0000000  0  4 02 11 06 19
  20940863.055   -11791029.480 8  -9187787.647 2
  24395056.875     4840863.778 5   3772105.166 1
  22052952.320   -13415849.009 6  -9027610.514 2
  22069040.859     5372598.591 6   4186431.447 1
 91  4 23 22 11  0.0000000  0  4 02 11 06 19
  20939171.547   -11799926.579 8  -9194720.428 2
  24402688.516     4880961.760 5   3803350.299 1
  22047358.078   -13445233.468 6  -9050507.428 2
  22073782.141     5397487.842 6   4205825.626 1
 91  4 23 22 11 15.0000000  0  4 02 11 06 19
  20937492.070   -11808757.680 8  -9201601.783 2
  24410336.344     4921152.427 5   3834667.646 1
  22041768.617   -13474598.805 6  -9073389.448 2
  22078533.711     5422443.111 6   4225271.236 1
 91  4 23 22 11 30.0000000  0  4 02 11 06 19
  20935822.484   -11817523.420 8  -9208432.204 2
  24417999.727     4961434.869 5   3866056.521 1
  22036187.211   -13503945.365 6  -9096256.836 2
  22083291.539     5447463.787 6   4244767.808 1
 91  4 23 22 11 45.0000000  0  4 02 11 06 19
  20934167.797   -11826226.239 8  -9215213.600 2
  24425685.672     5001806.532 5   3897514.903 1
  22030604.422   -13533275.265 6  -9119111.245 2
  22088062.914     5472547.484 6   4264313.500 1
 91  4 23 22 12  0.0000000  0  4 02 11 06 19
  20932522.602   -11834866.923 8  -9221946.576 2
  24433386.266     5042266.299 5   3929041.938 1
  22025025.578   -13562589.254 6  -9141953.260 1
  22092852.039     5497693.513 6   4283907.759 1
 91  4 23 22 12 15.0000000  0  4 02 11 06 19
  20930890.016   -11843446.359 8  -9228631.834 2
  24441096.898     5082813.006 5   3960636.725 1
  22019451.133   -13591887.974 6  -9164783.365 1
  22097648.047     5522901.028 6   4303549.938 2
 91  4 23 22 12 30.0000000  0  4 02 11 06 19
  20929269.453   -11851961.945 8  -9235267.331 3
  24448832.797     5123448.952 5   3992301.060 1
  22013878.492   -13621168.559 6  -9187599.354 1
  22102460.703     5548172.719 6   4323242.112 2
 91  4 23 22 12 45.0000000  0  4 02 11 06 19
  20927661.539   -11860411.382 8  -9241851.293 3
  24456584.234     5164176.333 5   4024036.648 1
  22008310.156   -13650428.363 6  -9210399.151 1
  22107277.844     5573511.198 6   4342986.344 2
 91  4 23 22 13  0.0000000  0  4 02 11 06 19
  20926065.617   -11868794.824 8  -9248383.821 3
  24464350.227     5204994.660 5   4055843.087 1
  22002747.711   -13679667.535 7  -9233182.871 1
  22112112.844     5598916.421 6   4362782.588 2
 91  4 23 22 13 15.0000000  0  4 02 11 06 19
  20924481.984   -11877115.998 8  -9254867.828 3
  24472133.094     5245899.830 5   4087717.199 1
  21997188.883   -13708889.551 7  -9255953.225 1
  22116958.891     5624384.659 6   4382627.915 1
 91  4 23 22 13 30.0000000  0  4 02 11 06 19
  20922911.164   -11885371.024 8  -9261300.297 3
  24479936.398     5286895.440 5   4119661.777 1
  21991629.977   -13738090.171 6  -9278706.916 1
  22121817.523     5649919.800 6   4402525.384 1
 91  4 23 22 13 45.0000000  0  4 02 11 06 19
  20921353.891   -11893562.308 8  -9267683.086 3
  24487755.523     5327978.775 6   4151674.710 1
  21986076.977   -13767271.778 7  -9301445.779 1
  22126687.203     5675519.491 6   4422473.152 2
 91  4 23 22 14  0.0000000  0  4 02 11 06 19
  20919805.594   -11901691.352 7  -9274017.375 3
  24495587.297     5369148.234 5   4183754.761 1
  21980525.992   -13796435.584 7  -9324170.782 1
  22131572.508     5701182.460 6   4442470.235 1
 91  4 23 22 14 15.0000000  0  4 02 11 06 19
  20918272.570   -11909755.498 7  -9280301.098 3
  24503440.523     5410406.251 5   4215903.839 1
  21974982.945   -13825578.663 7  -9346879.620 1
  22136471.414     5726911.552 6   4462518.829 1
 91  4 23 22 14 30.0000000  0  4 02 11 06 19
  20916748.031   -11917754.939 7  -9286534.397 4
  24511305.938     5451752.352 5   4248121.556 1
  21969436.516   -13854701.013 7  -9369572.306 2
  22141377.164     5752706.601 6   4482618.827 1
 91  4 23 22 14 45.0000000  0  4 02 11 06 19
  20915238.992   -11925691.618 7  -9292718.786 4
  24519188.813     5493184.229 6   4280406.103 1
  21963900.617   -13883804.349 6  -9392250.172 2
  22146297.375     5778565.734 6   4502768.750 1
 91  4 23 22 15  0.0000000  0  4 02 11 06 19
  20913739.188   -11933569.357 7  -9298857.246 4
  24527094.695     5534697.854 6   4312754.338 1
  21958365.828   -13912892.123 6  -9414915.932 2
  22151228.875     5804485.327 6   4522965.809 2
 91  4 23 22 15 15.0000000  0  4 02 11 06 19
  20912253.148   -11941385.536 7  -9304947.745 4
  24535004.602     5576295.474 6   4345168.021 1
  21952835.203   -13941961.636 7  -9437567.450 2
  22156174.070     5830468.044 6   4543212.052 2
 91  4 23 22 15 30.0000000  0  4 02 11 06 19
  20910776.523   -11949138.622 7  -9310989.071 4
  24542938.609     5617978.238 6   4377648.053 1
  21947305.383   -13971011.276 6  -9460203.479 2
  22161130.023     5856515.378 6   4563508.627 2
 91  4 23 22 15 45.0000000  0  4 02 11 06 19
  20909315.625   -11956826.702 7  -9316979.755 4
  24550884.875     5659748.006 6   4410195.903 1
  21941782.039   -14000038.710 7  -9482822.204 2
  22166102.797     5882629.437 6   4583857.199 2
 91  4 23 22 16  0.0000000  0  4 02 11 06 19
  20907862.258   -11964451.299 7  -9322920.961 4
  24558849.711     5701602.926 6   4442810.081 1
  21936259.617   -14029045.272 7  -9505424.661 2
  22171084.688     5908808.840 6   4604256.696 2
 91  4 23 22 16 15.0000000  0  4 02 11 06 19
  20906424.516   -11972014.389 7  -9328814.241 4
  24566831.844     5743540.838 6   4475488.946 1
  21930745.492   -14058032.729 6  -9528012.230 2
  22176076.875     5935051.729 6   4624705.658 2
 91  4 23 22 16 30.0000000  0  3 02 06 19
  20904998.898   -11979514.248 7  -9334658.247 4
  21925234.844   -14086998.979 7  -9550583.276 2
  22181084.375     5961359.979 6   4645205.541 1
 91  4 23 22 16 45.0000000  0  3 02 06 19
  20903581.281   -11986951.632 7  -9340453.573 4
  21919725.953   -14115944.658 7  -9573138.297 2
  22186096.500     5987732.720 6   4665755.691 1
 91  4 23 22 17  0.0000000  0  3 02 06 19
  20902178.320   -11994326.074 7  -9346199.859 4
  21914221.203   -14144869.267 7  -9595676.903 2
  22191130.773     6014170.652 6   4686356.632 2
 91  4 23 22 17 15.0000000  0  3 02 06 19
  20900785.648   -12001638.786 7  -9351898.043 3
  21908722.734   -14173773.497 7  -9618199.622 2
  22196173.945     6040672.669 6   4707007.508 2
 91  4 23 22 17 30.0000000  0  3 02 06 19
  20899405.781   -12008892.008 7  -9357549.881 3
  21903223.875   -14202659.444 7  -9640708.095 2
  22201227.297     6067236.629 6   4727706.649 1
 91  4 23 22 17 45.0000000  0  3 02 06 19
  20898036.422   -12016082.181 7  -9363152.591 3
  21897731.164   -14231523.285 7  -9663199.349 2
  22206296.508     6093866.203 6   4748456.937 1
 91  4 23 22 18  0.0000000  0  3 02 06 19
  20896684.219   -12023204.612 7  -9368702.504 3
  21892243.617   -14260360.215 7  -9685669.632 2
  22211385.102     6120566.057 6   4769261.988 1
 91  4 23 22 18 15.0000000  0  3 02 06 19
  20895337.055   -12030270.345 7  -9374208.243 3
  21886760.547   -14289180.932 7  -9708127.288 2
  22216475.523     6147325.242 6   4790113.244 1
 91  4 23 22 18 30.0000000  0  3 02 06 19
  20894004.438   -12037275.391 8  -9379666.705 3
  21881280.969   -14317981.196 7  -9730569.004 2
  22221576.852     6174147.870 6   4811013.946 1
 91  4 23 22 18 45.0000000  0  3 02 06 19
  20892682.328   -12044220.906 8  -9385078.778 2
  21875803.289   -14346762.033 7  -9752995.580 2
  22226691.836     6201032.873 6   4831963.258 1
 91  4 23 22 19  0.0000000  0  3 02 06 19
  20891372.789   -12051104.390 8  -9390442.515 2
  21870329.367   -14375520.798 7  -9775404.954 2
  22231822.250     6227982.972 6   4852963.284 1
 91  4 23 22 19 15.0000000  0  3 02 06 19
  20890076.422   -12057928.279 8  -9395759.813 2
  21864859.047   -14404259.588 7  -9797798.773 2
  22236960.234     6254995.737 6   4874012.157 1
 91  4 23 22 19 30.0000000  0  3 02 06 19
  20888788.617   -12064693.474 8  -9401031.381 2
  21859395.578   -14432978.963 7  -9820177.459 2
  22242117.352     6282070.306 6   4895109.175 1
 91  4 23 22 19 45.0000000  0  3 02 06 19
  20887510.313   -12071398.102 8  -9406255.744 2
  21853936.414   -14461676.859 7  -9842539.401 2
  22247279.703     6309208.718 6   4916255.938 2
 91  4 23 22 20  0.0000000  0  3 02 06 19
  20886248.563   -12078044.935 8  -9411435.077 2
  21848479.063   -14490355.664 7  -9864886.472 2
  22252459.141     6336408.405 6   4937450.458 1
 91  4 23 22 20 15.0000000  0  3 02 06 19
  20884992.727   -12084635.920 8  -9416570.893 2
  21843023.516   -14519017.232 7  -9887220.124 2
  22257643.242     6363667.394 6   4958691.175 1
 91  4 23 22 20 30.0000000  0  3 02 06 19
  20883752.531   -12091162.154 8  -9421656.250 2
  21837574.609   -14547652.569 7  -9909533.323 1
  22262840.203     6390994.682 6   4979985.131 2
 91  4 23 22 20 45.0000000  0  3 02 06 19
  20882520.258   -12097627.727 8  -9426694.340 2
  21832128.055   -14576265.279 7  -9931828.902 2
  22268054.766     6418386.370 6   5001329.247 2
 91  4 23 22 21  0.0000000  0  3 02 06 19
  20881300.984   -12104033.177 7  -9431685.578 2
  21826687.484   -14604855.717 7  -9954107.119 2
  22273279.406     6445842.036 6   5022723.239 1
 91  4 23 22 21 15.0000000  0  3 02 06 19
  20880093.672   -12110376.839 7  -9436628.669 2
  21821251.695   -14633422.012 7  -9976366.531 2
  22278513.422     6473363.310 6   5044168.338 2
 91  4 23 22 21 30.0000000  0  3 02 06 19
  20878898.320   -12116657.659 7  -9441522.778 2
  21815818.859   -14661962.785 7  -9998606.045 1
  22283769.047     6500951.370 6   5065665.496 1
 91  4 23 22 21 45.0000000  0  3 02 06 19
  20877716.547   -12122881.159 7  -9446372.237 2
  21810395.258   -14690483.302 7 -10020829.788 1
  22289027.477     6528600.887 6   5087210.523 1
 91  4 23 22 22  0.0000000  0  3 02 06 19
  20876541.438   -12129045.405 7  -9451175.510 3
  21804971.477   -14718981.539 7 -10043036.156 2
  22294294.727     6556313.649 6   5108804.839 1
 91  4 23 22 22 15.0000000  0  3 02 06 19
  20875379.164   -12135151.078 7  -9455933.155 3
  21799553.188   -14747458.210 7 -10065225.721 2
  22299585.742     6584088.914 6   5130447.869 1
 91  4 23 22 22 30.0000000  0  3 02 06 19
  20874231.570   -12141194.112 7  -9460641.980 3
  21794139.000   -14775908.668 7 -10087394.851 2
  22304883.461     6611930.972 6   5152142.929 1
 91  4 23 22 22 45.0000000  0  3 02 06 19
  20873090.117   -12147175.754 7  -9465302.967 3
  21788728.805   -14804333.880 7 -10109544.315 2
  22310192.742     6639838.788 6   5173889.219 1
 91  4 23 22 23  0.0000000  0  3 02 06 19
  20871966.867   -12153095.769 7  -9469915.931 3
  21783326.969   -14832733.429 7 -10131673.788 2
  22315518.602     6667812.491 6   5195686.874 1
 91  4 23 22 23 15.0000000  0  3 02 06 19
  20870850.352   -12158955.871 7  -9474482.221 3
  21777924.992   -14861108.783 7 -10153784.400 2
  22320854.406     6695850.582 6   5217534.698 1
 91  4 23 22 23 30.0000000  0  3 02 06 19
  20869745.258   -12164757.757 7  -9479003.141 4
  21772530.625   -14889461.215 7 -10175877.160 2
  22326204.281     6723951.745 6   5239431.655 1
 91  4 23 22 23 45.0000000  0  3 02 06 19
  20868651.914   -12170502.597 7  -9483479.611 4
  21767138.188   -14917791.705 7 -10197952.821 2
  22331557.383     6752114.689 6   5261376.749 1
 91  4 23 22 24  0.0000000  0  3 02 06 19
  20867572.523   -12176186.301 8  -9487908.441 4
  21761752.047   -14946095.962 7 -10220008.031 2
  22336930.242     6780343.464 6   5283373.151 1
 91  4 23 22 24 15.0000000  0  3 02 06 19
  20866501.437   -12181807.439 8  -9492288.521 3
  21756371.391   -14974372.363 7 -10242041.543 2
  22342318.523     6808639.669 6   5305422.096 1
 91  4 23 22 24 30.0000000  0  3 02 06 19
  20865441.492   -12187369.927 8  -9496622.905 3
  21750996.383   -15002624.564 7 -10264056.199 2
  22347715.344     6836999.501 6   5327520.596 1
 91  4 23 22 24 45.0000000  0  3 02 06 19
  20864394.758   -12192875.696 8  -9500913.091 3
  21745624.367   -15030854.027 7 -10286053.136 2
  22353121.328     6865421.328 6   5349667.420 1
 91  4 23 22 25  0.0000000  0  3 02 06 19
  20863358.227   -12198318.403 8  -9505154.139 3
  21740258.227   -15059054.343 7 -10308027.361 2
  22358546.055     6893911.313 6   5371867.358 1
 91  4 23 22 25 15.0000000  0  3 02 06 19
  20862334.445   -12203702.251 8  -9509349.336 3
  21734896.125   -15087229.495 7 -10329981.983 2
  22363978.328     6922465.426 6   5394117.251 1
 91  4 23 22 25 30.0000000  0  3 02 06 19
  20861320.117   -12209027.004 8  -9513498.466 3
  21729539.672   -15115379.024 7 -10351916.636 2
  22369425.070     6951083.704 6   5416417.140 1
 91  4 23 22 25 45.0000000  0  3 02 06 19
  20860319.094   -12214296.302 8  -9517604.390 3
  21724187.852   -15143506.274 7 -10373833.931 2
  22374878.414     6979762.642 6   5438764.325 1
 91  4 23 22 26  0.0000000  0  3 02 06 19
  20859325.508   -12219506.978 8  -9521664.643 3
  21718838.820   -15171607.650 7 -10395731.064 2
  22380349.125     7008505.827 6   5461161.575 1
 91  4 23 22 26 15.0000000  0  3 02 06 19
  20858346.117   -12224658.095 8  -9525678.481 3
  21713497.141   -15199682.083 7 -10417607.198 2
  22385831.227     7037314.110 6   5483609.514 1
 91  4 23 22 26 30.0000000  0  3 02 06 19
  20857378.820   -12229747.150 7  -9529643.952 2
  21708160.531   -15227726.785 7 -10439460.174 2
  22391328.109     7066190.180 6   5506110.294 1
 91  4 23 22 26 45.0000000  0  3 02 06 19
  20856420.555   -12234777.709 7  -9533563.848 2
  21702827.406   -15255745.204 7 -10461292.660 2
  22396835.695     7095130.416 6   5528661.083 1
 91  4 23 22 27  0.0000000  0  2 06 19
  21697500.414   -15283736.530 7 -10483104.037 2
  22402355.797     7124135.461 6   5551262.354 1
 91  4 23 22 27 15.0000000  0  3 02 06 19
  20854539.563          -0.40417
  21692177.711   -15311700.032 7 -10504893.735 2
  22407884.555     7153205.449 6   5573914.215 1
 91  4 23 22 27 30.0000000  0  3 02 06 19
  20853616.711       -4854.610 7
  21686863.508   -15339636.825 7 -10526662.618 2
  22413428.391     7182339.268 6   5596615.841 1
 91  4 23 22 27 45.0000000  0  3 02 06 19
  20852702.039       -9647.171 7        -0.29613
  21681551.391   -15367543.168 7 -10548407.780 2
  22418988.195     7211540.709 6   5619370.161 1
 91  4 23 22 28  0.0000000  0  3 02 06 19
  20851805.859      -14379.811 7     -3688.046 3
  21676247.453   -15395420.553 7 -10570130.369 2
  22424555.141     7240808.273 6   5642176.002 1
 91  4 23 22 28 15.0000000  0  3 02 06 19
  20850914.672      -19049.167 7     -7326.482 3
  21670951.070   -15423265.207 7 -10591827.458 2
  22430140.211     7270145.359 6   5665035.998 1
 91  4 23 22 28 30.0000000  0  3 02 06 19
  20850035.695      -23661.056 7    -10920.136 3
  21665656.055   -15451082.621 7 -10613503.321 2
  22435731.992     7299546.093 6   5687945.600 1
 91  4 23 22 28 45.0000000  0  3 02 06 19
  20849171.102      -28215.509 7    -14469.047 3
  21660367.094   -15478872.675 7 -10635157.866 2
  22441341.164     7329010.622 6   5710904.931 1
 91  4 23 22 29  0.0000000  0  3 02 06 19
  20848316.570      -32710.886 8    -17971.916 3
  21655085.586   -15506633.522 7 -10656789.655 2
  22446960.180     7358540.690 6   5733915.308 1
 91  4 23 22 29 15.0000000  0  3 02 06 19
  20847472.047      -37144.315 8    -21426.511 3
  21649808.203   -15534361.964 7 -10678396.193 2
  22452591.422     7388139.024 6   5756978.896 1
 91  4 23 22 29 30.0000000  0  3 02 06 19
  20846639.711      -41517.726 8    -24834.340 3
  21644537.594   -15562059.517 7 -10699978.654 2
  22458239.250     7417803.969 6   5780094.375 1
 91  4 23 22 29 45.0000000  0  3 02 06 19
  20845817.828      -45835.690 8    -28198.971 3
  21639270.758   -15589730.731 7 -10721540.585 2
  22463897.500     7447531.041 6   5803258.287 1
 91  4 23 22 30  0.0000000  0  3 02 06 19
  20845006.852      -50094.958 8    -31517.857 3
  21634010.594   -15617371.987 7 -10743079.180 2
  22469565.578     7477323.415 6   5826473.048 1
 91  4 23 22 30 15.0000000  0  3 02 06 19
  20844207.438      -54298.113 8    -34793.021 3
  21628755.477   -15644985.522 7 -10764596.172 2
  22475245.141     7507178.719 6   5849736.853 1
 91  4 23 22 30 30.0000000  0  3 02 06 19
  20843417.406      -58443.913 8    -38023.496 3
  21623508.141   -15672569.946 7 -10786090.482 2
  22480939.328     7537098.226 6   5873050.711 1
 91  4 23 22 30 45.0000000  0  4 13 02 06 19
  24079842.336          -0.40414
  20842640.336      -62533.932 8    -41210.504 3
  21618265.391   -15700126.513 7 -10807563.089 2
  22486645.148     7567080.399 6   5896413.382 1
 91  4 23 22 31  0.0000000  0  4 13 02 06 19
  24068082.156      -61811.774 4
  20841872.641      -66566.378 8    -44352.652 3
  21613026.039   -15727653.108 7 -10829012.338 2
  22492364.922     7597127.073 6   5919826.303 1
 91  4 23 22 31 15.0000000  0  4 13 02 06 19
  24056320.055     -123596.458 4
  20841117.375      -70539.427 8    -47448.507 3
  21607793.859   -15755147.805 7 -10850436.726 3
  22498093.250     7627240.173 6   5943290.995 1
 91  4 23 22 31 30.0000000  0  4 13 02 06 19
  24044567.594     -185357.765 4
  20840373.828      -74456.666 7    -50500.882 3
  21602567.164   -15782613.767 7 -10871838.729 2
  22503834.531     7657416.396 6   5966804.892 1
 91  4 23 22 31 45.0000000  0  4 13 02 06 19
  24032816.813     -247092.582 3
  20839635.633      -78315.571 7    -53507.796 3
  21597345.703   -15810048.053 7 -10893216.036 3
  22509593.758     7687658.289 6   5990369.952 1
 91  4 23 22 32  0.0000000  0  4 13 02 06 19
  24021072.414     -308802.320 4
  20838913.016      -82118.005 7    -56470.711 3
  21592130.125   -15837452.348 7 -10914569.981 3
  22515359.117     7717964.044 6   6013984.761 1
 91  4 23 22 32 15.0000000  0  4 13 02 06 19
  24009336.664     -370486.653 4
  20838201.008      -85864.183 7    -59389.793 2
  21586921.969   -15864826.821 7 -10935900.679 3
  22521135.398     7748333.325 6   6037649.087 1
 91  4 23 22 32 30.0000000  0  4 13 02 06 19
  23997604.844     -432144.817 4        -0.32311
  20837498.430      -89553.867 7    -62264.842 2
  21581720.984   -15892170.899 7 -10957207.697 3
  22526931.078     7778766.402 6   6061363.129 1
 91  4 23 22 32 45.0000000  0  4 13 02 06 19
  23985874.180     -493778.060 4
  20836804.211      -93188.619 7    -65097.102 2
  21576522.375   -15919485.738 7 -10978491.932 3
  22532730.063     7809261.863 6   6085125.765 1
 91  4 23 22 33  0.0000000  0  4 13 02 06 19
  23974162.563     -555389.527 5
  20836124.359      -96771.956 7    -67889.297 2
  21571327.391   -15946774.581 7 -10999755.910 2
  22538546.469     7839816.208 6   6108934.277 1
 91  4 23 22 33 15.0000000  0  4 13 02 06 19
  23962436.258     -616971.704 4
  20835454.336     -100296.922 7    -70635.995 2
  21566141.563   -15974030.301 7 -11020994.079 3
  22544369.922     7870436.445 6   6132794.134 1
 91  4 23 22 33 30.0000000  0  4 13 02 06 19
  23950719.969     -678525.946 4        -0.43411
  20834794.977     -103765.470 8    -73338.747 2
  21560961.438   -16001254.661 7 -11042207.818 2
  22550214.930     7901120.599 6   6156703.810 1
 91  4 23 22 33 45.0000000  0  4 13 02 06 19
  23939009.078     -740053.483 4    -47943.648 1
  20834144.891     -107179.398 8    -75998.931 3
  21555786.266   -16028449.084 7 -11063398.225 2
  22556062.289     7931867.197 6   6180662.129 1
 91  4 23 22 34  0.0000000  0  4 13 02 06 19
  23927309.813     -801553.950 4    -95865.805 1
  20833504.664     -110538.586 8    -78616.469 3
  21550616.945   -16055613.236 7 -11084565.049 2
  22561928.789     7962676.189 6   6204669.072 1
 91  4 23 22 34 15.0000000  0  4 13 02 06 19
  23915613.078     -863026.645 4
  20832876.742     -113842.816 8    -81191.175 3
  21545454.156   -16082746.542 7 -11105707.838 2
  22567801.711     7993547.954 6   6228724.937 1
 91  4 23 22 34 30.0000000  0  4 13 02 06 19
  23903925.906     -924466.273 5
  20832259.570     -117087.169 8    -83719.226 3
  21540296.063   -16109843.972 7 -11126822.678 2
  22573684.797     8024487.455 6   6252833.582 1
 91  4 23 22 34 45.0000000  0  4 13 02 06 19
  23892235.883     -985881.302 4
  20831651.102     -120280.715 8    -86207.686 3
  21535146.734   -16136914.126 7 -11147916.255 3
  22579586.828     8055485.744 6   6276988.035 1
 91  4 23 22 35  0.0000000  0  4 13 02 06 19
  23880553.852    -1047259.482 5        -0.44911
  20831054.039     -123411.747 8    -88647.433 3
  21530002.414   -16163945.046 7 -11168979.268 2
  22585496.625     8086554.553 6   6301197.434 1
 91  4 23 22 35 15.0000000  0  5 13 02 15 06 19
  23868874.547    -1108606.355 4    -47802.941 1
  20830471.102     -126486.217 8    -91043.100 4
  24251284.547      -25074.498 5
  21524865.242   -16190942.524 7 -11190016.223 3
  22591422.508     8117687.992 6   6325457.211 1
 91  4 23 22 35 30.0000000  0  5 13 02 15 06 19
  23857208.602    -1169919.680 4    -95579.291 1
  20829897.273     -129502.279 8    -93393.264 4
  24246526.508      -50056.978 5
  21519734.227   -16217904.556 7 -11211025.554 3
  22597361.086     8148887.927 6   6349768.779 1
 91  4 23 22 35 45.0000000  0  5 13 02 15 06 19
  23845547.906    -1231205.087 4   -143333.866 1
  20829332.258     -132466.065 7    -95702.681 4
  24241792.523      -74953.549 5
  21514608.359   -16244836.664 7 -11232011.570 3
  22603304.320     8180148.514 6   6374127.607 1
 91  4 23 22 36  0.0000000  0  5 13 02 15 06 19
  23833892.570    -1292457.431 5
  20828779.273     -135372.870 7    -97967.703 4
  24237070.422      -99759.133 5
  21509491.695   -16271733.820 7 -11252970.350 3
  22609270.477     8211474.454 6   6398537.384 1
 91  4 23 22 36 15.0000000  0  5 13 02 15 06 19
  23822241.344    -1353677.566 5
  20828235.742     -138224.028 7   -100189.358 4
  24232360.438     -124474.591 5
  21504378.719   -16298597.224 7 -11273902.835 2
  22615239.594     8242864.285 6   6422996.932 1
 91  4 23 22 36 30.0000000  0  5 13 02 15 06 19
  23810596.391    -1414868.413 4        -0.19611
  20827703.688     -141023.008 7   -102370.366 4
  24227679.766     -149103.316 5        -0.21211
  21499272.523   -16325430.114 7 -11294811.540 3
  22621225.000     8274314.590 6   6447503.603 1
 91  4 23 22 36 45.0000000  0  5 13 02 15 06 19
  23798957.500    -1476028.482 5    -47657.137 1
  20827180.844     -143768.634 7   -104509.794 4
  24223008.953     -173643.660 5    -19122.415 1
  21494173.195   -16352231.295 7 -11315695.539 2
  22627223.742     8305826.478 6   6472058.238 1
 91  4 23 22 37  0.0000000  0  5 13 02 15 06 19
  23787329.328    -1537154.033 5    -95287.158 1
  20826668.547     -146457.738 7   -106605.179 3
  24218364.289     -198091.906 5    -38172.828 1
  21489078.734   -16378996.985 7 -11336551.869 3
  22633237.273     8337403.346 6   6496663.529 1
 91  4 23 22 37 15.0000000  0  5 13 02 15 06 19
  23775703.828    -1598245.424 5   -142890.580 1
  20826166.883     -149091.086 7   -108657.123 3
  24213718.602     -222448.181 5    -57151.614 1
  21483993.797   -16405727.726 7 -11357380.982 2
  22639253.445     8369044.617 6   6521319.024 1
 91  4 23 22 37 30.0000000  0  5 13 02 15 06 19
  23764087.516    -1659302.880 5   -190467.549 1
  20825676.648     -151669.403 7   -110666.188 3
  24209107.219     -246712.948 5    -76059.052 1
  21478912.352   -16432423.914 7 -11378183.167 3
  22645286.609     8400749.497 6   6546024.076 1
 91  4 23 22 37 45.0000000  0  5 13 02 15 06 19
  23752468.375    -1720323.066 5   -238015.394 1
  20825197.648     -154189.819 7   -112630.133 3
  24204505.656     -270883.043 5    -94892.767 1
  21473840.523   -16459082.449 7 -11398955.999 3
  22651332.320     8432520.954 6   6570780.965 1
 91  4 23 22 38  0.0000000  0  5 13 02 15 06 19
  23740865.141    -1781307.820 5   -285535.704 1
  20824729.758     -156654.825 8   -114550.899 3
  24199924.328     -294960.503 5   -113654.278 1
  21468771.281   -16485705.473 7 -11419701.179 3
  22657390.938     8464356.579 6   6595587.891 1
 91  4 23 22 38 15.0000000  0  5 13 02 15 06 19
  23729271.289    -1842257.147 5   -333028.400 1
  20824272.414     -159064.870 8   -116428.841 3
  24195354.813     -318945.486 5   -132343.741 1
  21463712.484   -16512293.218 7 -11440418.868 3
  22663463.555     8496255.793 6   6620444.350 1
 91  4 23 22 38 30.0000000  0  5 13 02 15 06 19
  23717676.992    -1903169.068 5   -380491.939 1
  20823821.188     -161418.317 7   -118262.684 3
  24190815.836     -342835.848 5   -150959.454 1
  21458660.813   -16538843.771 7 -11461107.567 3
  22669541.758     8528220.295 6   6645351.690 1
 91  4 23 22 38 45.0000000  0  5 13 02 15 06 19
  23706090.602    -1964043.878 5   -427926.523 1
  20823385.680     -163715.791 8   -120052.904 3
  24186285.516     -366631.968 5   -169501.780 1
  21453615.469   -16565357.732 7 -11481767.759 3
  22675636.984     8560249.440 6   6670309.387 1
 91  4 23 22 39  0.0000000  0  5 13 02 15 06 19
  23694516.297    -2024881.499 5   -475332.189 1
  20822957.266     -165957.757 7   -121799.883 3
  24181773.000     -390333.764 5   -187970.541 1
  21448576.781   -16591835.030 7 -11502399.369 2
  22681748.742     8592342.987 6   6695317.282 1
 91  4 23 22 39 15.0000000  0  5 13 02 15 06 19
  23682940.906    -2085684.569 5   -522710.910 1
  20822542.117     -168147.435 8   -123506.117 3
  24177279.000     -413944.135 5   -206368.131 1
  21443543.313   -16618278.454 7 -11523004.594 2
  22687868.672     8624497.856 6   6720372.945 1
 91  4 23 22 39 30.0000000  0  5 13 02 15 06 19
  23671380.289    -2146448.225 5   -570058.920 1
  20822136.305     -170280.528 8   -125168.254 3
  24172809.969     -437458.292 5   -224690.707 1
  21438519.320   -16644683.452 7 -11543579.875 2
  22693998.242     8656718.413 6   6745479.806 1
 91  4 23 22 39 45.0000000  0  5 13 02 15 06 19
  23659823.859    -2207174.997 5   -617378.144 1
  20821739.984     -172359.806 8   -126788.454 3
  24168350.789     -460878.738 5   -242940.278 1
  21433501.984   -16671052.754 7 -11564127.335 2
  22700138.836     8689001.874 6   6770635.673 1
 91  4 23 22 40  0.0000000  0  5 13 02 15 06 19
  23648276.578    -2267864.222 5   -664668.137 1
  20821355.758     -174385.215 8   -128366.680 3
  24163909.898     -484204.778 5   -261116.295 1
  21428489.984   -16697385.753 7 -11584646.517 3
  22706288.234     8721348.475 5   6795840.742 1
 91  4 23 22 40 15.0000000  0  5 13 02 15 06 19
  23636732.742    -2328518.141 5   -711930.646 1
  20820978.547     -176359.463 8   -129905.037 3
  24159490.313     -507438.950 5   -279220.736 1
  21423485.828   -16723684.997 7 -11605139.394 2
  22712464.609     8753755.434 6   6821092.864 1
 91  4 23 22 40 30.0000000  0  5 13 02 15 06 19
  23625200.063    -2389137.180 5   -759165.918 1
  20820613.977     -178283.283 7   -131404.094 3
  24155090.891     -530581.466 5   -297253.755 1
  21418488.109   -16749951.008 7 -11625606.380 2
  22718642.031     8786222.042 6   6846391.442 1
 91  4 23 22 40 45.0000000  0  5 13 02 15 06 19
  23613669.828    -2449713.101 5   -806367.651 1
  20820257.289     -180148.909 7   -132857.804 3
  24150700.219     -553624.267 5   -315209.050 1
  21413498.281   -16776175.675 7 -11646041.159 2
  22724830.500     8818756.034 6   6871742.519 1
 91  4 23 22 41  0.0000000  0  5 13 02 15 06 19
  23602150.297    -2510246.956 5   -853536.522 1
  20819914.164     -181957.956 7   -134267.432 3
  24146335.883     -576568.743 5   -333087.758 1
  21408514.336   -16802360.589 7 -11666444.950 2
  22731033.891     8851355.711 5   6897144.802 1
 91  4 23 22 41 15.0000000  0  5 13 02 15 06 19
  23590634.375    -2570740.831 5   -900674.296 1
  20819580.594     -183713.067 7   -135635.028 3
  24141984.906     -599416.786 5   -350891.330 1
  21403540.336   -16828507.644 7 -11686819.249 2
  22737250.695     8884018.752 5   6922596.457 1
 91  4 23 22 41 30.0000000  0  5 13 02 15 06 19
  23579131.609    -2631193.804 5   -947780.207 1
  20819254.398     -185413.807 7   -136960.253 3
  24137657.781     -622167.785 5   -368619.238 1
  21398571.914   -16854616.397 7 -11707163.701 2
  22743477.977     8916745.494 5   6948097.716 1
 91  4 23 22 41 45.0000000  0  5 13 02 15 06 19
  23567635.781    -2691605.611 5   -994854.020 1
  20818942.398     -187060.312 7   -138243.222 3
  24133342.961     -644821.324 5   -386271.241 1
  21393609.352   -16880686.595 7 -11727478.102 2
  22749714.992     8949535.841 5   6973648.573 1
 91  4 23 22 42  0.0000000  0  5 13 02 15 06 19
  23556144.109    -2751979.473 5  -1041898.277 1
  20818639.219     -188656.296 7   -139486.827 3
  24129054.664     -667380.676 5   -403849.821 1
  21388654.688   -16906721.576 7 -11747765.062 2
  22755972.523     8982386.373 5   6999246.330 1
 91  4 23 22 42 15.0000000  0  5 13 02 15 06 19
  23544667.195    -2812313.766 5  -1088911.654 1
  20818344.711     -190200.598 7   -140690.158 3
  24124779.117     -689844.410 5   -421353.871 1
  21383707.469   -16932719.962 7 -11768023.513 2
  22762238.273     9015298.116 6   7024891.753 1
 91  4 23 22 42 30.0000000  0  5 13 02 15 06 19
  23533194.813    -2872606.726 5  -1135892.853 1
  20818063.320     -191691.767 8   -141852.091 3
  24120518.273     -712210.480 5   -438781.868 1
  21378768.188   -16958680.071 7 -11788252.141 2
  22768508.547     9048272.567 5   7050586.049 1
 91  4 23 22 42 45.0000000  0  5 13 02 15 06 19
  23521728.555    -2932858.097 5  -1182841.645 1
  20817787.102     -193129.998 8   -142972.774 3
  24116285.719     -734479.024 5   -456133.875 1
  21373834.477   -16984601.730 7 -11808450.803 2
  22774795.133     9081309.485 5   7076329.040 1
 91  4 23 22 43  0.0000000  0  5 13 02 15 06 19
  23510268.805    -2993068.869 5  -1229758.799 1
  20817525.016     -194516.703 8   -144053.305 3
  24112064.383     -756650.843 5   -473410.480 1
  21368910.055   -17010486.179 7 -11828620.464 2
  22781096.625     9114407.541 5   7102119.664 1
 91  4 23 22 43 15.0000000  0  5 13 02 15 06 19
  23498814.352    -3053237.432 5  -1276643.081 1
  20817269.695     -195850.611 8   -145092.697 3
  24107866.273     -778724.535 5   -490610.627 1
  21363990.133   -17036331.866 7 -11848759.920 2
  22787401.609     9147567.959 5   7127958.880 1
 91  4 23 22 43 30.0000000  0  5 13 02 15 06 19
  23487377.313    -3113360.401 5  -1323491.801 1
  20817027.141     -197129.172 8   -146088.964 3
  24103679.992     -800697.075 5   -507731.968 1
  21359079.188   -17062135.860 7 -11868866.896 2
  22793718.586     9180793.460 5   7153848.797 1
 91  4 23 22 43 45.0000000  0  5 13 02 15 06 19
  23475947.797    -3173438.639 5  -1370305.673 1
  20816793.195     -198353.806 8   -147043.211 3
  24099523.531     -822569.627 5   -524775.386 1
  21354179.430   -17087899.356 7 -11888942.305 2
  22800066.102     9214082.613 6   7179788.330 1
 91  4 23 22 44  0.0000000  0  5 13 02 15 06 19
  23464519.523    -3233469.544 5  -1417082.666 1
  20816570.000     -199522.205 8   -147953.636 3
  24095371.703     -844339.286 5   -541738.598 1
  21349284.695   -17113619.779 7 -11908984.159 2
  22806408.273     9247437.823 5   7205779.334 1
 91  4 23 22 44 15.0000000  0  5 13 02 15 06 19
  23453106.836    -3293459.714 5  -1463827.911 1
  20816357.711     -200641.385 8   -148825.704 3
  24091259.461     -866012.556 5   -558626.759 1
  21344395.039   -17139303.699 7 -11928997.559 2
  22812774.195     9280852.165 6   7231816.396 1
 91  4 23 22 44 30.0000000  0  5 13 02 15 06 19
  23441697.125    -3353405.862 5  -1510538.860 1
  20816154.242     -201708.755 7   -149657.406 3
  24087145.438     -887586.774 5   -575437.733 1
  21339516.742   -17164948.063 7 -11948980.141 2
  22819145.766     9314328.230 6   7257901.562 1
 91  4 23 22 44 45.0000000  0  5 13 02 15 06 19
  23430299.477    -3413304.047 5  -1557212.418 1
  20815962.109     -202720.540 7   -150445.791 3
  24083060.797     -909057.630 5   -592168.112 1
  21334645.531   -17190549.238 7 -11968929.068 3
  22825518.172     9347869.730 6   7284037.706 1
 91  4 23 22 45  0.0000000  0  5 13 02 15 06 19
  23418914.297    -3473157.035 5  -1603850.821 1
  20815779.984     -203680.021 7   -151193.417 3
  24078997.430     -930428.081 5   -608820.335 1
  21329780.781   -17216110.142 7 -11988846.611 3
  22831916.688     9381473.499 5   7310222.382 1
 91  4 23 22 45 15.0000000  0  5 13 02 15 06 19
  23407529.453    -3532960.000 5  -1650450.158 1
  20815611.031     -204582.628 8   -151896.728 3
  24074953.125     -951693.235 5   -625390.464 1
  21324924.398   -17241625.629 7 -12008728.768 3
  22838321.602     9415144.123 5   7336459.155 1
 91  4 23 22 45 30.0000000  0  5 13 02 15 06 19
  23396156.156    -3592715.515 5  -1697012.593 1
  20815446.242     -205431.622 8   -152558.257 3
  24070918.266     -972855.993 4   -641880.778 1
  21320076.766   -17267098.897 7 -12028578.022 2
  22844740.266     9448878.328 5   7362745.500 1
 91  4 23 22 45 45.0000000  0  5 13 02 15 06 19
  23384797.617    -3652427.442 5  -1743541.023 1
  20815294.375     -206231.308 8   -153181.364 3
  24066914.625     -993920.038 5   -658294.220 1
  21315237.617   -17292533.932 7 -12048397.496 3
  22851167.820     9482671.920 5   7389078.088 1
 91  4 23 22 46  0.0000000  0  5 13 02 15 06 19
  23373441.523    -3712087.628 5  -1790029.178 1
  20815152.383     -206973.974 8   -153760.046 3
  24062931.984    -1014877.459 4   -674624.562 1
  21310406.125   -17317922.669 7 -12068180.887 2
  22857616.508     9516532.501 5   7415462.863 1
 91  4 23 22 46 15.0000000  0  5 13 02 15 06 19
  23362092.547    -3771700.138 5  -1836480.126 1
  20815023.906     -207664.070 8   -154297.758 3
  24058956.203    -1035732.354 4   -690875.006 1
  21305582.508   -17343269.249 7 -12087931.437 2
  22864071.750     9550455.807 5   7441896.549 1
 91  4 23 22 46 30.0000000  0  5 13 02 15 06 19
  23350762.977    -3831262.534 5  -1882892.066 1
  20814899.469     -208299.627 8   -154792.982 3
  24055008.203    -1056482.287 5   -707043.628 1
  21300768.008   -17368571.618 7 -12107647.542 3
  22870543.328     9584443.599 5   7468380.458 1
 91  4 23 22 46 45.0000000  0  5 13 02 15 06 19
  23339438.836    -3890778.608 5  -1929267.919 1
  20814788.914     -208884.919 8   -155249.043 3
  24051082.250    -1077131.493 4   -723133.803 1
  21295959.836   -17393833.706 7 -12127332.265 2
  22877019.102     9618491.727 5   7494911.390 1
 91  4 23 22 47  0.0000000  0  5 13 02 15 06 19
  23328120.438    -3950243.627 5  -1975603.980 1
  20814689.219     -209415.778 7   -155662.680 3
  24047167.852    -1097675.341 4   -739141.856 1
  21291162.430   -17419050.923 7 -12146981.988 2
  22883506.195     9652604.457 5   7521492.674 1
 91  4 23 22 47 15.0000000  0  5 13 02 15 06 19
  23316814.664    -4009655.755 5  -2021898.833 1
  20814596.133     -209890.968 7   -156032.944 3
  24043280.031    -1118112.017 4   -755066.419 1
  21286372.477   -17444221.601 7 -12166595.473 3
  22890012.008     9686783.208 5   7548125.387 1
 91  4 23 22 47 30.0000000  0  5 13 02 15 06 19
  23305519.727    -4069020.564 5  -2068156.789 1
  20814518.188     -210316.342 7   -156364.393 3
  24039410.062    -1138446.994 4   -770911.718 1
  21281590.266   -17469351.551 7 -12186177.202 2
  22896532.391     9721021.918 6   7574804.832 1
 91  4 23 22 47 45.0000000  0  5 13 02 15 06 19
  23294234.211    -4128335.457 5  -2114375.876 1
  20814447.523     -210689.662 8   -156655.276 3
  24035559.844    -1158677.897 4   -786675.971 1
  21276816.258   -17494438.213 7 -12205725.214 3
  22903059.109     9755322.639 6   7601532.585 1
 91  4 23 22 48  0.0000000  0  5 13 02 15 06 19
  23282953.688    -4187597.160 5  -2160553.515 1
  20814383.758     -211008.097 8   -156903.388 3
  24031725.203    -1178801.540 3   -802356.608 1
  21272049.383   -17519478.379 7 -12225236.989 3
  22909597.773     9789688.448 5   7628311.061 1
 91  4 23 22 48 15.0000000  0  5 13 02 15 06 19
  23271683.969    -4246812.884 5  -2206695.353 1
  20814333.938     -211279.595 7   -157114.937 3
  24027925.102    -1198825.262 4   -817959.376 1
  21267292.953   -17544479.456 7 -12244718.311 3
  22916154.078     9824111.829 6   7655134.390 1
 91  4 23 22 48 30.0000000  0  5 13 02 15 06 19
  23260426.969    -4305977.444 5  -2252797.260 1
  20814296.188     -211499.445 8   -157286.230 3
  24024124.719    -1218743.846 3   -833480.289 1
  21262543.016   -17569436.694 7 -12264165.467 3
  22922706.695     9858597.211 5   7682006.035 1
 91  4 23 22 48 45.0000000  0  5 13 02 15 06 19
  23249177.063    -4365089.537 5  -2298858.327 1
  20814261.305     -211666.480 7
  24020351.414    -1238556.283 3   -848918.418 1
  21257804.023   -17594348.739 7 -12283577.408 3
  22929288.883     9893145.704 6   7708926.868 1
 91  4 23 22 49  0.0000000  0  5 13 02 15 06 19
  23237941.953    -4424142.374 5  -2344873.197 1
  20814239.258     -211774.229 7
  24016607.969    -1258255.665 4   -864268.465 1
  21253072.703   -17619208.717 7 -12302948.786 3
  22935871.133     9927763.833 5   7735901.940 1
 91  4 23 22 49 15.0000000  0  5 13 02 15 06 19
  23226713.328    -4483142.195 5  -2390846.782 1
  20814229.008     -211829.714 7
  24012874.609    -1277848.386 5   -879535.422 1
  21248350.797   -17644023.369 7 -12322284.843 3
  22942470.133     9962444.733 5   7762925.938 1
 91  4 23 22 49 30.0000000  0  5 13 02 15 06 19
  23215495.359    -4542089.293 5  -2436779.290 1
  20814228.711     -211833.543 8
  24009177.680    -1297335.025 5   -894719.718 1
  21243636.664   -17668793.095 7 -12341585.889 3
  22949082.203     9997187.471 5   7789998.113 1
 91  4 23 22 49 45.0000000  0  5 13 02 15 06 19
  23204286.953    -4600980.546 5  -2482668.269 1
  20814236.711     -211783.257 8
  24005489.922    -1316712.597 5   -909819.052 1
  21238933.039   -17693515.102 7 -12360849.751 2
  22955701.484    10031994.675 5   7817120.545 1
 91  4 23 22 50  0.0000000  0  5 13 02 15 06 19
  23193093.148    -4659815.728 5  -2528513.545 1
  20814260.133     -211678.913 8
  24001814.984    -1335980.955 5   -924833.248 1
  21234237.617   -17718189.134 7 -12380076.235 3
  22962341.828    10066866.381 5   7844293.212 1
 91  4 23 22 50 15.0000000  0  5 13 02 15 06 19
  23181908.719    -4718594.986 5  -2574315.263 1
  20814289.313     -211521.336 7
  23998177.750    -1355140.214 5   -939762.434 1
  21229550.883   -17742815.497 7 -12399265.573 3
  22968985.289    10101801.850 5   7871515.597 1
 91  4 23 22 50 30.0000000  0  5 13 02 15 06 19
  23170731.586    -4777316.100 5  -2620071.700 1
  20814331.484     -211308.704 7
  23994549.625    -1374188.244 5   -954604.985 1
  21224874.781   -17767392.178 7 -12418416.206 3
  22975650.750    10136802.874 5   7898789.041 1
 91  4 23 22 50 45.0000000  0  5 13 02 15 06 19
  23159565.445    -4835980.566 5  -2665783.983 1
  20814377.125     -211042.842 7   -156930.340 3
  23990950.594    -1393126.543 5   -969361.975 1
  21220207.219   -17791920.730 7 -12437529.326 3
  22982323.102    10171867.822 5   7926112.292 1
 91  4 23 22 51  0.0000000  0  5 13 02 15 06 19
  23148416.164    -4894587.577 5  -2711451.495 1
  20814442.570     -210723.322 7   -156681.354 3
  23987360.555    -1411954.329 5   -984032.862 1
  21215548.547   -17816400.357 7 -12456604.334 3
  22989007.281    10206996.962 5   7953485.580 1
 91  4 23 22 51 15.0000000  0  5 13 02 15 06 19
  23137273.430    -4953140.268 5  -2757076.657 1
  20814509.750     -210353.892 7   -156393.476 3
  23983799.930    -1430675.325 5   -998620.577 1
  21210897.633   -17840834.696 7 -12475644.042 3
  22995700.828    10242186.358 5   7980905.818 1
 91  4 23 22 51 30.0000000  0  5 13 02 15 06 19
  23126142.609    -5011631.920 5  -2802654.290 1
  20814592.438     -209928.498 7   -156061.992 3
  23980252.133    -1449282.540 5  -1013119.629 1
  21206259.555   -17865217.011 7 -12494643.207 3
  23002420.023    10277442.468 5   8008378.023 1
 91  4 23 22 51 45.0000000  0  5 13 02 15 06 19
  23115024.500    -5070065.326 5  -2848186.512 1
  20814680.109     -209450.068 7   -155689.173 3
  23976740.430    -1467778.976 5  -1027532.330 1
  21201628.727   -17889550.304 7 -12513604.161 3
  23009131.281    10312762.088 5   8035899.718 1
 91  4 23 22 52  0.0000000  0  5 13 02 15 06 19
  23103916.258    -5128440.780 5  -2893673.613 1
  20814781.859     -208919.404 7   -155275.666 3
  23973243.094    -1486165.285 5  -1041859.264 1
  21197007.016   -17913835.001 7 -12532527.267 3
  23015866.703    10348144.436 5   8063470.311 1
 91  4 23 22 52 15.0000000  0  5 13 02 15 06 19
  23092817.070    -5186756.707 5  -2939114.272 1
  20814892.836     -208335.503 7   -154820.672 3
  23969760.609    -1504439.734 5  -1056098.992 1
  21192394.203   -17938069.720 7 -12551411.421 3
  23022611.641    10383590.919 5   8091090.849 1
 91  4 23 22 52 30.0000000  0  5 13 02 15 06 19
  23081732.086    -5245011.500 5  -2984507.351 1
  20815012.711     -207696.994 7   -154323.122 3
  23966306.547    -1522600.819 5  -1070250.403 1
  21187791.852   -17962252.890 7 -12570255.402 3
  23029368.805    10419102.606 5   8118762.210 1
 91  4 23 22 52 45.0000000  0  5 13 02 15 06 19
  23070658.570    -5303205.741 6  -3029853.213 1
  20815147.789     -207004.894 7   -153783.818 3
  23962873.828    -1540649.239 5  -1084314.023 1
  21183202.336   -17986385.099 7 -12589059.681 3
  23036143.703    10454678.469 5   8146483.590 1
 91  4 23 22 53  0.0000000  0  5 13 02 15 06 19
  23059595.906    -5361339.313 6  -3075151.812 1
  20815289.039     -206259.778 7   -153203.198 3
  23959458.266    -1558585.143 5  -1098289.944 1
  21178617.898   -18010466.733 7 -12607824.556 3
  23042927.289    10490318.107 6   8174254.653 1
 91  4 23 22 53 15.0000000  0  5 13 02 15 06 19
  23048544.016    -5419408.980 6  -3120400.635 1
  20815441.055     -205458.644 7   -152578.924 3
  23956069.141    -1576405.079 5  -1112175.535 1
  21174046.992   -18034494.433 7 -12626547.396 3
  23049723.805    10526024.489 6   8202077.693 1
 91  4 23 22 53 30.0000000  0  5 13 02 15 06 19
  23037505.734    -5477418.295 6  -3165602.424 1
  20815603.375     -204605.622 7   -151914.225 3
  23952702.063    -1594112.828 5  -1125973.680 1
  21169480.430   -18058471.942 7 -12645231.142 3
  23056526.141    10561793.450 5   8229949.510 1
 91  4 23 22 53 45.0000000  0  5 13 02 15 06 19
  23026476.422    -5535368.355 6  -3210758.032 1
  20815775.742     -203702.122 7   -151210.192 3
  23949347.195    -1611709.726 5  -1139685.436 1
  21164929.930   -18082400.541 7 -12663876.768 3
  23063342.180    10597623.606 5   8257869.028 1
 91  4 23 22 54  0.0000000  0  5 13 02 15 06 19
  23015461.336    -5593255.478 6  -3255864.588 1
  20815956.547     -202745.122 7   -150464.472 3
  23946025.828    -1629192.195 5  -1153308.020 1
  21160386.656   -18106276.850 7 -12682481.649 3
  23070176.633    10633517.873 5   8285838.505 1
 91  4 23 22 54 15.0000000  0  5 13 02 15 06 19
  23004454.234    -5651081.501 5  -3300923.552 1
  20816149.906     -201736.730 8   -149678.693 3
  23942715.563    -1646562.245 5  -1166843.079 1
  21155854.188   -18130102.518 7 -12701047.063 3
  23077012.352    10669474.208 5   8313856.341 1
 91  4 23 22 54 30.0000000  0  5 13 02 15 06 19
  22993463.516    -5708845.293 5  -3345934.022 1
  20816351.531     -200676.220 8   -148852.307 3
  23939430.758    -1663819.030 5  -1180289.833 1
  21151329.000   -18153876.890 7 -12719572.496 3
  23083870.508    10705493.096 5   8341922.924 1
 91  4 23 22 54 45.0000000  0  5 13 02 15 06 19
  22982481.273    -5766546.528 5  -3390895.740 1
  20816565.758     -199563.559 8   -147985.286 3
  23936173.609    -1680961.844 5  -1193647.744 1
  21146814.234   -18177599.460 7 -12738057.593 3
  23090738.016    10741574.787 5   8370038.443 1
 91  4 23 22 55  0.0000000  0  5 13 02 15 06 19
  22971516.938    -5824184.012 5  -3435807.801 1
  20816785.453     -198398.102 8   -147077.116 3
  23932927.313    -1697989.691 5  -1206916.095 1
  21142310.133   -18201269.265 7 -12756501.552 4
  23097614.094    10777720.000 5   8398203.454 1
 91  4 23 22 55 15.0000000  0  5 13 02 15 06 19
  22960561.266    -5881758.651 6  -3480670.859 1
  20817015.758     -197181.566 8   -146129.153 3
  23929713.000    -1714903.927 5  -1220095.943 1
  21137817.633   -18224887.603 7 -12774905.430 3
  23104500.672    10813927.041 5   8426416.625 1
 91  4 23 22 55 30.0000000  0  5 13 02 15 06 19
  22949615.008    -5939266.566 5  -3525481.972 1
  20817259.211     -195910.184 8   -145138.453 3
  23926516.586    -1731700.319 5  -1233183.932 1
  21133330.508   -18248450.512 7 -12793266.107 4
  23111407.445    10850199.638 5   8454680.908 1
 91  4 23 22 55 45.0000000  0  5 13 02 15 06 19
  22938683.609    -5996711.163 5  -3570243.696 1
  20817509.492     -194588.138 8   -144108.271 3
  23923339.641    -1748382.841 5  -1246183.197 1
  21128857.813   -18271961.714 7 -12811586.482 4
  23118314.516    10886533.622 5   8482993.027 1
 91  4 23 22 56  0.0000000  0  5 13 02 15 06 19
  22927765.508    -6054089.865 5  -3614954.125 1
  20817773.000     -193213.075 8   -143036.781 3
  23920189.359    -1764948.847 5  -1259091.681 1
  21124393.836   -18295418.656 7 -12829864.577 4
  23125245.977    10922931.366 5   8511354.831 1
 91  4 23 22 56 15.0000000  0  5 13 02 15 06 19
  22916859.734    -6111405.315 6  -3659615.257 1
  20818042.086     -191788.229 8   -141926.497 3
  23917058.813    -1781401.409 5  -1271911.789 1
  21119939.430   -18318824.273 7 -12848102.679 4
  23132182.234    10959389.635 5   8539763.784 1
 91  4 23 22 56 30.0000000  0  5 13 02 15 06 19
  22905965.188    -6168655.110 6  -3704225.230 1
  20818323.938     -190311.513 8   -140775.803 3
  23913950.398    -1797738.278 5  -1284641.753 1
  21115495.258   -18342176.254 7 -12866298.987 4
  23139138.445    10995910.513 5   8568221.512 1
 91  4 23 22 56 45.0000000  0  5 13 02 15 06 19
  22895083.609    -6225837.920 6  -3748782.997 1
  20818613.281     -188781.777 8   -139583.782 3
  23910857.016    -1813957.954 5  -1297280.364 1
  21111060.094   -18365473.142 7 -12884452.367 3
  23146095.922    11032494.876 5   8596728.692 1
 91  4 23 22 57  0.0000000  0  5 13 02 15 06 19
  22884215.492    -6282955.533 6  -3793289.967 1
  20818916.492     -187201.438 8   -138352.338 3
  23907795.805    -1830062.611 5  -1309829.313 1
  21106641.352   -18388717.077 7 -12902564.482 3
  23153075.039    11069140.540 5   8625283.671 1
 91  4 23 22 57 15.0000000  0  5 13 02 15 06 19
  22873356.281    -6340006.085 6  -3837744.658 1
  20819227.352     -185569.293 8   -137080.520 3
  23904754.148    -1846050.320 5  -1322287.194 1
  21102226.727   -18411906.350 7 -12920634.011 3
  23160057.852    11105848.831 5   8653887.432 1
 91  4 23 22 57 30.0000000  0  5 13 02 15 06 19
  22862509.961    -6396992.009 5  -3882149.022 1
  20819546.625     -183887.938 8   -135770.352 3
  23901735.227    -1861923.151 5  -1334655.542 1
  21097822.641   -18435043.248 7 -12938662.720 3
  23167057.945    11142617.122 5   8682537.964 1
 91  4 23 22 57 45.0000000  0  5 13 02 15 06 19
  22851677.805    -6453905.966 5  -3926497.295 1
  20819876.055     -182150.652 8   -134416.610 3
  23898735.656    -1877674.355 5  -1346929.107 1
  21093430.844   -18458120.819 7 -12956645.216 3
  23174062.844    11179452.174 5   8711240.501 1
 91  4 23 22 58  0.0000000  0  5 13 02 15 06 19
  22840861.594    -6510752.339 5  -3970792.915 1
  20820217.531     -180362.250 8   -133023.035 3
  23895760.188    -1893308.230 5  -1359111.247 1
  21089049.133   -18481143.600 7 -12974585.010 3
  23181082.445    11216349.063 5   8739991.219 1
 91  4 23 22 58 15.0000000  0  5 13 02 15 06 19
  22830058.141    -6567534.275 6  -4015038.338 1
  20820566.328     -178526.103 8   -131592.256 3
  23892809.703    -1908828.209 5  -1371204.689 1
  21084679.188   -18504114.684 7 -12992484.516 3
  23188117.859    11253304.215 5   8768787.353 1
 91  4 23 22 58 30.0000000  0  5 13 02 15 06 19
  22819266.766    -6624245.879 6  -4059228.954 1
  20820925.953     -176636.843 8   -130120.098 3
  23889876.797    -1924228.690 5  -1383204.958 1
  21080318.594   -18527028.505 7 -13010339.413 3
  23195161.961    11290323.175 5   8797633.192 1
 91  4 23 22 58 45.0000000  0  5 13 02 15 06 19
  22808484.922    -6680888.707 5  -4103365.975 1
  20821296.289     -174696.620 8   -128608.223 3
  23886968.773    -1939511.434 4  -1395113.497 1
  21075969.719   -18549886.612 7 -13028150.905 3
  23202215.789    11327403.819 5   8826527.098 1
 91  4 23 22 59  0.0000000  0  5 13 02 15 06 19
  22797722.078    -6737460.654 5  -4147447.759 1
  20821674.711     -172703.646 8   -127055.246 3
  23884087.180    -1954674.220 5  -1406928.573 1
  21071631.766   -18572687.206 7 -13045917.570 3
  23209289.406    11364547.742 5   8855470.320 1
 91  4 23 22 59 15.0000000  0  5 13 02 15 06 19
  22786967.836    -6793966.151 5  -4191477.782 1
  20822063.602     -170662.802 8   -125464.967 3
  23881219.844    -1969721.695 5  -1418653.810 1
  21067301.023   -18595434.900 7 -13063643.010 3
  23216360.570    11401750.134 5   8884459.111 1
 91  4 23 22 59 30.0000000  0  5 13 02 15 06 19
  22776230.234    -6850403.473 6  -4235454.671 1
  20822459.898     -168572.887 8   -123836.443 3
  23878382.609    -1984652.440 4  -1430288.051 1
  21062984.266   -18618127.940 7 -13081325.854 3
  23223454.078    11439012.215 5   8913494.417 1
 91  4 23 22 59 45.0000000  0  5 13 02 15 06 19
  22765498.828    -6906769.562 5  -4279376.060 1
  20822866.250     -166431.322 8   -122167.682 3
  23875560.188    -1999463.455 5  -1441828.998 1
  21058674.305   -18640763.506 7 -13098963.941 3
  23230559.922    11476336.561 5   8942578.229 1
 91  4 23 23  0  0.0000000  0  5 13 02 15 06 19
  22754788.398    -6963066.450 5  -4323243.529 1
  20823284.352     -164240.503 8   -120460.540 3
  23872767.250    -2014156.862 5  -1453278.288 1
  21054379.773   -18663343.598 7 -13116558.773 3
  23237676.273    11513720.749 5   8971708.671 1
 91  4 23 23  0 15.0000000  0  5 13 02 15 06 19
  22744088.172    -7019299.065 5  -4367060.899 1
  20823710.641     -162005.637 8   -118719.071 3
  23869992.781    -2028737.575 5  -1464639.823 1
  21050090.828   -18685873.261 7 -13134114.320 3
  23244799.227    11551159.638 5   9000881.744 1
 91  4 23 23  0 30.0000000  0  5 13 02 15 06 19
  22733397.703    -7075464.370 5  -4410825.840 1
  20824143.922     -159724.273 8   -116941.379 3
  23867230.750    -2043202.751 5  -1475911.302 1
  21045813.898   -18708349.708 7 -13151628.413 3
  23251936.695    11588655.636 5   9030099.300 1
 91  4 23 23  0 45.0000000  0  5 13 02 15 06 19
  22722724.852    -7131556.642 5  -4454533.865 1
  20824589.336     -157391.047 8   -115123.277 3
  23864507.219    -2057546.772 5  -1487088.347 1
  21041548.750   -18730767.308 7 -13169096.655 3
  23259081.367    11626214.030 5   9059365.466 1
 91  4 23 23  1  0.0000000  0  5 13 02 15 06 19
  22712064.234    -7187575.503 6  -4498184.701 1
  20825041.695     -155006.099 8   -113264.860 3
  23861804.789    -2071769.424 5  -1498170.853 1
  21037295.023   -18753125.855 7 -13186518.878 3
  23266241.672    11663834.630 5   9088680.125 1
 91  4 23 23  1 15.0000000  0  5 13 02 15 06 19
  22701420.648    -7243517.719 6  -4541775.807 1
  20825507.492     -152566.677 8   -111364.005 3
  23859122.641    -2085867.796 5  -1509156.504 1
  21033050.602   -18775422.336 7 -13203892.732 3
  23273406.875    11701520.234 5   9118045.442 1
 91  4 23 23  1 30.0000000  0  5 13 02 15 06 19
  22690787.734    -7299384.546 6  -4585308.166 1
  20825980.563     -150074.170 8   -109421.786 3
  23856451.977    -2099842.837 4  -1520046.051 1
  21028819.266   -18797657.741 7 -13221218.968 3
  23280595.398    11739269.508 5   9147460.356 1
 91  4 23 23  1 45.0000000  0  5 13 02 15 06 19
  22680171.836    -7355181.346 5  -4628785.961 1
  20826463.578     -147534.645 8   -107442.926 3
  23853816.711    -2113700.443 4  -1530844.097 1
  21024599.648   -18819837.884 7 -13238502.173 3
  23287787.375    11777076.462 5   9176920.233 1
 91  4 23 23  2  0.0000000  0  5 13 02 15 06 19
  22669565.961    -7410905.544 6  -4672207.189 1
  20826957.391     -144945.947 8   -105425.745 3
  23851213.594    -2127438.047 4  -1541548.592 1
  21020388.484   -18841960.149 7 -13255740.271 3
  23295000.211    11814943.356 5   9206426.784 1
 91  4 23 23  2 15.0000000  0  5 13 02 15 06 19
  22658976.422    -7466558.782 6  -4715573.109 1
  20827458.227     -142309.934 8   -103371.702 3
  23848614.648    -2141057.469 3  -1552161.080 1
  21016190.781   -18864026.289 7 -13272934.638 3
  23302215.016    11852867.958 5   9235978.318 1
 91  4 23 23  2 30.0000000  0  5 13 02 15 06 19
  22648397.383    -7522141.573 5  -4758884.156 1
  20827968.383     -139627.703 8   -101281.645 3
  23846045.344    -2154559.418 3  -1562682.060 1
  21012001.508   -18886037.135 7 -13290085.919 3
  23309435.148    11890849.143 5   9265573.955 1
 91  4 23 23  2 45.0000000  0  5 13 02 15 06 19
  22637835.547    -7577648.564 6  -4802136.149 1
  20828489.086     -136894.299 8    -99151.719 3
  23843495.617    -2167938.868 4  -1573107.539 1
  21007824.742   -18907987.360 7 -13307189.967 2
  23316676.617    11928891.732 5   9295217.425 1
 91  4 23 23  3  0.0000000  0  5 13 02 15 06 19
  22627288.680    -7633082.910 6  -4845331.494 1
  20829016.938     -134113.280 8    -96984.684 3
  23840968.742    -2181198.640 4  -1583439.712 1
  21003658.633   -18929880.155 7 -13324249.264 3
  23323929.445    11966992.397 5   9324906.150 1
 91  4 23 23  3 15.0000000  0  5 13 02 15 06 19
  22616752.328    -7688443.383 6  -4888469.296 1
  20829556.203     -131283.875 8    -94779.937 3
  23838480.367    -2194337.919 4  -1593678.062 1
  20999504.391   -18951714.460 7 -13341262.979 3
  23331192.688    12005151.864 5   9354640.685 1
 91  4 23 23  3 30.0000000  0  5 13 02 15 06 19
  22606233.219    -7743723.915 6  -4931544.804 1
  20830104.688     -128400.627 8    -92533.240 3
  23835998.961    -2207351.008 4  -1603818.055 1
  20995361.570   -18973484.534 7 -13358226.650 3
  23338465.672    12043375.603 5   9384425.332 1
 91  4 23 23  3 45.0000000  0  5 13 02 15 06 19
  22595727.063    -7798928.883 6  -4974561.447 1
  20830662.594     -125468.136 8    -90248.179 3
  23833541.930    -2220242.388 4  -1613863.215 1
  20991231.734   -18995194.690 7 -13375143.624 3
  23345748.172    12081659.001 5   9414256.408 1
 91  4 23 23  4  0.0000000  0  5 13 02 15 06 19
  22585237.969    -7854057.659 6  -5017518.701 1
  20831230.484     -122486.145 8    -87924.541 3
  23831113.539    -2233011.388 4
  20987108.828   -19016844.273 7 -13392013.404 3
  23353052.438    12120002.320 5   9444134.203 1
 91  4 23 23  4 15.0000000  0  5 13 02 15 06 19
  22574761.391    -7909111.667 6  -5060417.701 1
  20831806.617     -119456.506 8    -85563.768 3
  23828706.883    -2245659.421 4
  20983001.070   -19038435.012 7 -13408837.329 3
  23360353.719    12158403.587 5   9474057.200 1
 91  4 23 23  4 30.0000000  0  5 13 02 15 06 19
  22564294.734    -7964090.423 6  -5103258.064 1
  20832391.367     -116379.070 8    -83165.754 3
  23826327.227    -2258185.955 5        -0.36911
  20978905.695   -19059966.188 7 -13425614.837 3
  23367668.656    12196862.970 5   9504025.437 1
 91  4 23 23  4 45.0000000  0  5 13 02 15 06 19
  22553850.570    -8018987.150 6  -5146034.531 1
  20832988.141     -113247.851 8    -80725.824 3
  23823965.461    -2270584.857 5     -9661.729 1
  20974819.188   -19081431.623 7 -13442341.125 3
  23375007.727    12235386.373 5   9534043.560 1
 91  4 23 23  5  0.0000000  0  5 13 02 15 06 19
  22543414.352    -8073809.344 6  -5188752.890 1
  20833591.758     -110070.736 8    -78250.150 3
  23821627.820    -2282863.831 4    -19229.740 1
  20970745.883   -19102838.836 7 -13459022.045 3
  23382348.953    12273966.153 5   9564105.588 1
 91  4 23 23  5 15.0000000  0  5 13 02 15 06 19
  22532999.547    -8128552.182 6  -5231409.424 1
  20834207.547     -106843.074 8    -75735.071 3
  23819315.523    -2295018.169 5    -28700.565 1
  20966683.883   -19124182.924 7 -13475653.771 3
  23389695.219    12312606.514 5   9594214.845 1
 91  4 23 23  5 30.0000000  0  5 13 02 15 06 19
  22522597.914    -8183218.157 6  -5274006.082 1
  20834829.102     -103567.796 8    -73182.894 3
  23817031.328    -2307050.236 5    -38076.079 1
  20962633.055   -19145466.591 7 -13492238.415 3
  23397067.148    12351304.586 5   9624369.102 1
 91  4 23 23  5 45.0000000  0  5 13 02 15 06 19
  22512209.523    -8237807.189 6  -5316542.750 1
  20835462.242     -100245.250 8    -70593.881 3
  23814747.969    -2318960.086 4    -47356.425 1
  20958594.008   -19166689.784 7 -13508775.929 3
  23404439.008    12390059.921 5   9654567.949 1
 91  4 23 23  6  0.0000000  0  5 13 02 15 06 19
  22501834.164    -8292324.070 6  -5359023.222 1
  20836102.586      -96880.609 8    -67972.076 3
  23812515.383    -2330752.797 4    -56545.501 1
  20954566.703   -19187857.456 7 -13525270.186 3
  23411820.688    12428867.508 5   9684807.522 1
 91  4 23 23  6 15.0000000  0  5 13 02 15 06 19
  22491475.422    -8346762.713 6  -5401442.746 1
  20836752.953      -93468.361 8    -65313.171 3
  23810299.234    -2342422.645 5    -65638.849 1
  20950550.469   -19208963.689 7 -13541716.575 3
  23419213.422    12467732.781 5   9715092.065 1
 91  4 23 23  6 30.0000000  0  5 13 02 15 06 19
  22481134.906    -8401124.040 6  -5443801.999 1
  20837411.680      -90009.931 8    -62618.278 3
  23808087.641    -2353970.700 4    -74637.213 1
  20946544.523   -19230009.737 7 -13558116.055 3
  23426625.102    12506654.194 5   9745420.325 1
 91  4 23 23  6 45.0000000  0  5 13 02 15 06 19
  22470801.742    -8455406.866 6  -5486100.086 1
  20838077.750      -86504.489 8    -59886.759 3
  23805924.188    -2365395.988 5    -83539.942 1
  20942553.039   -19250994.445 7 -13574467.742 3
  23434042.094    12545632.775 5   9775793.126 1
 91  4 23 23  7  0.0000000  0  5 13 02 15 06 19
  22460490.578    -8509611.088 6  -5528336.934 1
  20838753.398      -82952.222 8    -57118.743 3
  23803777.344    -2376698.357 5    -92346.916 1
  20938571.141   -19271917.626 7 -13590771.498 3
  23441469.789    12584668.180 5   9806210.214 1
 91  4 23 23  7 15.0000000  0  5 13 02 15 06 19
  22450187.414    -8563732.442 6  -5570509.192 1
  20839438.648      -79349.349 8    -54311.303 3
  23801647.102    -2387873.588 5   -101054.816 1
  20934602.016   -19292775.128 7 -13607024.072 3
  23448909.305    12623764.299 5   9836674.630 1
 91  4 23 23  7 30.0000000  0  5 13 02 15 06 19
  22439903.633    -8617775.345 6  -5612620.327 1
  20840132.891      -75700.715 8    -51468.199 3
  23799559.133    -2398926.457 5   -109667.386 1
  20930643.797   -19313571.479 7 -13623229.001 3
  23456352.523    12662916.131 4   9867182.442 1
 91  4 23 23  7 45.0000000  0  5 13 02 15 06 19
  22429632.914    -8671737.486 6  -5654668.549 1
  20840838.328      -72004.317 8    -48587.879 3
  23797476.156    -2409854.871 5   -118182.969 1
  20926697.672   -19334304.553 7 -13639384.619 3
  23463814.617    12702125.622 3   9897735.212 1
 91  4 23 23  8  0.0000000  0  5 13 02 15 06 19
  22419385.398    -8725617.162 6  -5696652.499 1
  20841550.203      -68258.926 8    -45669.383 3
  23795416.016    -2420657.072 5   -126600.184 1
  20922765.523   -19354972.605 7 -13655489.551 3
  23471288.375    12741393.839 3   9928333.721 1
 91  4 23 23  8 15.0000000  0  5 13 02 15 06 19
  22409144.766    -8779415.901 6  -5738573.388 1
  20842270.641      -64466.461 8    -42714.209 3
  23793370.680    -2431334.823 5   -134920.446 1
  20918842.680   -19375577.435 7 -13671545.236 3
  23478775.664    12780718.848 5   9958976.489 1
 91  4 23 23  8 30.0000000  0  5 13 02 15 06 19
  22398921.492    -8833133.700 6  -5780431.224 1
  20843000.922      -60627.128 8    -39722.511 3
  23791368.609    -2441888.432 5   -143143.984 1
  20914936.195   -19396118.988 7 -13687551.605 3
  23486270.906    12820100.220 5   9989663.174 1
 91  4 23 23  8 45.0000000  0  5 13 02 15 06 19
  22388717.188    -8886766.644 6  -5822222.905 1
  20843741.844      -56737.333 8    -36691.493 3
  23789382.148    -2452313.682 5   -151267.471 1
  20911040.242   -19416593.195 7 -13703505.502 3
  23493779.156    12859541.650 5  10020396.619 1
 91  4 23 23  9  0.0000000  0  5 13 02 15 06 19
  22378524.047    -8940319.111 6  -5863951.905 1
  20844488.797      -52802.324 8    -33625.244 3
  23787423.109    -2462615.493 5   -159294.834 1
  20907155.883   -19437005.163 7 -13719410.900 3
  23501291.266    12899038.155 5  10051172.994 1
 91  4 23 23  9 15.0000000  0  5 13 02 15 06 19
  22368351.961    -8993789.531 6  -5905616.980 1
  20845248.398      -48820.900 8    -30522.819 3
  23785482.359    -2472792.357 5   -167224.817 1
  20903282.188   -19457353.061 7 -13735266.378 3
  23508818.484    12938590.871 5  10081993.182 1
 91  4 23 23  9 30.0000000  0  5 13 02 15 06 19
  22358189.406    -9047182.019 6  -5947221.331 1
  20846014.391      -44797.458 8    -27387.659 3
  23783571.102    -2482848.593 5   -175060.793 1
  20899421.297   -19477641.065 7 -13751075.183 3
  23516355.555    12978195.295 5  10112853.643 1
 91  4 23 23  9 45.0000000  0  5 13 02 15 06 19
  22348042.609    -9100493.854 6  -5988762.826 1
  20846788.203      -40729.728 8    -24217.985 3
  23781684.484    -2492781.608 5   -182800.755 1
  20895571.305   -19497866.498 7 -13766835.233 3
  23523900.375    13017853.699 5  10143756.183 1
 91  4 23 23 10  0.0000000  0  5 13 02 15 06 19
  22337915.266    -9153715.293 6  -6030233.882 1
  20847571.789      -36608.386 8    -21006.536 3
  23779814.383    -2502581.934 5   -190437.304 1
  20891739.023   -19518020.058 7 -13782539.275 3
  23531470.586    13057575.147 5  10174707.854 1
 91  4 23 23 10 15.0000000  0  5 13 02 15 06 19
  22327802.992    -9206857.076 6  -6071642.871 1
  20848364.945      -32444.534 8    -17761.974 3
  23777982.891    -2512260.504 5   -197978.983 1
  20887915.711   -19538112.374 7 -13798195.588 3
  23539032.898    13097348.646 5  10205700.095 1
 91  4 23 23 10 30.0000000  0  5 13 02 15 06 19
  22317704.938    -9259915.928 6  -6112987.245 1
  20849167.648      -28235.468 8    -14482.177 3
  23776148.844    -2521814.227 4   -205423.338 1
  20884103.617   -19558140.426 7 -13813801.841 3
  23546613.344    13137176.816 5  10236734.930 1
 91  4 23 23 10 45.0000000  0  5 13 02 15 06 19
  22307624.891    -9312891.211 6  -6154266.502 1
  20849975.383      -23980.610 8    -11166.697 3
  23774353.180    -2531242.581 4   -212770.076 1
  20880306.070   -19578103.479 7 -13829357.439 2
  23554200.117    13177059.877 5  10267812.524 1
 91  4 23 23 11  0.0000000  0  5 13 02 15 06 19
  22297558.781    -9365782.650 6  -6195480.435 1
  20850791.859      -19680.157 8     -7815.686 3
  23772599.453    -2540545.374 4   -220018.984 1
  20876517.703   -19598001.438 7 -13844862.316 3
  23561800.727    13216997.780 5  10298932.845 1
 91  4 23 23 11 15.0000000  0  5 13 02 15 06 19
  22287507.203    -9418587.919 6  -6236627.222 1
  20851621.836      -15332.335 8     -4427.750 4
  23770847.930    -2549720.389 5   -227168.297 1
  20872744.539   -19617832.009 7 -13860314.682 3
  23569410.938    13256992.329 5  10330097.319 1
 91  4 23 23 11 30.0000000  0  5 13 02 15 06 19
  22277481.227    -9471306.396 6  -6277706.376 1
  20852457.781      -10937.149 8     -1002.913 4
  23769129.250    -2558767.686 5   -234218.106 1
  20868983.234   -19637594.972 7 -13875714.364 3
  23577039.953    13297043.612 4  10361306.017 1
 91  4 23 23 11 45.0000000  0  5 13 02 15 06 19
  22267462.500    -9523938.147 6  -6318717.946 1
  20853301.039       -6494.623 8      2458.805 3
  23767423.352    -2567687.099 5   -241168.240 1
  20865236.898   -19657290.146 7 -13891061.207 3
  23584669.734    13337151.542 5  10392558.823 1
 91  4 23 23 12  0.0000000  0  5 13 02 15 06 19
  22257465.594    -9576479.665 6  -6359659.221 1
  20854156.484       -2001.819 8      5959.714 3
  23765755.672    -2576475.393 5   -248016.230 1
  20861502.563   -19676914.184 7 -13906352.624 3
  23592308.695    13377318.634 5  10423857.745 1
 91  4 23 23 12 15.0000000  0  5 13 02 15 06 19
  22247484.727    -9628930.179 6  -6400529.587 1
  20855021.336        2541.512 8      9499.986 3
  23764110.781    -2585131.995 5   -254761.589 1
  20857780.789   -19696466.573 7 -13921588.223 3
  23599959.133    13417545.375 5  10455203.143 1
 91  4 23 23 12 30.0000000  0  5 13 02 15 06 19
  22237519.656    -9681295.638 6  -6441333.669 1
  20855893.391        7129.042 8     13074.696 3
  23762486.898    -2593662.962 5   -261409.054 1
  20854072.867   -19715953.244 7 -13936772.608 3
  23607629.547    13457825.433 5  10486590.068 1
 91  4 23 23 12 45.0000000  0  5 13 02 15 06 19
  22227573.430    -9733574.187 6  -6482070.014 1
  20856777.672       11762.430 8     16685.139 3
  23760888.953    -2602066.632 5   -267957.298 1
  20850375.977   -19735372.332 7 -13951904.339 3
  23615300.859    13498160.399 4  10518019.777 1
 91  4 23 23 13  0.0000000  0  5 13 02 15 06 19
  22217638.148    -9785769.939 6  -6522741.854 1
  20857665.539       16437.237 7     20327.853 3
  23759305.563    -2610347.018 5   -274409.522 1
  20846694.016   -19754727.985 7 -13966986.647 3
  23622986.328    13538545.479 4  10549488.529 1
 91  4 23 23 13 15.0000000  0  5 13 02 15 06 19
  22207722.250    -9837877.327 6  -6563344.842 1
  20858563.000       21158.500 7     24006.768 3
  23757758.719    -2618499.070 5   -280761.718 1
  20843023.969   -19774014.980 7 -13982015.451 3
  23630680.281    13578985.801 4  10581000.376 1
 91  4 23 23 13 30.0000000  0  5 13 02 15 06 19
  22197823.648    -9889893.922 6  -6603877.081 1
  20859472.484       25928.282 8     27723.490 3
  23756226.672    -2626520.546 5   -287012.154 1
  20839367.914   -19793230.748 7 -13996988.739 3
  23638395.414    13619483.596 5  10612556.960 1
 91  4 23 23 13 45.0000000  0  5 13 02 15 06 19
  22187941.258    -9941825.266 6  -6644342.886 1
  20860387.367       30740.629 8     31473.378 3
  23754722.523    -2634416.949 5   -293165.181 1
  20835724.484   -19812381.093 7 -14011911.039 3
  23646109.664    13660032.591 5  10644153.427 1
 91  4 23 23 14  0.0000000  0  5 13 02 15 06 19
  22178077.117    -9993667.544 6  -6684739.303 1
  20861313.852       35599.064 8     35259.184 3
  23753244.484    -2642184.794 5   -299217.973 1
  20832093.422   -19831462.220 7 -14026779.410 3
  23653832.805    13700636.300 4  10675792.555 1
 91  4 23 23 14 15.0000000  0  5 13 02 15 06 19
  22168228.547   -10045418.217 6  -6725064.346 1
  20862246.734       40505.393 8     39082.310 3
  23751799.195    -2649821.685 5   -305168.721 1
  20828475.586   -19850471.699 7 -14041591.955 3
  23661563.648    13741296.848 4  10707475.979 1
 91  4 23 23 14 30.0000000  0  5 13 02 15 06 19
  22158394.516   -10097078.484 6  -6765318.918 1
  20863189.391       45458.330 8     42941.751 3
  23750359.422    -2657328.900 4   -311018.489 1
  20824869.055   -19869410.700 7 -14056349.591 3
  23669320.430    13782012.535 5  10739202.402 1
 91  4 23 23 14 45.0000000  0  5 13 02 15 06 19
  22148586.961   -10148644.477 6  -6805500.040 1
  20864142.336       50461.415 8     46840.271 3
  23748964.930    -2664702.767 5   -316764.315 1
  20821279.641   -19888275.303 7 -14071049.259 3
  23677083.328    13822786.876 4  10770974.456 1
 91  4 23 23 15  0.0000000  0  5 13 02 15 06 19
  22138790.844   -10200118.941 6  -6845609.838 1
  20865103.031       55511.159 8     50775.147 3
  23747583.211    -2671946.477 4   -322408.741 1
  20817703.797   -19907068.777 7 -14085693.508 3
  23684844.227    13863616.254 4  10802789.438 1
 91  4 23 23 15 15.0000000  0  5 13 02 15 06 19
  22129011.773   -10251504.603 6  -6885650.457 1
  20866072.141       60604.583 8     54744.053 3
  23746233.320    -2679062.894 5   -327953.942 1
  20814141.711   -19925793.798 7 -14100284.405 3
  23692622.656    13904497.610 3  10834644.952 1
 91  4 23 23 15 30.0000000  0  5 13 02 15 06 19
  22119248.992   -10302799.515 6  -6925620.370 1
  20867048.398       65743.363 8     58748.307 4
  23744902.914    -2686049.992 5   -333398.389 1
  20810590.125   -19944448.281 7 -14114820.344 3
  23700415.648    13945432.835 4  10866542.408 1
 91  4 23 23 15 45.0000000  0  5 13 02 15 06 19
  22109503.727   -10354005.817 6  -6965521.224 1
  20868034.227       70924.900 8     62785.878 3
  23743599.516    -2692910.265 5   -338743.990 1
  20807055.789   -19963034.613 7 -14129303.167 3
  23708219.992    13986419.312 5  10898479.805 1
 91  4 23 23 16  0.0000000  0  5 13 02 15 06 19
  22099778.430   -10405121.074 6  -7005351.145 1
  20869029.469       76151.609 8     66858.650 3
  23742319.125    -2699641.507 5   -343989.059 1
  20803530.680   -19981550.117 7 -14143730.795 3
  23716023.789    14027459.060 5  10930458.689 1
 91  4 23 23 16 15.0000000  0  5 13 02 15 06 19
  22090067.664   -10456143.749 6  -7045108.890 1
  20870032.133       81424.464 8     70967.375 3
  23741065.633    -2706242.351 5   -349132.555 1
  20800020.906   -19999993.625 7 -14158102.323 3
  23723844.102    14068552.957 4  10962479.755 1
 91  4 23 23 16 30.0000000  0  5 13 02 15 06 19
  22080376.422   -10507071.214 6  -7084792.478 1
  20871042.992       86745.569 8     75113.699 3
  23739832.711    -2712710.279 5   -354172.426 1
  20796526.117   -20018362.597 7 -14172415.771 3
  23731678.938    14109703.182 4  10994544.745 1
 91  4 23 23 16 45.0000000  0  5 13 02 15 06 19
  22070705.211   -10557903.918 6  -7124402.219 1
  20872068.578       92113.963 7     79296.867 3
  23738626.961    -2719046.267 5   -359109.505 1
  20793046.906   -20036657.697 7 -14186671.673 3
  23739521.461    14150908.676 5  11026652.776 1
 91  4 23 23 17  0.0000000  0  5 13 02 15 06 19
  22061046.078   -10608641.811 6  -7163938.065 1
  20873096.188       97529.597 7     83516.846 3
  23737449.883    -2725250.051 5   -363943.554 1
  20789578.445   -20054878.735 7 -14200869.863 3
  23747371.109    14192169.128 5  11058803.633 1
 91  4 23 23 17 15.0000000  0  5 13 02 15 06 19
  22051413.430   -10659286.559 6  -7203401.358 1
  20874134.656      102990.408 7     87772.027 3
  23736283.102    -2731323.584 5   -368676.162 1
  20786125.023   -20073027.495 7 -14215011.735 3
  23755228.930    14233482.666 4  11090995.880 1
 91  4 23 23 17 30.0000000  0  5 13 02 15 06 19
  22041790.016   -10709837.828 6  -7242791.807 1
  20875183.289      108496.022 7     92062.113 3
  23735162.609    -2737266.724 5   -373307.141 1
  20782683.625   -20091103.725 7 -14229097.093 3
  23763106.602    14274849.030 4  11123229.264 1
 91  4 23 23 17 45.0000000  0  5 13 02 15 06 19
  22032189.594   -10760295.074 6  -7282108.990 1
  20876239.867      114046.701 7     96387.322 4
  23734047.156    -2743079.216 5   -377836.321 1
  20779258.219   -20109107.064 7 -14243125.652 3
  23770983.328    14316268.175 4  11155503.821 1
 91  4 23 23 18  0.0000000  0  5 13 02 15 06 19
  22022607.516   -10810654.020 6  -7321349.570 1
  20877306.633      119646.443 8    100750.752 3
  23732971.281    -2748756.882 5   -382260.415 1
  20775846.859   -20127033.162 7 -14257094.018 3
  23778873.500    14357744.175 3  11187822.641 1
 91  4 23 23 18 15.0000000  0  5 13 02 15 06 19
  22013040.961   -10860918.075 6  -7360516.208 1
  20878380.164      125291.283 8    105149.331 3
  23731917.766    -2754303.456 5   -386582.378 1
  20772451.008   -20144885.874 7 -14271005.196 3
  23786782.828    14399272.894 4  11220182.557 1
 91  4 23 23 18 30.0000000  0  5 13 02 15 06 19
  22003497.883   -10911085.294 6  -7399607.389 1
  20879462.617      130983.020 7    109584.449 3
  23730886.617    -2759717.139 5   -390800.787 1
  20769067.648   -20162662.910 7 -14284857.410 3
  23794693.008    14440856.160 4  11252585.005 1
 91  4 23 23 18 45.0000000  0  5 13 02 15 06 19
  21993967.258   -10961160.076 6  -7438626.542 1
  20880554.797      136716.862 7    114052.379 3
  23729879.609    -2765002.370 5   -394919.117 1
  20765697.172   -20180368.845 7 -14298654.218 3
  23802618.492    14482488.909 4  11285025.985 1
 91  4 23 23 19  0.0000000  0  5 13 02 15 06 19
  21984456.617   -11011137.115 6  -7477569.542 1
  20881653.484      142497.992 7    118557.158 3
  23728899.719    -2770153.781 4   -398933.142 1
  20762341.688   -20197998.171 7 -14312391.337 3
  23810554.852    14524176.311 5  11317509.537 1
 91  4 23 23 19 15.0000000  0  5 13 02 15 06 19
  21974964.086   -11061016.170 6  -7516436.192 1
  20882762.992      148325.854 7    123098.355 3
  23727942.953    -2775171.737 5   -402843.185 1
  20759002.055   -20215551.114 7 -14326068.936 3
  23818497.797    14565917.761 5  11350035.215 1
 91  4 23 23 19 30.0000000  0  5 13 02 15 06 19
  21965492.180   -11110794.816 6  -7555224.609 1
  20883880.711      154202.592 7    127677.631 3
  23727013.438    -2780054.142 4   -406647.591 1
  20755676.023   -20233025.328 7 -14339685.190 3
  23826450.977    14607715.207 4  11382604.504 1
 91  4 23 23 19 45.0000000  0  5 13 02 15 06 19
  21956037.789   -11160475.073 6  -7593936.351 1
  20885008.359      160126.096 7    132293.353 3
  23726097.852    -2784802.960 3   -410347.962 1
  20752365.398   -20250422.573 7 -14353241.467 3
  23834408.563    14649566.520 4  11415215.781 1
 91  4 23 23 20  0.0000000  0  5 13 02 15 06 19
  21946602.180   -11210057.138 6  -7632571.593 1
  20886146.648      166095.636 7    136944.936 3
  23725233.781    -2789418.604 3   -413944.548 1
  20749070.883   -20267743.296 7 -14366738.116 3
  23842384.930    14691470.993 4  11447868.469 1
 91  4 23 23 20 15.0000000  0  5 13 02 15 06 19
  21937184.703   -11259535.300 6  -7671125.862 1
  20887292.000      172116.446 8    141636.482 3
  23724375.648    -2793895.476 4   -417432.993 1
  20745789.555   -20284981.817 7 -14380170.714 3
  23850372.492    14733433.862 4  11480566.655 1
 91  4 23 23 20 30.0000000  0  5 13 02 15 06 19
  21927789.984   -11308916.839 6  -7709604.839 1
  20888444.633      178180.991 8    146362.094 3
  23723555.000    -2798241.188 5   -420819.195 1
  20742522.844   -20302145.597 7 -14393545.072 3
  23858364.813    14775447.296 4  11513304.232 1
 91  4 23 23 20 45.0000000  0  5 13 02 15 06 19
  21918411.352   -11358200.557 6  -7748007.601 1
  20889607.742      184290.125 8    151122.453 3
  23722754.430    -2802454.927 5   -424102.580 1
  20739272.484   -20319233.497 7 -14406860.293 3
  23866369.484    14817511.964 4  11546081.783 1
 91  4 23 23 21  0.0000000  0  5 13 02 15 06 19
  21909054.484   -11407380.631 6  -7786329.587 1
  20890779.250      190449.184 8    155921.710 3
  23721980.656    -2806530.910 5   -427278.603 1
  20736036.586   -20336239.787 7 -14420111.928 3
  23874381.758    14859633.154 3  11578903.343 1
 91  4 23 23 21 15.0000000  0  5 13 02 15 06 19
  21899711.688   -11456456.611 6  -7824570.477 1
  20891960.555      196658.328 8    160759.998 3
  23721222.203    -2810468.998 5   -430347.220 1
  20732815.164   -20353164.064 7 -14433299.663 3
  23882408.477    14901811.091 3  11611769.136 1
 91  4 23 23 21 30.0000000  0  5 13 02 15 06 19
  21890393.297   -11505434.583 6  -7862734.985 1
  20893151.070      202911.204 7    165632.365 3
  23720500.406    -2814275.193 5   -433313.044 1
  20729610.977   -20370012.142 7 -14446428.021 3
  23890445.820    14944039.526 3  11644674.273 1
 91  4 23 23 21 45.0000000  0  5 13 02 15 06 19
  21881089.922   -11554314.780 6  -7900823.310 1
  20894349.078      209206.970 7    170538.160 3
  23719806.313    -2817950.149 5   -436176.620 1
  20726418.391   -20386784.656 7 -14459497.505 3
  23898490.047    14986317.631 3  11677618.151 1
 91  4 23 23 22  0.0000000  0  5 13 02 15 06 19
  21871811.734   -11603090.335 6  -7938830.090 1
  20895555.641      215552.444 7    175482.687 3
  23719132.828    -2821487.166 5   -438932.674 1
  20723240.742   -20403474.600 7 -14472502.639 3
  23906549.492    15028651.799 3  11710605.673 1
 91  4 23 23 22 15.0000000  0  5 13 02 15 06 19
  21862545.359   -11651765.721 6  -7976758.812 1
  20896771.961      221942.730 7    180462.139 3
  23718475.289    -2824891.134 5   -441585.086 1
  20720080.344   -20420086.836 7 -14485447.222 3
  23914616.438    15071036.941 3  11743632.938 1
 91  4 23 23 22 30.0000000  0  5 13 02 15 06 19
  21853303.961   -11700338.192 6  -8014607.371 1
  20897996.172      228379.843 7    185478.078 3
  23717861.531    -2828159.413 5   -444131.754 1
  20716933.609   -20436618.563 7 -14498329.069 3
  23922692.133    15113475.319 3  11776701.663 1
 91  4 23 23 22 45.0000000  0  5 13 02 15 06 19
  21844078.539   -11748808.339 6  -8052376.177 1
  20899230.883      234863.070 7    190529.948 3
  23717260.719    -2831292.850 5   -446573.337 1
  20713802.391   -20453070.397 7 -14511148.657 3
  23930772.820    15155966.115 3  11809811.196 1
 91  4 23 23 23  0.0000000  0  5 13 02 15 06 19
  21834874.680   -11797176.544 6  -8090065.541 1
  20900473.383      241391.747 8    195617.237 3
  23716691.211    -2834291.738 5   -448910.110 1
  20710687.797   -20469442.669 7 -14523906.249 3
  23938866.086    15198508.492 3  11842961.002 1
 91  4 23 23 23 15.0000000  0  5 13 02 15 06 19
  21825691.570   -11845442.755 6  -8127675.446 1
  20901723.914      247965.698 8    200739.795 3
  23716146.227    -2837156.103 5   -451142.026 1
  20707586.438   -20485735.402 7 -14536601.867 3
  23946984.672    15241102.113 4  11876150.699 1
 91  4 23 23 23 30.0000000  0  5 13 02 15 06 19
  21816526.648   -11893606.614 6  -8165205.590 1
  20902982.250      254584.741 8    205897.492 3
  23715627.617    -2839886.149 5   -453269.300 1
  20704501.961   -20501948.374 7 -14549235.334 3
  23955094.648    15283746.684 4  11909380.077 1
 91  4 23 23 23 45.0000000  0  5 13 02 15 06 19
  21807376.867   -11941670.470 6  -8202657.807 1
  20904252.211      261246.288 8    211088.305 3
  23715130.430    -2842484.382 5   -455293.839 1
  20701432.586   -20518083.918 7 -14561808.473 3
  23963211.586    15326439.603 4  11942647.161 1
 91  4 23 23 24  0.0000000  0  5 13 02 15 06 19
  21798253.516   -11989631.134 6  -8240029.615 1
  20905528.805      267953.275 8    216314.534 3
  23714660.391    -2844947.712 5   -457213.295 1
  20698376.063   -20534138.884 7 -14574318.825 3
  23971351.711    15369183.524 3  11975953.928 1
 91  4 23 23 24 15.0000000  0  5 13 02 15 06 19
  21789145.609   -12037488.039 6  -8277320.582 1
  20906814.641      274705.791 8    221576.239 3
  23714222.867    -2847275.600 5   -459027.221 1
  20695335.227   -20550112.822 7 -14586766.026 3
  23979495.508    15411978.550 4  12009300.591 1
 91  4 23 23 24 30.0000000  0  5 13 02 15 06 19
  21780057.563   -12085244.948 6  -8314533.617 1
  20908106.070      281499.662 8    226870.172 3
  23713801.930    -2849472.451 3   -460739.007 1
  20692313.664   -20566009.604 7 -14599153.105 3
  23987657.141    15454820.593 5  12042683.871 1
 91  4 23 23 24 45.0000000  0  5 13 02 15 06 19
  21770990.773   -12132900.676 6  -8351667.814 1
  20909405.898      288335.777 7    232197.025 4
  23713407.719    -2851537.081 4   -462347.793 1
  20689302.289   -20581828.001 7 -14611479.097 3
  23995809.766    15497710.200 4  12076104.121 1
 91  4 23 23 25  0.0000000  0  5 13 02 15 06 19
  21761938.352   -12180455.746 6  -8388723.572 1
  20910715.328      295213.325 8    237556.160 4
  23713045.945    -2853470.420 5   -463854.258 1
  20686306.430   -20597568.738 7 -14623744.585 3
  24003970.703    15540646.528 3  12109560.887 1
 91  4 23 23 25 15.0000000  0  5 13 02 15 06 19
  21752907.242   -12227907.362 6  -8425698.730 1
  20912032.531      302134.682 8    242949.435 4
  23712697.406    -2855269.531 5   -465256.109 1
  20683327.008   -20613228.799 7 -14635947.201 3
  24012163.102    15583632.161 4  12143056.065 1
 91  4 23 23 25 30.0000000  0  5 13 02 15 06 19
  21743897.211   -12275254.565 6  -8462592.520 1
  20913357.953      309100.783 8    248377.575 4
  23712381.555    -2856933.853 5   -466552.943 1
  20680361.898   -20628807.280 7 -14648086.251 3
  24020355.539    15626667.639 4  12176590.023 1
 91  4 23 23 25 45.0000000  0  5 13 02 15 06 19
  21734907.047   -12322500.022 6  -8499407.026 1
  20914693.039      316108.047 8    253837.786 4
  23712085.359    -2858466.451 5   -467747.140 1
  20677411.656   -20644307.277 7 -14660164.148 3
  24028547.953    15669749.309 4  12210160.042 1
 91  4 23 23 26  0.0000000  0  5 13 02 15 06 19
  21725937.289   -12369640.810 6  -8536139.980 1
  20916031.063      323159.245 8    259332.226 4
  23711821.422    -2859864.573 5   -468836.561 1
  20674478.578   -20659725.723 7 -14672178.500 3
  24036750.516    15712879.866 3  12243768.120 1
 91  4 23 23 26 15.0000000  0  5 13 02 15 06 19
  21716986.820   -12416682.175 6  -8572795.448 1
  20917383.828      330249.022 8    264856.730 3
  23711585.711    -2861133.207 5   -469825.091 1
  20671559.586   -20675067.709 7 -14684133.278 2
  24044966.305    15756053.868 3  12277410.050 1
 91  4 23 23 26 30.0000000  0  5 13 02 15 06 19
  21708053.820   -12463620.037 6  -8609370.281 1
  20918739.617      337381.141 7    270414.223 3
  23711368.805    -2862268.830 5   -470709.962 1
  20668656.164   -20690329.356 7 -14696025.454 3
  24053197.039    15799274.810 4  12311088.521 1
 91  4 23 23 26 45.0000000  0  5 13 02 15 06 19
  21699140.453   -12510455.072 6  -8645864.969 1
  20920104.156      344554.441 7    276003.801 3
  23711181.633    -2863272.403 5   -471491.923 1
  20665766.086   -20705511.492 7 -14707855.662 3
  24061435.891    15842541.597 4  12344802.787 1
 91  4 23 23 27  0.0000000  0  5 13 02 15 06 19
  21690248.117   -12557188.739 6  -8682280.672 1
  20921476.133      351767.194 7    281624.138 3
  23711010.375    -2864145.622 5   -472172.304 1
  20662890.406   -20720615.416 7 -14719624.926 3
  24069673.297    15885852.471 3  12378551.374 1
 91  4 23 23 27 15.0000000  0  5 13 02 15 06 19
  21681376.844   -12603818.327 6  -8718615.303 1
  20922857.023      359021.587 7    287276.914 3
  23710868.211    -2864885.957 5   -472749.134 1
  20660032.188   -20735638.620 7 -14731331.296 3
  24077910.352    15929209.480 3  12412335.909 1
 91  4 23 23 27 30.0000000  0  5 13 02 15 06 19
  21672521.828   -12650344.328 6  -8754869.203 1
  20924244.266      366316.845 7    292961.535 3
  23710760.773    -2865494.070 5   -473222.940 1
  20657188.438   -20750581.585 7 -14742975.137 3
  24086179.602    15972611.824 4  12446155.788 1
 91  4 23 23 27 45.0000000  0  5 13 02 15 06 19
  21663689.469   -12696765.000 7  -8791041.017 1
  20925642.156      373654.366 7    298679.090 3
  23710664.438    -2865968.403 5   -473592.516 1
  20654360.508   -20765442.673 7 -14754555.176 3
  24094445.328    16016060.921 4  12480012.052 1
 91  4 23 23 28  0.0000000  0  5 13 02 15 06 19
  21654873.719   -12743079.329 6  -8827129.980 1
  20927046.828      381034.844 7    304430.119 3
  23710601.445    -2866308.058 5   -473857.149 1
  20651549.422   -20780220.858 7 -14766070.617 3
  24102714.602    16059557.217 3  12513905.053 1
 91  4 23 23 28 15.0000000  0  5 13 02 15 06 19
  21646079.297   -12789290.009 6  -8863138.175 1
  20928458.461      388455.267 8    310212.270 3
  23710557.352    -2866516.261 5
  20648752.344   -20794918.990 7 -14777523.681 2
  24111001.570    16103097.331 3  12547832.333 1
 91  4 23 23 28 30.0000000  0  5 13 02 15 06 19
  21637304.633   -12835396.278 6  -8899065.017 1
  20929878.250      395916.137 8    316025.939 3
  23710544.773    -2866592.430 5
  20645968.906   -20809536.107 7 -14788913.626 2
  24119309.031    16146681.985 4  12581794.245 1
 91  4 23 23 28 45.0000000  0  5 13 02 15 06 19
  21628555.945   -12881395.627 6  -8934908.530 1
  20931305.711      403419.589 8    321872.785 3
  23710552.094    -2866534.038 5
  20643204.820   -20824069.976 7 -14800238.699 2
  24127611.930    16190313.163 4  12615792.392 1
 91  4 23 23 29  0.0000000  0  5 13 02 15 06 19
  21619820.203   -12927287.130 6  -8970668.023 1
  20932741.500      410966.206 8    327753.267 4
  23710593.492    -2866340.565 5
  20640453.336   -20838519.570 7 -14811498.103 2
  24135922.273    16233991.420 3  12649827.222 1
 91  4 23 23 29 15.0000000  0  5 13 02 15 06 19
  21611107.438   -12973071.412 6  -9006343.966 1
  20934185.688      418555.058 8    333666.662 4
  23710660.102    -2866012.857 5
  20637719.109   -20852885.606 7 -14822692.395 2
  24144225.539    16277715.579 3  12683897.858 1
 91  4 23 23 29 30.0000000  0  5 13 02 15 06 19
  21602414.141   -13018750.124 6  -9041937.645 1
  20935637.273      426184.145 8    339611.404 3
  23710748.297    -2865552.756 5   -473268.412 1
  20635002.555   -20867169.834 7 -14833822.935 2
  24152577.133    16321483.468 4  12718002.591 1
 91  4 23 23 29 45.0000000  0  5 13 02 15 06 19
  21593742.781   -13064322.437 6  -9077448.445 1
  20937096.406      433854.217 8    345588.086 3
  23710852.859    -2864959.582 5   -472806.174 1
  20632301.305   -20881371.329 7 -14844889.011 2
  24160908.063    16365295.743 4  12752141.841 1
 91  4 23 23 30  0.0000000  0  5 13 02 15 06 19
  21585091.633   -13109788.892 6  -9112876.733 1
  20938563.125      441564.233 8    351595.901 3
  23710988.805    -2864234.105 5   -472240.834 1
  20629612.617   -20895490.638 7 -14855891.052 2
  24169258.344    16409151.306 4  12786314.844 1
 91  4 23 23 30 15.0000000  0  5 13 02 15 06 19
  21576459.047   -13155145.453 6  -9148219.396 1
  20940040.813      449317.894 8    357637.713 3
  23711154.508    -2863372.343 5   -471569.330 1
  20626942.016   -20909523.976 7 -14866826.102 2
  24177600.141    16453053.683 2  12820524.308 1
 91  4 23 23 30 30.0000000  0  5 13 02 15 06 19
  21567849.453   -13200390.289 6  -9183475.013 1
  20941525.719      457116.727 8    363714.722 3
  23711343.867    -2862373.094 5   -470790.688 1
  20624287.688   -20923469.377 7 -14877692.632 2
  24185968.703    16497004.319 3  12854771.456 1
 91  4 23 23 30 45.0000000  0  5 13 02 15 06 19
  21559259.352   -13245529.526 6  -9218648.338 1
  20943015.273      464954.330 8    369821.944 3
  23711562.211    -2861242.756 5   -469909.895 1
  20621650.305   -20937333.104 7 -14888495.515 2
  24194352.516    16540996.653 5  12889051.053 1
 91  4 23 23 31  0.0000000  0  5 13 02 15 06 19
  21550693.984   -13290562.048 6  -9253738.503 1
  20944513.969      472831.694 7    375960.145 3
  23711803.484    -2859980.107 5   -468925.996 1
  20619028.859   -20951113.941 7 -14899233.808 3
  24202728.086    16585031.362 4  12923363.576 1
 91  4 23 23 31 15.0000000  0  5 13 02 15 06 19
  21542142.180   -13335484.597 6  -9288742.982 1
  20946022.820      480751.476 7    382131.405 3
  23712070.375    -2858582.107 5   -467836.624 1
  20616421.422   -20964808.851 7 -14909905.148 2
  24211107.680    16629111.217 2
 91  4 23 23 31 30.0000000  0  4 13 02 15 06
  21533614.094   -13380299.423 6  -9323663.516 1
  20947537.227      488711.307 8    388333.865 3
  23712362.594    -2857051.265 5   -466643.743 1
  20613831.898   -20978419.772 7 -14920511.043 2
 91  4 23 23 31 45.0000000  0  5 13 02 15 06 19
  21525106.430   -13425004.286 7  -9358498.366 1
  20949060.453      496712.952 7    394568.918 3
  23712670.563    -2855385.946 5   -465346.089 1
  20611258.422   -20991944.891 7 -14931050.086 2
  24227920.336          -0.07514
 91  4 23 23 32  0.0000000  0  5 13 02 15 06 19
  21516622.977   -13469600.915 7  -9393248.881 1
  20950589.180      504753.993 8    400834.665 3
  23713022.688    -2853588.100 5   -463945.150 1
  20608701.555   -21005385.948 7 -14941523.617 2
  24236338.266       44209.065 5
 91  4 23 23 32 15.0000000  0  5 13 02 15 06 19
  21508153.234   -13514086.835 6  -9427913.123 1
  20952128.383      512836.862 8    407133.008 3
  23713379.688    -2851655.266 5   -462439.008 1
  20606159.367   -21018740.486 7 -14951929.737 2
  24244749.188       88462.386 3
 91  4 23 23 32 30.0000000  0  4 13 02 15 06
  21499709.500   -13558464.414 6  -9462492.954 1
  20953671.273      520959.248 8    413462.148 3
  23713772.945    -2849589.718 5   -460829.478 1
  20603634.289   -21032010.562 7 -14962270.043 2
 91  4 23 23 32 45.0000000  0  4 13 02 15 06
  21491287.078   -13602731.148 6  -9496986.402 1
  20955226.523      529123.204 8    419823.677 3
  23714192.031    -2847389.285 5   -459114.842 1
  20601125.055   -21045193.790 7 -14972542.681 3
 91  4 23 23 33  0.0000000  0  4 13 02 15 06
  21482881.625   -13646887.331 6  -9531393.730 1
  20956788.336      537328.098 8    426217.108 3
  23714643.195    -2845054.879 5   -457295.796 1
  20598633.641   -21058290.633 7 -14982748.002 3
 91  4 23 23 33 15.0000000  0  4 13 02 15 06
  21474502.711   -13690931.059 6  -9565713.400 1
  20958357.453      545575.571 8    432643.713 3
  23715113.133    -2842584.711 5   -455370.974 1
  20596157.508   -21071299.150 7 -14992884.494 2
 91  4 23 23 33 30.0000000  0  4 13 02 15 06
  21466139.891   -13734863.814 6  -9599946.610 1
  20959934.680      553863.824 8    439102.094 3
  23715610.047    -2839980.277 5   -453341.493 1
  20593698.422   -21084220.848 7 -15002953.325 2
 91  4 23 23 33 45.0000000  0  4 13 02 15 06
  21457801.375   -13778684.902 6  -9634092.820 1
  20961518.938      562193.299 8    445592.589 3
  23716120.617    -2837240.799 5   -451206.825 1
  20591256.531   -21097054.926 7 -15012953.883 3
 91  4 23 23 34  0.0000000  0  4 13 02 15 06
  21449485.539   -13822393.766 6  -9668151.575 1
  20963112.070      570564.230 8    452115.387 3
  23716683.984    -2834366.248 5   -448966.893 1
  20588832.555   -21109800.917 7 -15022885.806 2
 91  4 23 23 34 15.0000000  0  4 13 02 15 06
  21441187.891   -13865991.484 7  -9702123.722 1
  20964713.852      578975.210 8    458669.390 3
  23717246.813    -2831358.181 5   -446622.890 1
  20586421.648   -21122460.067 7 -15032750.065 2
 91  4 23 23 34 30.0000000  0  4 13 02 15 06
  21432914.102   -13909476.656 7  -9736008.157 1
  20966321.469      587427.401 7    465255.506 3
  23717852.289    -2828215.406 5   -444173.953 1
  20584029.531   -21135030.869 7 -15042545.486 2
 91  4 23 23 34 45.0000000  0  4 13 02 15 06
  21424660.773   -13952848.293 7  -9769804.151 1
  20967938.758      595921.427 7    471874.225 3
  23718463.922    -2824937.136 5   -441619.451 1
  20581654.844   -21147512.425 7 -15052271.366 2
 91  4 23 23 35  0.0000000  0  4 13 02 15 06
  21416429.023   -13996105.321 7  -9803510.817 1
  20969562.289      604458.023 7    478526.115 3
  23719120.508    -2821522.302 5   -438958.514 1
  20579296.531   -21159903.725 7 -15061926.914 2
 91  4 23 23 35 15.0000000  0  4 13 02 15 06
  21408219.273   -14039247.373 7  -9837127.918 1
  20971194.570      613037.245 7    485211.220 3
  23719790.883    -2817970.760 5   -436191.065 1
  20576956.430   -21172204.376 7 -15071511.831 2
 91  4 23 23 35 30.0000000  0  4 13 02 15 06
  21400031.297   -14082275.321 7  -9870656.087 1
  20972834.914      621657.988 8    491928.688 3
  23720502.695    -2814283.738 5   -433318.043 1
  20574630.922   -21184415.165 7 -15081026.715 3
 91  4 23 23 35 45.0000000  0  4 13 02 15 06
  21391865.945   -14125188.819 7  -9904095.082 1
  20974483.937      630320.300 8    498678.543 3
  23721224.891    -2810461.223 5   -430339.441 1
  20572324.484   -21196535.901 7 -15090471.417 3
 91  4 23 23 36  0.0000000  0  4 13 02 15 06
  21383719.000   -14167991.261 7  -9937447.532 1
  20976138.945      639020.656 7    505458.042 3
  23721971.352    -2806506.803 5   -427258.050 1
  20570032.695   -21208569.995 7 -15099848.609 2
 91  4 23 23 36 15.0000000  0  4 13 02 15 06
  21375596.602   -14210678.589 6  -9970710.292 1
  20977803.484      647762.540 7    512269.896 3
  23722759.539    -2802416.839 5   -424071.049 1
  20567761.781   -21220513.425 7 -15109155.154 2
 91  4 23 23 36 30.0000000  0  4 13 02 15 06
  21367493.438   -14253250.678 6 -10003883.246 1
  20979474.695      656545.800 8    519113.996 3
  23723562.391    -2798191.455 5   -420778.515 1
  20565505.391   -21232366.114 7 -15118391.003 3
 91  4 23 23 36 45.0000000  0  4 13 02 15 06
  21359416.391   -14295707.628 6 -10036966.494 1
  20981153.852      665370.120 7    525990.085 3
  23724394.102    -2793830.720 5   -417380.538 1
  20563268.023   -21244128.014 7 -15127556.115 2
 91  4 23 23 37  0.0000000  0  4 13 02 15 06
  21351359.211   -14338047.719 6 -10069958.669 1
  20982838.555      674236.949 8    532899.301 4
  23725251.867    -2789333.384 5   -413876.081 1
  20561046.438   -21255797.542 7 -15136649.249 2
 91  4 23 23 37 15.0000000  0  4 13 02 15 06
  21343322.586   -14380274.831 6 -10102862.824 1
  20984534.273      683142.287 8    539838.525 3
  23726133.516    -2784703.507 5   -410268.371 1
  20558841.773   -21267378.691 7 -15145673.502 2
 91  4 23 23 37 30.0000000  0  4 13 02 15 06
  21335311.547   -14422383.236 7 -10135674.460 1
  20986239.164      692091.557 8    546811.981 4
  23727039.219    -2779935.542 5   -406553.049 1
  20556657.445   -21278865.607 7 -15154624.336 2
 91  4 23 23 37 45.0000000  0  4 13 02 15 06
  21327317.234   -14464377.352 6 -10168397.064 1
  20987949.273      701080.143 8    553816.069 3
  23727965.070    -2775033.874 5   -402733.568 1
  20554489.570   -21290262.581 7 -15163505.073 2
 91  4 23 23 38  0.0000000  0  4 13 02 15 06
  21319349.945   -14506249.686 7 -10201024.770 1
  20989667.836      710115.210 8    560856.377 4
  23728926.328    -2769991.408 5   -398804.370 1
  20552338.109   -21301562.171 7 -15172309.933 2
 91  4 23 23 38 15.0000000  0  4 13 02 15 06
  21311405.406   -14548008.270 6 -10233563.830 1
  20991394.484      719188.206 8    567926.246 4
  23729906.281    -2764816.643 5   -394772.096 1
  20550204.977   -21312772.602 7 -15181045.317 2
 91  4 23 23 38 30.0000000  0  4 13 02 15 06
  21303478.438   -14589647.736 6 -10266010.077 1
  20993130.617      728304.207 8    575029.621 4
  23730928.477    -2759504.514 5   -390632.766 1
  20548090.664   -21323888.577 7 -15189707.101 2
 91  4 23 23 38 45.0000000  0  4 13 02 15 06
  21295578.313   -14631171.707 6 -10298366.333 1
  20994871.898      737459.621 8    582163.705 3
  23731961.734    -2754058.684 5   -386389.261 1
  20545992.242   -21334913.543 7 -15198297.967 2
 91  4 23 23 39  0.0000000  0  4 13 02 15 06
  21287700.102   -14672575.908 6 -10330629.250 1
  20996622.484      746658.384 8    589331.574 3
  23733019.680    -2748475.185 5   -382038.488 1
  20543914.531   -21345843.260 7 -15206814.612 2
 91  4 23 23 39 15.0000000  0  4 13 02 15 06
  21279843.750   -14713863.775 6 -10362801.534 1
  20998380.266      755896.501 7    596530.115 3
  23734115.875    -2742757.613 5   -377583.242 1
  20541850.797   -21356681.265 7 -15215259.796 2
 91  4 23 23 39 30.0000000  0  4 13 02 15 06
  21272010.156   -14755032.375 6 -10394880.877 1
  21000145.984      765176.814 7    603761.524 3
  23735222.203    -2736903.512 5   -373021.595 1
  20539807.523   -21367424.599 7 -15223631.209 2
 91  4 23 23 39 45.0000000  0  4 13 02 15 06
  21264196.672   -14796084.404 7 -10426869.394 1
  21001919.438      774496.409 7    611023.550 3
  23736367.484    -2730915.660 5   -368355.705 1
  20537780.203   -21378076.003 7 -15231930.992 2
 91  4 23 23 40  0.0000000  0  4 13 02 15 06
  21256406.141   -14837019.825 7 -10458767.025 1
  21003702.078      783855.086 7    618316.021 3
  23737524.609    -2724794.296 5   -363585.813 1
  20535767.531   -21388635.390 7 -15240159.064 2
 91  4 23 23 40 15.0000000  0  4 13 02 15 06
  21248640.875   -14877836.965 7 -10490572.497 1
  21005489.547      793254.225 7    625640.024 3
  23738717.555    -2718537.798 5   -358710.635 1
  20533779.484   -21399100.963 7 -15248314.040 2
 91  4 23 23 40 30.0000000  0  4 13 02 15 06
  21240893.695   -14918533.027 6 -10522283.644 1
  21007286.102      802696.476 7    632997.613 3
  23739936.492    -2712143.839 5   -353728.298 1
  20531804.594   -21409469.984 7 -15256393.782 2
 91  4 23 23 40 45.0000000  0  4 13 02 15 06
  21233172.664   -14959106.306 7 -10553899.099 1
  21009091.336      812183.247 7    640389.902 3
  23741178.180    -2705610.810 5   -348637.577 1
  20529852.008   -21419740.644 7 -15264396.870 3
 91  4 23 23 41  0.0000000  0  4 13 02 15 06
  21225477.430   -14999561.900 7 -10585422.868 1
  21010903.680      821709.044 8    647812.601 3
  23742448.867    -2698943.994 5   -343442.627 1
  20527916.203   -21429918.197 7 -15272327.421 2
 91  4 23 23 41 15.0000000  0  4 13 02 15 06
  21217800.703   -15039897.685 6 -10616853.274 1
  21012725.766      831275.777 8    655267.198 3
  23743745.797    -2692141.574 5   -338142.034 1
  20525998.594   -21440000.557 7 -15280183.783 3
 91  4 23 23 41 30.0000000  0  4 13 02 15 06
  21210148.313   -15080111.672 6 -10648188.759 1
  21014552.922      840885.158 8    662755.027 3
  23745062.336    -2685201.917 5   -332734.529 1
  20524095.516   -21449985.759 7 -15287964.436 2
 91  4 23 23 41 45.0000000  0  4 13 02 15 06
  21202518.250   -15120206.785 7 -10679431.630 1
  21016388.922      850534.288 8    670273.837 3
  23746408.148    -2678128.137 5   -327222.495 1
  20522214.695   -21459876.447 7 -15295671.448 2
 91  4 23 23 42  0.0000000  0  4 13 02 15 06
  21194911.438   -15160180.844 7 -10710580.154 1
  21018234.008      860224.950 8    677824.995 3
  23747781.211    -2670918.411 5   -321604.497 1
  20520350.055   -21469670.740 7 -15303303.343 2
 91  4 23 23 42 15.0000000  0  4 13 02 15 06
  21187327.453   -15200031.741 6 -10741632.732 1
  21020087.898      869959.032 8    685410.003 4
  23749185.789    -2663570.626 5   -315878.945 1
  20518504.250   -21479366.320 7 -15310858.318 2
 91  4 23 23 42 30.0000000  0  4 13 02 15 06
  21179767.945   -15239763.879 6 -10772592.751 1
  21021944.773      879731.646 8    693025.026 4
  23750606.422    -2656089.728 5   -310049.670 1
  20516679.148   -21488967.758 7 -15318339.946 2
 91  4 23 23 42 45.0000000  0  4 13 02 15 06
  21172230.172   -15279372.842 6 -10803456.816 1
  21023813.531      889547.184 8    700673.499 3
  23752049.867    -2648471.508 5   -304113.373 1
  20514867.984   -21498470.539 7 -15325744.702 2
 91  4 23 23 43  0.0000000  0  4 13 02 15 06
  21164714.289   -15318862.008 7 -10834227.509 1
  21025686.438      899401.881 7    708352.490 3
  23753530.922    -2640719.399 5   -298072.780 1
  20513079.375   -21507878.146 7 -15333075.289 2
 91  4 23 23 43 15.0000000  0  4 13 02 15 06
  21157224.555   -15358226.602 6 -10864901.152 1
  21027572.383      909300.363 7    716065.593 3
  23755026.898    -2632828.789 5   -291924.241 1
  20511307.133   -21517185.709 7 -15340327.922 2
 91  4 23 23 43 30.0000000  0  4 13 02 15 06
  21149753.258   -15397468.759 7 -10895479.374 1
  21029463.555      919240.459 7    723811.132 3
  23756551.805    -2624802.177 5   -285669.724 1
  20509555.727   -21526395.115 7 -15347504.062 3
 91  4 23 23 43 45.0000000  0  4 13 02 15 06
  21142314.039   -15436585.980 7 -10925960.240 1
  21031364.953      929224.165 8    731590.644 3
  23758105.594    -2616637.282 5   -279307.441 1
  20507821.414   -21535504.059 7 -15354601.911 3
 91  4 23 23 44  0.0000000  0  4 13 02 15 06
  21134894.203   -15475579.028 7 -10956344.355 1
  21033272.203      939250.345 8    739403.251 3
  23759687.492    -2608335.167 5   -272838.244 1
  20506106.602   -21544513.397 7 -15361622.151 2
 91  4 23 23 44 15.0000000  0  4 13 02 15 06
  21127496.141   -15514448.056 7 -10986631.831 1
  21035187.063      949318.680 8    747248.696 3
  23761293.695    -2599896.281 4   -266262.464 1
  20504412.875   -21553423.300 7 -15368564.914 2
 91  4 23 23 44 30.0000000  0  4 13 02 15 06
  21120121.016   -15553191.443 7 -11016821.407 1
  21037111.484      959430.604 8    755128.109 3
  23762932.469    -2591319.580 4   -259579.314 1
  20502736.664   -21562232.091 7 -15375428.905 2
 91  4 23 23 44 45.0000000  0  4 13 02 15 06
  21112774.766   -15591811.742 7 -11046915.084 1
  21039045.711      969583.501 8    763039.449 3
  23764584.172    -2582607.630 5   -252790.772 1
  20501077.422   -21570942.240 7 -15382216.035 2
 91  4 23 23 45  0.0000000  0  4 13 02 15 06
  21105449.359   -15630305.399 7 -11076910.066 1
  21040984.875      979780.506 8    770985.160 3
  23766272.492    -2573757.075 5   -245894.216 1
  20499439.820   -21579550.266 7 -15388923.584 2
 91  4 23 23 45 15.0000000  0  4 13 02 15 06
  21098149.156   -15668674.303 7 -11106807.841 1
  21042931.664      990019.373 8    778963.496 3
  23767977.078    -2564769.993 5   -238891.281 1
  20497820.844   -21588058.066 7 -15395553.028 2
 91  4 23 23 45 30.0000000  0  4 13 02 15 06
  21090869.531   -15706918.180 7 -11136608.193 1
  21044888.352     1000300.294 8    786974.604 3
  23769712.742    -2555646.502 5   -231782.044 1
  20496220.914   -21596465.513 7 -15402104.273 2
 91  4 23 23 45 45.0000000  0  4 13 02 15 06
  21083615.102   -15745034.546 7 -11166309.187 1
  21046854.508     1010625.672 8    795020.362 3
  23771479.508    -2546384.187 5   -224564.635 1
  20494639.297   -21604769.867 7 -15408575.174 3
 91  4 23 23 46  0.0000000  0  4 13 02 15 06
  21076387.938   -15783023.137 7 -11195910.621 1
  21048825.070     1020995.445 8    803100.712 3
  23773259.750    -2536982.793 5   -217238.867 1
  20493078.664   -21612970.873 7 -15414965.547 2
 91  4 23 23 46 15.0000000  0  4 13 02 15 06
  21069183.789   -15820882.962 7 -11225411.711 1
  21050808.875     1031410.183 7    811216.105 3
  23775089.555    -2527442.120 5   -209804.566 1
  20491540.016   -21621067.523 7 -15421274.613 2
 91  4 23 23 46 30.0000000  0  4 13 02 15 06
  21062001.586   -15858614.576 7 -11254812.897 1
  21052800.453     1041869.240 7    819366.026 3
  23776919.430    -2517762.761 5   -202262.185 1
  20490020.195   -21629060.305 7 -15427502.755 2
 91  4 23 23 46 45.0000000  0  4 13 02 15 06
  21054847.359   -15896217.685 7 -11284113.953 1
  21054798.453     1052372.862 7    827550.671 3
  23778794.453    -2507944.428 5   -194611.535 1
  20488519.297   -21636948.825 7 -15433649.649 2
 91  4 23 23 47  0.0000000  0  4 13 02 15 06
  21047714.805   -15933694.306 7 -11313316.438 1
  21056803.500     1062918.718 7    835768.220 3
  23780684.320    -2497989.687 5   -186854.565 1
  20487037.609   -21644735.391 7 -15439717.095 2
 91  4 23 23 47 15.0000000  0  4 13 02 15 06
  21040607.688   -15971041.699 7 -11342418.220 1
  21058819.805     1073509.118 8    844020.477 3
  23782605.992    -2487896.190 5   -178989.505 1
  20485574.086   -21652417.191 7 -15445702.909 2
 91  4 23 23 47 30.0000000  0  4 13 02 15 06
  21033524.375   -16008258.680 6 -11371418.378 1
  21060844.961     1084144.964 8    852308.141 3
  23784554.805    -2477663.264 5   -171015.756 1
  20484133.813   -21659993.181 7 -15451606.277 2
 91  4 23 23 47 45.0000000  0  4 13 02 15 06
  21026466.875   -16045346.721 6 -11400318.082 1
  21062877.914     1094824.827 8    860630.103 3
  23786526.891    -2467292.146 5   -162934.399 1
  20482710.172   -21667464.544 7 -15457428.116 2
 91  4 23 23 48  0.0000000  0  4 13 02 15 06
  21019436.211   -16082305.576 7 -11429117.111 1
  21064916.195     1105548.874 7    868986.502 2
  23788529.133    -2456782.732 5   -154745.225 1
  20481309.086   -21674830.906 7 -15463168.125 2
 91  4 23 23 48 15.0000000  0  4 13 02 15 06
  21012426.906   -16119136.021 7 -11457816.087 1
  21066964.133     1116316.080 7
  23790559.766    -2446135.978 5
  20479929.367   -21682092.907 7 -15468826.807 2
 91  4 23 23 48 29.9990000  0  4 13 02 15 06
  21005441.573   -16155836.654 7 -11486413.901 1
  21069022.831     1127124.186 7
  23792606.362    -2435354.158 5
  20478564.362   -21689251.377 7 -15474404.832 2
 91  4 23 23 48 44.9990000  0  4 13 02 15 06
  20998481.784   -16192408.111 7 -11514911.071 1
  21071086.479     1137978.888 7    894256.639 3
  23794683.511    -2424431.842 5
  20477221.198   -21696302.996 7 -15479899.592 2
 91  4 23 23 48 59.9990000  0  4 13 02 15 06
  20991548.120   -16228849.943 7 -11543307.230 1
  21073162.144     1148877.329 7    902748.929 3
  23796784.933    -2413371.918 5
  20475901.690   -21703249.116 7 -15485312.150 2
 91  4 23 23 49 14.9990000  0  4 13 02 15 06
  20984639.331   -16265163.197 7 -11571603.194 1
  21075243.323     1159817.957 7    911274.089 3
  23798923.073    -2402176.045 5
  20474598.472   -21710091.051 7 -15490643.512 2
 91  4 23 23 49 29.9990000  0  4 13 02 15 06
  20977752.222   -16301346.405 7 -11599797.827 1
  21077332.979     1170802.172 7    919833.211 3
  23801076.690    -2390842.731 5        -0.41411
  20473316.972   -21716827.040 7 -15495892.319 2
 91  4 23 23 49 44.9990000  0  4 13 02 15 06
  20970894.417   -16337399.169 7 -11627890.825 1
  21079433.526     1181830.351 7    928426.588 3
  23803258.323    -2379371.549 5      8938.223 1
  20472055.792   -21723456.744 7 -15501058.315 2
 91  4 23 23 49 59.9990000  0  4 13 02 15 06
  20964056.612   -16373322.597 7 -11655883.031 1
  21081538.362     1192901.383 7    937053.351 3
  23805472.519    -2367763.876 5     17983.115 1
  20470814.120   -21729980.886 7 -15506142.049 2
 91  4 23 23 50 14.9990000  0  4 13 02 15 06
  20957244.081   -16409116.976 7 -11683774.684 1
  21083653.519     1204014.454 7    945712.879 3
  23807699.565    -2356020.256 5     27133.998 1
  20469592.831   -21736400.154 7 -15511144.074 2
 91  4 23 23 50 29.9990000  0  4 13 02 15 06
  20950456.745   -16444778.517 7 -11711562.830 1
  21085779.417     1215173.190 7    954407.998 3
  23809961.050    -2344137.459 5     36393.296 1
  20468392.183   -21742710.550 7 -15516061.259 2
 91  4 23 23 50 44.9990000  0  4 13 02 15 06
  20943695.597   -16480311.530 7 -11739250.823 1
  21087907.933     1226372.949 7    963135.081 3
  23812254.136    -2332119.998 5     45757.569 1
  20467212.050   -21748916.462 7 -15520897.035 2
 91  4 23 23 50 59.9990000  0  4 13 02 15 06
  20936958.964   -16515714.231 7 -11766837.283 1
  21090045.894     1237615.461 7    971895.476 3
  23814561.425    -2319966.479 5     55227.816 1
  20466049.573   -21755016.011 7 -15525649.920 3
 91  4 23 23 51 14.9990000  0  4 13 02 15 06
  20930248.308   -16550983.962 7 -11794320.120 1
  21092195.995     1248902.960 7    980690.928 3
  23816896.675    -2307674.500 5     64805.974 1
  20464910.964   -21761006.695 7 -15530317.971 3
 91  4 23 23 51 29.9990000  0  4 13 02 15 06
  20923561.917   -16586124.506 7 -11821702.287 1
  21094353.401     1260231.350 8    989518.249 3
  23819276.448    -2295247.926 5     74489.009 1
  20463790.800   -21766892.204 7 -15534904.054 2
 91  4 23 23 51 44.9990000  0  4 13 02 15 06
  20916897.636   -16621136.990 6 -11848984.669 1
  21096515.706     1271599.640 8    998376.655 4
  23821655.737    -2282688.151 5     84275.842 1
  20462689.362   -21772673.544 7 -15539408.975 2
 91  4 23 23 51 59.9990000  0  4 13 02 15 06
  20910261.104   -16656017.457 7 -11876164.187 1
  21098686.636     1283011.841 8   1007269.276 4
  23824070.870    -2269991.472 5     94169.359 1
  20461610.058   -21778346.613 7 -15543829.539 2
 91  4 23 23 52 14.9990000  0  4 13 02 15 06
  20903649.120   -16690766.406 7 -11903241.219 1
  21100868.839     1294467.022 8   1016195.388 3
  23826517.526    -2257158.616 5    104168.979 1
  20460550.909   -21783912.116 7 -15548166.295 2
 91  4 23 23 52 29.9990000  0  4 13 02 15 06
  20897060.745   -16725383.280 7 -11930215.342 1
  21103056.065     1305965.470 7   1025155.212 3
  23828985.628    -2244189.562 5    114274.749 1
  20459513.862   -21789369.344 7 -15552418.673 2
 91  4 23 23 52 44.9990000  0  4 13 02 15 06
  20890498.112   -16759870.087 7 -11957088.111 1
  21105251.651     1317505.128 7   1034147.145 3
  23831476.440    -2231086.336 5    124485.055 1
  20458493.190   -21794720.265 7 -15556588.220 2
 91  4 23 23 52 59.9990000  0  4 13 02 15 06
  20883960.128   -16794224.243 7 -11983857.511 1
  21107456.620     1329088.268 7   1043172.970 3
  23833997.229    -2217846.686 5    134801.671 1
  20457495.706   -21799962.478 7 -15560673.065 2
 91  4 23 23 53 14.9990000  0  4 13 02 15 06
  20877448.292   -16828444.640 7 -12010522.684 1
  21109666.706     1340715.906 7   1052233.468 3
  23836544.308    -2204469.671 5    145225.308 1
  20456519.722   -21805094.651 7 -15564672.144 2
 91  4 23 23 53 29.9990000  0  4 13 02 15 06
  20870962.331   -16862532.058 7 -12037084.248 1
  21111887.604     1352386.960 7   1061327.791 2
  23839109.308    -2190956.494 5    155755.059 1
  20455562.394   -21810117.581 7 -15568586.102 2
 91  4 23 23 53 44.9990000  0  4 13 02 15 06
  20864499.089   -16896483.760 7 -12063540.050 1
  21114119.886     1364104.223 7   1070458.117 2
  23841708.886    -2177304.370 5    166393.087 1
  20454629.011   -21815028.375 7 -15572412.675 2
 91  4 23 23 53 59.9990000  0  4 13 02 15 06
  20858064.933   -16930301.267 7 -12089891.300 2
  21116356.487     1375866.025 7   1079623.145 2
  23844327.159    -2163515.293 5    177137.833 1
  20453718.362   -21819828.390 7 -15576152.935 3
 91  4 23 23 54 14.9990000  0  4 13 02 15 06
  20851654.628   -16963984.845 7 -12116138.184 2
  21118601.933     1387671.706 7   1088822.357 3
  23846991.214    -2149589.968 5    187988.739 1
  20452824.542   -21824518.108 7 -15579807.248 2
 91  4 23 23 54 29.9990000  0  4 13 02 15 06
  20845271.487   -16997536.191 7 -12142282.019 1
  21120857.347     1399519.566 7   1098054.445 3
  23849656.706    -2135530.004 5    198944.551 1
  20451949.628   -21829099.172 7 -15583376.899 2
 91  4 23 23 54 44.9990000  0  4 13 02 15 06
  20838912.378   -17030950.822 7 -12168319.330 2
  21123121.979     1411413.968 7   1107322.801 3
  23852373.753    -2121331.055 5    210008.668 1
  20451102.769   -21833566.859 7 -15586858.214 2
 91  4 23 23 54 59.9990000  0  4 13 02 15 06
  20832578.659   -17064235.317 7 -12194255.223 1
  21125392.714     1423348.302 7   1116622.274 3
  23855085.909    -2107000.033 5    221175.705 1
  20450269.354   -21837927.740 7 -15590256.296 2
 91  4 23 23 55 14.9990000  0  4 13 02 15 06
  20826268.175   -17097386.629 7 -12220087.349 1
  21127669.401     1435324.951 7   1125954.729 3
  23857848.151    -2092534.366 5    232447.650 1
  20449464.315   -21842178.980 7 -15593568.948 2
 91  4 23 23 55 29.9990000  0  4 13 02 15 06
  20819986.667   -17130405.586 7 -12245816.338 1
  21129960.073     1447343.110 7   1135319.531 3
  23860622.308    -2077935.378 5    243823.494 1
  20448675.401   -21846321.241 7 -15596796.673 2
 91  4 23 23 55 44.9990000  0  4 13 02 15 06
  20813730.394   -17163285.697 7 -12271437.139 1
  21132254.964     1459409.011 7   1144721.537 3
  23863425.909    -2063196.735 5    255308.178 1
  20447909.683   -21850348.288 7 -15599934.626 2
 91  4 23 23 55 59.9990000  0  4 13 02 15 06
  20807497.198   -17196035.402 7 -12296956.321 1
  21134556.972     1471514.165 7   1154154.130 3
  23866250.620    -2048326.968 5    266895.016 1
  20447163.269   -21854268.167 7 -15602989.067 2
 91  4 23 23 56 14.9990000  0  4 13 02 15 06
  20801292.972   -17228647.259 7 -12322368.089 1
  21136869.409     1483665.714 7   1163622.864 3
  23869113.104    -2033318.927 5    278589.611 1
  20446439.565   -21858073.477 7 -15605954.233 3
 91  4 23 23 56 29.9990000  0  4 13 02 15 06
  20795111.479   -17261123.532 7 -12347674.214 1
  21139191.964     1495861.487 7   1173126.062 3
  23871993.628    -2018175.041 5    290390.045 1
  20445737.948   -21861766.440 7 -15608831.854 2
 91  4 23 23 56 44.9990000  0  4 13 02 15 06
  20788958.097   -17293467.276 7 -12372877.061 1
  21141518.269     1508098.539 7   1182661.419 3
  23874902.089    -2002898.532 5    302293.814 1
  20445053.683   -21865349.763 7 -15611624.043 2
 91  4 23 23 56 59.9990000  0  4 13 02 15 06
  20782826.933   -17325677.088 7 -12397975.544 1
  21143856.511     1520377.578 8   1192229.486 3
  23877833.823    -1987488.357 5    314301.739 1
  20444392.534   -21868822.240 7 -15614329.862 2
 91  4 23 23 57 14.9990000  0  4 13 02 15 06
  20776724.104   -17357752.549 7 -12422969.347 1
  21146201.417     1532699.126 8   1201830.681 3
  23880788.854    -1971944.364 5    326413.937 1
  20443753.089   -21872183.316 7 -15616948.876 2
 91  4 23 23 57 29.9990000  0  4 13 02 15 06
  20770645.347   -17389691.446 7 -12447856.734 1
  21148554.644     1545065.394 8   1211466.722 3
  23883775.245    -1956264.495 5    338632.012 1
  20443133.698   -21875430.799 7 -15619479.371 2
 91  4 23 23 57 44.9990000  0  4 13 02 15 06
  20764593.558   -17421496.767 7 -12472640.040 1
  21150915.331     1557473.002 7   1221134.980 3
  23886783.745    -1940452.066 5    350953.403 1
  20442538.050   -21878567.713 7 -15621923.704 2
 91  4 23 23 57 59.9990000  0  4 13 02 15 06
  20758567.448   -17453166.568 7 -12497317.743 1
  21153286.597     1569923.893 7   1230836.956 3
  23889820.597    -1924505.611 5    363379.204 1
  20441963.175   -21881592.026 7 -15624280.305 2
 91  4 23 23 58 14.9990000  0  4 13 02 15 06
  20752564.300   -17484701.322 7 -12521890.204 1
  21155659.878     1582417.328 7   1240572.097 3
  23892873.409    -1908425.865 5    375908.894 1
  20441409.550   -21884504.262 7 -15626549.573 2
 91  4 23 23 58 29.9990000  0  4 13 02 15 06
  20746589.753   -17516098.463 7 -12546355.442 1
  21158049.011     1594955.608 7   1250342.186 3
  23895954.901    -1892210.459 5    388544.270 1
  20440877.003   -21887301.769 7 -15628729.441 2
 91  4 23 23 58 44.9990000  0  4 13 02 15 06
  20740642.534   -17547361.167 7 -12570715.931 1
  21160440.276     1607535.601 7   1260144.779 3
  23899075.831    -1875862.558 5    401282.880 1
  20440364.323   -21889987.625 7 -15630822.303 2
 91  4 23 23 58 59.9990000  0  4 13 02 15 06
  20734717.901   -17578487.760 7 -12594970.359 1
  21162845.323     1620158.741 7   1269980.992 3
  23902206.581    -1859380.922 5    414125.709 1
  20439874.995   -21892560.099 7 -15632826.820 2
 91  4 23 23 59 14.9990000  0  4 13 02 15 06
  20728820.683   -17609476.257 7 -12619117.182 1
  21165253.362     1632826.804 7   1279852.197 3
  23905381.784    -1842764.018 5    427073.930 1
  20439409.409   -21895017.328 7 -15634741.527 2
 91  4 23 23 59 29.9990000  0  4 13 02 15 06
  20722951.479   -17640325.758 7 -12643155.689 1
  21167674.214     1645540.663 7   1289759.088 3
  23908561.261    -1826010.973 5    440128.263 1
  20438960.870   -21897357.986 7 -15636565.412 2
 91  4 23 23 59 44.9990000  0  4 13 02 15 06
  20717106.292   -17671041.183 7 -12667089.723 1
  21170103.370     1658295.314 7   1299697.769 3
  23911776.144    -1809126.821 5    453284.747 1
  20438538.292   -21899587.129 7 -15638302.400 2
 91  4 23 23 59 59.9990000  0  4 13 02 15 06
  20711285.308   -17701619.653 7 -12690917.042 1
  21172536.503     1671093.521 7   1309670.396 3
  23915020.190    -1792108.997 5    466545.411 1
  20438137.190   -21901701.761 7 -15639950.166 2
 91  4 24  0  0 14.9990000  0  4 13 02 15 06
  20705493.839   -17732062.356 7 -12714638.564 1
  21174980.753     1683933.962 7   1319675.909 3
  23918276.354    -1774959.250 5    479908.842 1
  20437755.808   -21903703.036 7 -15641509.610 2
 91  4 24  0  0 29.9990000  0  4 13 02 15 06
  20699727.308   -17762373.217 7 -12738257.339 1
  21177429.144     1696812.474 7   1329711.105 3
  23921566.065    -1757681.669 5    493371.894 1
  20437397.190   -21905595.055 7 -15642983.903 2
 91  4 24  0  0 44.9990000  0  4 13 02 15 06
  20693984.214   -17792543.372 7 -12761766.485 1
  21179889.175     1709737.663 7   1339782.672 3
  23924875.175    -1740267.594 5    506941.286 1
  20437057.784   -21907368.741 7 -15644366.002 2
 91  4 24  0  0 59.9990000  0  4 13 02 15 06
  20688268.597   -17822573.966 7 -12785166.886 1
  21182360.886     1722708.565 7   1349889.855 3
  23928219.003    -1722718.295 5    520616.073 1
  20436742.644   -21909025.071 7 -15645656.645 2
 91  4 24  0  1 14.9990000  0  4 13 02 15 06
  20682581.995   -17852463.852 7 -12808457.652 1
  21184835.878     1735726.167 7   1360033.444 3
  23931581.753    -1705032.964 5    534396.856 1
  20436448.573   -21910562.927 7 -15646854.961 3
 91  4 24  0  1 29.9990000  0  4 13 02 15 06
  20676921.909   -17882217.566 7 -12831642.301 1
  21187319.940     1748785.776 7   1370209.757 3
  23934968.995    -1687216.483 5    548279.835 1
  20436178.331   -21911986.724 7 -15647964.400 3
 91  4 24  0  1 44.9990000  0  4 13 02 15 06
  20671284.948   -17911834.797 7 -12854720.599 1
  21189814.011     1761887.625 7   1380418.991 3
  23938383.651    -1669268.933 5    562264.942 1
  20435930.058   -21913296.271 7 -15648984.832 2
 91  4 24  0  1 59.9990000  0  4 13 02 15 06
  20665677.729   -17941312.318 7 -12877690.028 1
  21192316.487     1775034.541 7   1390663.331 3
  23941825.909    -1651187.085 5    576354.706 1
  20435703.136   -21914488.186 7 -15649913.606 2
 91  4 24  0  2 14.9990000  0  4 13 02 15 06
  20660092.987   -17970651.499 7 -12900551.655 1
  21194827.386     1788225.377 7   1400941.891 3
  23945293.917    -1632972.302 5    590548.023 1
  20435499.081   -21915563.730 7 -15650751.700 3
 91  4 24  0  2 29.9990000  0  4 13 02 15 06
  20654534.792   -17999852.660 7 -12923305.737 1
  21197343.761     1801459.603 7   1411254.258 2
  23948785.042    -1614625.403 5    604844.322 1
  20435316.433   -21916523.039 7 -15651499.216 2
 91  4 24  0  2 44.9990000  0  4 13 02 15 06
  20649003.144   -18028914.475 7 -12945951.247 1
  21199869.948     1814738.384 7   1421601.344 2
  23952307.729    -1596145.447 5    619244.266 1
  20435157.190   -21917364.837 7 -15652155.173 2
 91  4 24  0  2 59.9990000  0  4 13 02 15 06
  20643500.628   -18057837.813 7 -12968488.853 1
  21202405.761     1828060.955 7   1431982.559 2
  23955845.737    -1577533.499 5    633747.082 1
  20435016.440   -21918089.879 7 -15652720.138 3
 91  4 24  0  3 14.9990000  0  4 13 02 15 06
  20638022.644   -18086623.186 7 -12990918.969 1
  21204949.792     1841426.402 7   1442397.182 2
  23959413.839    -1558790.317 5    648352.173 1
  20434903.604   -21918698.701 7 -15653194.537 3
 91  4 24  0  3 29.9990000  0  4 13 02 15 06
  20632570.761   -18115268.078 7 -13013239.610 2
  21207502.894     1854837.342 7   1452847.258 2
  23962998.761    -1539913.449 5    663061.402 1
  20434805.980   -21919188.691 7 -15653576.346 3
 91  4 24  0  3 44.9990000  0  4 13 02 15 06
  20627144.901   -18143773.823 7 -13035451.812 2
  21210062.237     1868292.206 7   1463331.556 2
  23966626.151    -1520904.820 5    677873.322 1
  20434736.784   -21919561.151 7 -15653866.579 3
 91  4 24  0  3 59.9990000  0  4 13 02 15 06
  20621751.894   -18172137.139 7 -13057553.042 1
  21212630.792     1881794.124 7   1473852.527 2
  23970257.214    -1501761.583 5    692790.123 1
  20434690.925   -21919812.815 7 -15654062.678 2
 91  4 24  0  4 14.9990000  0  4 13 02 15 06
  20616380.886   -18200361.081 7 -13079545.660 1
  21215210.081     1895339.942 7   1484407.697 3
  23973940.308    -1482486.529 5    707809.616 1
  20434662.636   -21919946.711 7
 91  4 24  0  4 29.9990000  0  4 13 02 15 06
  20611034.925   -18228444.223 7 -13101428.561 1
  21217798.175     1908931.162 8   1494998.250 3
  23977617.644    -1463078.921 4    722932.408 1
  20434661.948   -21919961.181 7
 91  4 24  0  4 44.9990000  0  3 13 02 06
  20605718.534   -18256387.964 7 -13123202.843 1
  21220390.987     1922566.004 7   1505622.786 3
  20434682.948   -21919857.727 7
 91  4 24  0  4 59.9990000  0  3 13 02 06
  20600427.479   -18284186.845 7 -13144864.248 1
  21222995.370     1936249.891 7   1516285.556 3
  20434724.636   -21919630.743 7
 91  4 24  0  5 14.9990000  0  3 13 02 06
  20595163.948   -18311848.783 7 -13166418.936 1
  21225606.347     1949974.828 7   1526980.311 3
  20434788.675   -21919288.125 7
 91  4 24  0  5 29.9990000  0  3 13 02 06
  20589924.347   -18339371.210 7 -13187864.934 1
  21228226.995     1963743.295 7   1537708.984 3
  20434876.315   -21918827.157 7 -15653294.652 2
 91  4 24  0  5 44.9990000  0  3 13 02 06
  20584714.331   -18366750.153 7 -13209199.119 1
  21230856.112     1977559.274 7   1548474.676 3
  20434986.800   -21918243.708 7 -15652840.022 2
 91  4 24  0  5 59.9990000  0  3 13 02 06
  20579533.292   -18393986.245 7 -13230421.995 2
  21233494.472     1991422.226 7   1559276.972 3
  20435124.597   -21917538.319 7 -15652290.366 2
 91  4 24  0  6 14.9990000  0  3 13 02 06
  20574375.683   -18421082.234 7 -13251535.689 1
  21236140.034     2005329.172 7   1570113.539 2
  20435278.698   -21916713.738 7 -15651647.832 2
 91  4 24  0  6 29.9990000  0  3 13 02 06
  20569247.800   -18448035.828 7 -13272538.435 1
  21238796.354     2019281.929 7   1580985.810 2
  20435459.339   -21915767.850 7 -15650910.776 2
 91  4 24  0  6 44.9990000  0  3 13 02 06
  20564144.425   -18474849.063 7 -13293431.811 1
  21241457.526     2033278.798 8   1591892.437 2
  20435661.519   -21914702.539 7 -15650080.669 2
 91  4 24  0  6 59.9990000  0  3 13 02 06
  20559069.519   -18501519.287 7 -13314213.757 1
  21244132.972     2047322.365 8   1602835.453 2
  20435889.292   -21913514.839 7 -15649155.188 2
 91  4 24  0  7 14.9990000  0  3 13 02 06
  20554021.854   -18528052.167 7 -13334888.663 1
  21246811.370     2061406.691 8   1613810.232 3
  20436137.362   -21912210.430 7 -15648138.764 2
 91  4 24  0  7 29.9990000  0  3 13 02 06
  20549000.956   -18554442.118 7 -13355452.212 1
  21249500.933     2075537.304 8   1624821.082 3
  20436409.847   -21910783.632 7 -15647026.974 2
 91  4 24  0  7 44.9990000  0  3 13 02 06
  20544004.300   -18580691.519 7 -13375906.227 1
  21252197.229     2089711.674 7   1635866.026 3
  20436701.940   -21909236.827 7 -15645821.683 2
 91  4 24  0  7 59.9990000  0  3 13 02 06
  20539034.972   -18606801.679 7 -13396251.753 2
  21254905.550     2103928.544 7   1646944.101 3
  20437020.987   -21907571.203 7 -15644523.804 2
 91  4 24  0  8 14.9990000  0  3 13 02 06
  20534092.573   -18632770.971 7 -13416487.515 2
  21257616.362     2118189.558 7   1658056.580 3
  20437359.878   -21905785.086 7 -15643132.028 2
 91  4 24  0  8 29.9990000  0  3 13 02 06
  20529178.292   -18658595.866 7 -13436610.763 2
  21260339.745     2132498.252 7   1669206.208 3
  20437723.253   -21903874.789 7 -15641643.482 2
 91  4 24  0  8 44.9990000  0  3 13 02 06
  20524290.597   -18684285.072 7 -13456628.281 2
  21263068.292     2146845.691 7   1680386.031 3
  20438108.159   -21901849.185 7 -15640065.088 2
 91  4 24  0  8 59.9990000  0  3 13 02 06
  20519429.269   -18709834.058 7 -13476536.531 2
  21265805.175     2161236.214 7   1691599.430 3
  20438514.292   -21899703.531 7 -15638393.148 2
 91  4 24  0  9 14.9990000  0  3 13 02 06
  20514593.347   -18735244.573 7 -13496336.871 1
  21268551.511     2175667.931 7   1702844.916 3
  20438947.440   -21897439.657 7 -15636629.090 2
 91  4 24  0  9 29.9990000  0  3 13 02 06
  20509785.050   -18760511.695 7 -13516025.497 1
  21271312.073     2190145.807 7   1714126.367 3
  20439401.394   -21895052.420 7 -15634768.904 2
 91  4 24  0  9 44.9990000  0  3 13 02 06
  20505003.940   -18785637.631 7 -13535604.089 1
  21274072.065     2204667.601 8   1725442.026 2
  20439878.636   -21892544.081 7 -15632814.356 2
 91  4 24  0  9 59.9990000  0  3 13 02 06
  20500249.464   -18810619.223 7 -13555070.210 1
  21276845.729     2219236.319 8   1736794.244 2
  20440381.315   -21889911.315 7 -15630762.864 2
 91  4 24  0 10 14.9990000  0  3 13 02 06
  20495523.065   -18835456.108 7 -13574423.585 1
  21279627.980     2233852.621 7   1748183.541 2
  20440903.479   -21887153.483 7 -15628613.917 2
 91  4 24  0 10 29.9990000  0  3 13 02 06
  20490823.300   -18860153.856 7 -13593668.546 2
  21282416.058     2248510.531 7   1759605.270 2
  20441451.925   -21884276.278 7 -15626371.936 3
 91  4 24  0 10 44.9990000  0  3 13 02 06
  20486151.933   -18884707.723 7 -13612801.380 1
  21285211.956     2263214.717 7   1771063.058 2
  20442021.737   -21881275.024 7 -15624033.295 3
 91  4 24  0 10 59.9990000  0  3 13 02 06
  20481504.183   -18909122.546 7 -13631825.858 1
  21288018.698     2277960.212 7   1782553.047 2
  20442617.730   -21878154.355 7 -15621601.599 2
 91  4 24  0 11 14.9990000  0  3 13 02 06
  20476886.081   -18933393.671 7 -13650738.382 1
  21290832.886     2292752.187 7   1794079.258 3
  20443232.276   -21874909.278 7 -15619072.966 2
 91  4 24  0 11 29.9990000  0  3 13 02 06
  20472295.229   -18957523.445 7 -13669540.756 1
  21293656.558     2307587.830 7   1805639.498 3
  20443876.175   -21871542.198 7 -15616449.262 2
 91  4 24  0 11 44.9990000  0  3 13 02 06
  20467730.589   -18981510.821 7 -13688232.163 1
  21296489.558     2322468.265 7   1817234.637 3
  20444539.558   -21868051.977 7 -15613729.617 2
 91  4 24  0 11 59.9990000  0  3 13 02 06
  20463192.354   -19005357.152 7 -13706813.675 1
  21299330.003     2337391.929 7   1828863.460 3
  20445228.854   -21864439.945 7 -15610915.054 2
 91  4 24  0 12 14.9990000  0  3 13 02 06
  20458683.456   -19029060.173 7 -13725283.517 1
  21302176.589     2352361.124 7   1840527.755 3
  20445937.612   -21860703.827 7 -15608003.803 2
 91  4 24  0 12 29.9990000  0  3 13 02 06
  20454197.198   -19052618.873 7 -13743640.894 1
  21305036.276     2367377.076 8   1852228.484 3
  20446672.433   -21856842.290 7 -15604994.816 2
 91  4 24  0 12 44.9990000  0  3 13 02 06
  20449740.597   -19076033.989 7 -13761886.391 1
  21307902.870     2382439.028 8   1863965.055 3
  20447429.800   -21852855.985 7 -15601888.608 2
 91  4 24  0 12 59.9990000  0  3 13 02 06
  20445314.409   -19099304.858 7 -13780019.495 2
  21310777.753     2397547.434 7   1875737.817 3
  20448214.222   -21848744.120 7 -15598684.559 2
 91  4 24  0 13 14.9990000  0  3 13 02 06
  20440914.245   -19122431.451 7 -13798040.164 1
  21313661.136     2412701.948 7   1887546.512 2
  20449019.323   -21844506.900 7 -15595382.831 2
 91  4 24  0 13 29.9990000  0  3 13 02 06
  20436539.940   -19145417.191 7 -13815951.084 1
  21316553.065     2427899.326 7   1899388.610 2
  20449848.464   -21840147.542 7 -15591985.926 2
 91  4 24  0 13 44.9990000  0  3 13 02 06
  20432192.097   -19168261.448 7 -13833751.760 1
  21319455.245     2443140.073 7   1911264.506 2
  20450705.347   -21835665.660 7 -15588493.558 2
 91  4 24  0 13 59.9990000  0  3 13 02 06
  20427875.737   -19190953.965 7 -13851434.198 2
  21322362.409     2458434.626 7   1923182.324 2
  20451581.456   -21831050.515 7 -15584897.342 3
 91  4 24  0 14 14.9990000  0  3 13 02 06
  20423583.073   -19213501.760 7 -13869003.863 1
  21325282.855     2473775.699 7   1935136.390 2
  20452482.886   -21826309.187 7 -15581202.802 2
 91  4 24  0 14 29.9990000  0  3 13 02 06
  20419319.964   -19235908.832 7 -13886463.870 1
  21328210.558     2489159.280 7   1947123.583 3
  20453407.979   -21821445.660 7 -15577413.042 2
 91  4 24  0 14 44.9990000  0  3 13 02 06
  20415080.714   -19258174.689 7 -13903813.845 2
  21331145.644     2504585.904 7   1959144.312 3
  20454357.722   -21816459.145 7 -15573527.451 2
 91  4 24  0 14 59.9990000  0  3 13 02 06
  20410872.589   -19280295.927 7 -13921051.132 1
  21334090.417     2520059.073 7   1971201.322 2
  20455331.073   -21811346.030 7 -15569543.217 2
 91  4 24  0 15 14.9990000  0  3 13 02 06
  20406688.839   -19302271.061 7 -13938174.561 1
  21337043.409     2535580.136 7   1983295.646 3
  20456325.972   -21806104.951 7 -15565459.263 2
 91  4 24  0 15 29.9990000  0  3 13 02 06
  20402533.495   -19324100.781 7 -13955184.702 1
  21340004.456     2551148.613 7   1995426.913 3
  20457350.401   -21800736.420 7 -15561275.994 2
 91  4 24  0 15 44.9990000  0  3 13 02 06
  20398408.644   -19345785.510 7 -13972081.845 1
  21342977.940     2566763.956 7   2007594.706 2
  20458394.347   -21795240.911 7 -15556993.789 2
 91  4 24  0 15 59.9990000  0  3 13 02 06
  20394311.089   -19367329.234 7 -13988869.114 1
  21345957.604     2582422.087 7   2019795.839 2
  20459465.308   -21789622.212 7 -15552615.582 2
 91  4 24  0 16 14.9990000  0  3 13 02 06
  20390238.761   -19388726.701 7 -14005542.407 1
  21348947.604     2598127.945 7   2032034.162 3
  20460558.464   -21783875.119 6 -15548137.323 3
 91  4 24  0 16 29.9990000  0  3 13 02 06
  20386193.612   -19409980.870 7 -14022104.049 1
  21351945.190     2613879.008 7   2044307.702 3
  20461676.495   -21778002.347 7 -15543561.134 2
 91  4 24  0 16 44.9990000  0  3 13 02 06
  20382176.292   -19431092.322 7 -14038554.488 2
  21354951.526     2629674.448 7   2056615.818 2
  20462817.354   -21772004.478 7 -15538887.478 2
 91  4 24  0 16 59.9990000  0  3 13 02 06
  20378187.237   -19452058.576 7 -14054891.784 1
  21357965.339     2645516.788 7   2068960.483 2
  20463980.589   -21765878.779 7 -15534114.208 2
 91  4 24  0 17 14.9990000  0  3 13 02 06
  20374223.292   -19472881.857 7 -14071117.679 1
  21360985.964     2661403.859 7   2081340.002 2
  20465172.253   -21759627.424 7 -15529243.036 2
 91  4 24  0 17 29.9990000  0  3 13 02 06
  20370289.050   -19493559.908 7 -14087230.420 2
  21364020.198     2677337.994 7   2093756.205 2
  20466386.714   -21753248.173 7 -15524272.209 2
 91  4 24  0 17 44.9990000  0  3 13 02 06
  20366382.581   -19514094.786 7 -14103231.570 1
  21367060.542     2693316.912 7   2106207.298 2
  20467623.628   -21746742.945 7 -15519203.207 2
 91  4 24  0 17 59.9990000  0  3 13 02 06
  20362500.854   -19534487.366 7 -14119121.855 1
  21370106.831     2709339.777 7   2118692.645 3
  20468885.433   -21740112.600 7 -15514036.713 2
 91  4 24  0 18 14.9990000  0  3 13 02 06
  20358647.503   -19554736.209 7 -14134900.122 1
  21373167.761     2725408.021 7   2131213.343 2
  20470171.831   -21733355.635 7 -15508771.562 2
 91  4 24  0 18 29.9990000  0  3 13 02 06
  20354821.292   -19574839.612 7 -14150565.073 1
  21376232.480     2741523.354 7   2143770.742 2
  20471479.870   -21726470.214 7 -15503406.304 2
 91  4 24  0 18 44.9990000  0  3 13 02 06
  20351023.229   -19594797.887 7 -14166116.931 1
  21379312.050     2757685.313 7   2156364.472 2
  20472815.183   -21719456.765 7 -15497941.281 2
 91  4 24  0 18 59.9990000  0  3 13 02 06
  20347253.440   -19614613.042 7 -14181557.276 1
  21382392.722     2773891.918 7   2168992.986 2
  20474174.464   -21712316.978 7 -15492377.824 2
 91  4 24  0 19 14.9990000  0  3 13 02 06
  20343508.417   -19634284.887 7 -14196885.943 1
  21385488.136     2790143.447 7   2181656.501 2
  20475557.589   -21705050.623 7 -15486715.737 2
 91  4 24  0 19 29.9990000  0  3 13 02 06
  20339792.550   -19653815.789 7 -14212104.790 1
  21388585.394     2806437.710 7   2194353.314 2
  20476966.534   -21697659.823 7 -15480956.684 2
 91  4 24  0 19 44.9990000  0  3 13 02 06
  20336106.386   -19673201.423 7 -14227210.439 1
  21391694.573     2822779.031 7   2207086.800 2
  20478395.636   -21690140.022 7 -15475097.115 2
 91  4 24  0 19 59.9990000  0  3 13 02 06
  20332441.745   -19692443.848 7 -14242204.478 1
  21394814.886     2839165.285 7   2219855.295 2
  20479851.409   -21682493.366 7 -15469138.700 2
 91  4 24  0 20 14.9990000  0  3 13 02 06
  20328808.690   -19711539.993 7 -14257084.550 1
  21397941.995     2855599.623 7   2232661.255 2
  20481330.604   -21674716.660 7 -15463078.925 3
 91  4 24  0 20 29.9990000  0  3 13 02 06
  20325201.355   -19730495.881 7 -14271855.329 1
  21401079.589     2872076.080 7   2245500.052 2
  20482833.011   -21666815.810 7 -15456922.422 2
 91  4 24  0 20 44.9990000  0  3 13 02 06
  20321622.331   -19749304.744 7 -14286511.552 1
  21404220.050     2888601.439 7   2258376.946 2
  20484362.401   -21658783.878 7 -15450663.785 3
 91  4 24  0 20 59.9990000  0  3 13 02 06
  20318071.847   -19767969.210 7 -14301055.248 1
  21407374.237     2905172.929 7   2271289.791 2
  20485915.417   -21650623.599 7 -15444305.137 2
 91  4 24  0 21 14.9990000  0  3 13 02 06
  20314546.800   -19786488.945 7 -14315486.171 2
  21410535.003     2921790.728 7   2284238.723 2
  20487494.003   -21642334.561 7 -15437846.151 2
 91  4 24  0 21 29.9990000  0  3 13 02 06
  20311049.597   -19804864.160 7 -14329804.491 1
  21413703.128     2938454.833 7   2297223.733 2
  20489094.519   -21633916.719 7 -15431286.818 2
 91  4 24  0 21 44.9990000  0  3 13 02 06
  20307580.089   -19823092.923 7 -14344008.679 2
  21416889.831     2955167.341 7   2310246.459 2
  20490722.425   -21625368.042 7 -15424625.527 2
 91  4 24  0 21 59.9990000  0  3 13 02 06
  20304140.073   -19841172.772 7 -14358096.843 1
  21420078.620     2971930.684 7   2323308.793 2
  20492374.331   -21616685.972 7 -15417860.296 2
 91  4 24  0 22 14.9990000  0  3 13 02 06
  20300727.315   -19859104.815 7 -14372069.828 1
  21423279.659     2988743.645 7   2336409.788 2
  20494050.698   -21607871.604 7 -15410991.967 2
 91  4 24  0 22 29.9990000  0  3 13 02 06
  20297342.870   -19876891.326 7 -14385929.408 1
  21426485.706     3005604.224 7   2349547.870 2
  20495751.440   -21598927.125 7 -15404022.260 2
 91  4 24  0 22 44.9990000  0  3 13 02 06
  20293985.128   -19894534.659 7 -14399677.421 1
  21429704.081     3022509.793 7   2362721.011 2
  20497479.839   -21589854.866 7 -15396952.965 2
 91  4 24  0 22 59.9990000  0  3 13 02 06
  20290655.479   -19912032.677 7 -14413312.202 1
  21432928.565     3039462.563 7   2375930.939 2
  20499230.222   -21580652.469 7 -15389782.272 2
 91  4 24  0 23 14.9990000  0  3 13 02 06
  20287354.401   -19929383.271 7 -14426832.106 1
  21436163.503     3056464.627 7   2389179.279 2
  20501005.394   -21571317.739 7 -15382508.476 2
 91  4 24  0 23 29.9990000  0  3 13 02 06
  20284080.276   -19946590.330 7 -14440240.167 1
  21439405.722     3073511.978 7   2402462.925 2
  20502807.956   -21561854.581 7 -15375134.591 2
 91  4 24  0 23 44.9990000  0  3 13 02 06
  20280832.769   -19963654.675 7 -14453537.022 1
  21442656.440     3090604.147 7   2415781.489 2
  20504633.409   -21552263.529 7 -15367661.055 2
 91  4 24  0 23 59.9990000  0  3 13 02 06
  20277612.526   -19980575.475 7 -14466722.025 1
  21445921.120     3107742.061 7   2429135.702 2
  20506482.058   -21542543.581 7 -15360087.077 2
 91  4 24  0 24 14.9990000  0  3 13 02 06
  20274421.034   -19997350.077 7 -14479793.108 1
  21449193.737     3124928.485 7   2442527.707 2
  20508356.308   -21532692.078 7 -15352410.584 2
 91  4 24  0 24 29.9990000  0  3 13 02 06
  20271255.870   -20013978.142 7 -14492750.008 1
  21452471.269     3142163.622 7   2455957.672 2
  20510254.683   -21522708.602 7 -15344631.269 2
 91  4 24  0 24 44.9990000  0  3 13 02 06
  20268120.167   -20030461.093 7 -14505593.831 1
  21455759.659     3159445.915 7   2469424.374 2
  20512181.690   -21512594.592 7 -15336750.230 2
 91  4 24  0 24 59.9990000  0  3 13 02 06
  20265010.667   -20046801.205 7 -14518326.342 1
  21459058.847     3176773.190 7   2482926.131 2
  20514128.862   -21502352.342 7 -15328769.261 2
 91  4 24  0 25 14.9990000  0  3 13 02 06
  20261925.784   -20063000.895 7 -14530949.437 1
  21462366.995     3194143.314 7   2496461.270 2
  20516103.565   -21491983.815 7 -15320689.900 2
 91  4 24  0 25 29.9990000  0  3 13 02 06
  20258871.636   -20079055.472 7 -14543459.471 1
  21465680.159     3211560.950 7   2510033.424 2
  20518101.370   -21481484.385 7 -15312508.538 2
 91  4 24  0 25 44.9990000  0  3 13 02 06
  20255844.940   -20094969.764 7 -14555860.189 1
  21469000.112     3229021.326 7   2523638.883 1
  20520125.425   -21470858.751 7 -15304228.826 2
 91  4 24  0 25 59.9990000  0  3 13 02 06
  20252843.839   -20110737.979 7 -14568147.077 1
  21472334.190     3246530.263 7   2537282.186 2
  20522169.237   -21460101.009 7 -15295846.171 3
 91  4 24  0 26 14.9990000  0  3 13 02 06
  20249869.409   -20126363.204 7 -14580322.539 1
  21475671.128     3264084.675 7   2550960.919 2
  20524244.940   -21449214.131 7 -15287362.902 2
 91  4 24  0 26 29.9990000  0  3 13 02 06
  20246924.222   -20141843.512 7 -14592385.086 1
  21479024.558     3281686.496 7   2564676.606 2
  20526339.214   -21438196.047 7 -15278777.383 2
 91  4 24  0 26 44.9990000  0  3 13 02 06
  20244005.940   -20157183.031 7 -14604337.911 1
  21482377.925     3299331.766 7   2578426.154 2
  20528458.683   -21427050.768 7 -15270092.756 2
 91  4 24  0 26 59.9990000  0  3 13 02 06
  20241113.886   -20172378.887 7 -14616178.810 1
  21485749.292     3317023.410 7   2592211.832 2
  20530606.151   -21415775.333 7 -15261306.719 2
 91  4 24  0 27 14.9990000  0  3 13 02 06
  20238248.644   -20187430.699 7 -14627907.460 1
  21489123.425     3334761.771 7   2606033.917 2
  20532774.940   -21404369.400 7 -15252418.995 2
 91  4 24  0 27 29.9990000  0  3 13 02 06
  20235411.370   -20202341.418 7 -14639526.167 1
  21492507.589     3352544.126 7   2619890.283 2
  20534970.901   -21392835.589 7 -15243431.630 2
 91  4 24  0 27 44.9990000  0  3 13 02 06
  20232601.917   -20217109.544 7 -14651033.759 1
  21495900.120     3370372.055 7   2633782.156 2
  20537187.659   -21381172.310 7 -15234343.374 2
 91  4 24  0 27 59.9990000  0  3 13 02 06
  20229818.651   -20231732.963 7 -14662428.609 1
  21499302.136     3388247.670 7   2647711.187 2
  20539433.417   -21369377.377 7 -15225152.527 2
 91  4 24  0 28 14.9990000  0  3 13 02 06
  20227063.026   -20246211.714 7 -14673710.712 1
  21502716.409     3406170.664 7   2661677.144 3
  20541703.081   -21357451.040 7 -15215859.283 2
 91  4 24  0 28 29.9990000  0  3 13 02 06
  20224334.597   -20260549.701 7 -14684883.136 1
  21506132.870     3424137.250 7   2675677.063 2
  20543995.722   -21345396.904 7 -15206466.466 2
 91  4 24  0 28 44.9990000  0  3 13 02 06
  20221633.612   -20274747.903 7 -14695946.641 1
  21509555.683     3442146.531 7   2689710.243 2
  20546315.534   -21333215.951 7 -15196974.817 2
 91  4 24  0 28 59.9990000  0  3 13 02 06
  20218958.972   -20288804.808 7 -14706900.034 1
  21512990.870     3460200.433 7   2703778.206 2
  20548660.800   -21320906.182 7 -15187382.798 2
 91  4 24  0 29 14.9990000  0  3 13 02 06
  20216311.237   -20302718.638 7 -14717741.948 1
  21516437.964     3478300.892 7   2717882.438 2
  20551027.151   -21308465.688 7 -15177688.938 2
 91  4 24  0 29 29.9990000  0  3 13 02 06
  20213689.269   -20316486.370 7 -14728470.026 1
  21519888.144     3496450.790 7   2732025.193 1
  20553418.979   -21295891.587 7 -15167890.961 2
 91  4 24  0 29 44.9990000  0  3 13 02 06
  20211098.159   -20330112.205 7 -14739087.528 1
  21523352.136     3514646.146 7   2746203.368 2
  20555835.276   -21283188.072 7 -15157992.125 2
 91  4 24  0 29 59.9990000  0  3 13 02 06
  20208531.987   -20343597.379 7 -14749595.424 1
  21526825.894     3532885.628 7   2760415.931 2
  20558278.058   -21270356.249 7 -15147993.314 2
 91  4 24  0 30 14.9990000  0  3 13 02 06
  20205992.378   -20356938.618 7 -14759991.166 1
  21530304.808     3551172.491 7   2774665.405 2
  20560743.909   -21257392.562 7 -15137891.772 2
 91  4 24  0 30 29.9990000  0  3 13 02 06
  20203480.503   -20370135.997 7 -14770274.814 1
  21533796.019     3569506.994 7   2788952.006 2
  20563237.745   -21244296.984 7 -15127687.424 2
 91  4 24  0 30 44.9990000  0  3 13 02 06
  20200997.128   -20383190.615 7 -14780447.210 1
  21537295.386     3587888.122 7   2803274.938 2
  20565752.886   -21231070.435 7 -15117381.034 2
 91  4 24  0 30 59.9990000  0  3 13 02 06
  20198539.823   -20396102.883 7 -14790508.690 1
  21540798.683     3606315.465 7   2817633.893 3
  20568297.229   -21217713.322 7 -15106972.913 3
 91  4 24  0 31 14.9990000  0  3 13 02 06
  20196110.831   -20408870.621 7 -14800457.551 1
  21544314.245     3624791.315 7   2832030.639 2
  20570862.925   -21204223.348 7 -15096461.261 2
 91  4 24  0 31 29.9990000  0  3 13 02 06
  20193709.206   -20421495.263 7 -14810294.903 1
  21547837.597     3643314.345 7   2846464.156 3
  20573454.597   -21190601.925 7 -15085847.178 2
 91  4 24  0 31 44.9990000  0  3 13 02 06
  20191331.558   -20433978.932 7 -14820022.404 1
  21551369.948     3661882.539 7   2860932.860 2
  20576071.065   -21176850.980 7 -15075132.184 2
 91  4 24  0 31 59.9990000  0  3 13 02 06
  20188983.276   -20446322.991 7 -14829641.136 1
  21554916.854     3680494.376 7   2875435.563 2
  20578713.019   -21162971.850 7 -15064317.295 2
 91  4 24  0 32 14.9990000  0  3 13 02 06
  20186660.659   -20458522.466 7 -14839147.182 1
  21558466.089     3699155.018 7   2889976.295 2
  20581378.190   -21148959.578 7 -15053398.673 2
 91  4 24  0 32 29.9990000  0  3 13 02 06
  20184366.675   -20470579.784 8 -14848542.464 1
  21562023.151     3717862.024 7   2904553.164 2
  20584068.151   -21134816.362 7 -15042377.999 2
 91  4 24  0 32 44.9990000  0  3 13 02 06
  20182100.886   -20482490.287 7 -14857823.347 1
  21565592.386     3736620.317 7   2919170.003 2
  20586788.128   -21120537.111 7 -15031251.321 2
 91  4 24  0 32 59.9990000  0  3 13 02 06
  20179860.909   -20494258.498 7 -14866993.356 1
  21569170.933     3755425.323 7   2933823.238 2
  20589530.964   -21106126.714 7 -15020022.466 2
 91  4 24  0 33 14.9990000  0  3 13 02 06
  20177649.042   -20505881.826 7 -14876050.478 1
  21572759.972     3774280.104 7   2948515.247 2
  20592299.776   -21091582.113 7 -15008689.031 2
 91  4 24  0 33 29.9990000  0  3 13 02 06
  20175462.284   -20517364.166 7 -14884997.726 1
  21576359.011     3793180.676 7   2963242.924 2
  20595090.034   -21076907.072 7 -14997253.943 2
 91  4 24  0 33 44.9990000  0  3 13 02 06
  20173305.253   -20528705.354 7 -14893834.989 1
  21579965.315     3812127.137 7   2978006.370 2
  20597907.894   -21062101.526 7 -14985717.168 2
 91  4 24  0 33 59.9990000  0  3 13 02 06
  20171174.315   -20539904.593 7 -14902561.649 1
  21583577.315     3831120.565 7   2992806.403 2
  20600751.448   -21047164.668 7 -14974078.076 2
 91  4 24  0 34 14.9990000  0  3 13 02 06
  20169070.425   -20550961.876 7 -14911177.682 1
  21587205.847     3850161.006 7   3007643.082 2
  20603615.722   -21032096.254 7 -14962336.474 2
 91  4 24  0 34 29.9990000  0  3 13 02 06
  20166994.558   -20561876.682 7 -14919682.697 1
  21590833.784     3869249.054 7   3022516.864 2
  20606512.620   -21016895.394 7 -14950491.669 2
 91  4 24  0 34 44.9990000  0  3 13 02 06
  20164943.050   -20572647.566 7 -14928075.563 1
  21594479.417     3888386.233 7   3037428.941 2
  20609428.628   -21001560.837 7 -14938542.686 2
 91  4 24  0 34 59.9990000  0  3 13 02 06
  20162921.456   -20583278.605 7 -14936359.461 1
  21598123.136     3907568.812 7   3052376.393 2
  20612372.112   -20986096.482 7 -14926492.561 2
 91  4 24  0 35 14.9990000  0  3 13 02 06
  20160925.737   -20593769.819 7 -14944534.401 1
  21601785.081     3926796.772 7   3067359.211 2
  20615337.659   -20970502.003 7 -14914341.051 2
 91  4 24  0 35 29.9990000  0  3 13 02 06
  20158955.081   -20604120.300 7 -14952599.682 1
  21605453.581     3946071.136 7   3082378.180 2
  20618329.870   -20954776.614 7 -14902087.524 2
 91  4 24  0 35 44.9990000  0  3 13 02 06
  20157012.417   -20614329.154 7 -14960554.613 1
  21609129.222     3965392.880 7   3097434.059 2
  20621349.714   -20938919.340 7 -14889731.225 2
 91  4 24  0 35 59.9990000  0  3 13 02 06
  20155097.417   -20624394.141 7 -14968397.433 1
  21612813.401     3984764.271 7   3112528.631 1
  20624393.058   -20922927.958 7 -14877270.426 1
 91  4 24  0 36 14.9990000  0  3 13 02 06
  20153206.995   -20634316.880 7 -14976129.411 1
  21616514.581     4004183.883 7   3127660.771 1
  20627459.472   -20906803.706 7 -14864706.095 2
 91  4 24  0 36 29.9990000  0  3 13 02 06
  20151347.956   -20644096.893 7 -14983750.180 1
  21620219.456     4023652.364 7   3142830.983 1
  20630552.519   -20890546.063 7 -14852037.820 2
 91  4 24  0 36 44.9990000  0  3 13 02 06
  20149514.925   -20653730.721 7 -14991257.025 1
  21623928.237     4043173.388 7   3158042.131 1
  20633673.323   -20874151.333 7 -14839262.724 2
 91  4 24  0 36 59.9990000  0  3 13 02 06
  20147708.519   -20663220.365 7 -14998651.536 1
  21627652.667     4062745.187 7   3173292.852 2
  20636817.972   -20857621.342 7 -14826382.239 2
 91  4 24  0 37 14.9990000  0  3 13 02 06
  20145929.862   -20672566.968 7 -15005934.569 1
  21631391.073     4082366.294 7   3188582.001 2
  20639989.034   -20840957.531 7 -14813397.471 2
 91  4 24  0 37 29.9990000  0  3 13 02 06
  20144177.917   -20681770.699 7 -15013106.289 1
  21635130.956     4102036.881 7   3203909.699 2
  20643189.487   -20824159.781 7 -14800308.327 2
 91  4 24  0 37 44.9990000  0  3 13 02 06
  20142452.776   -20690837.600 7 -15020171.377 1
  21638882.737     4121750.828 7   3219271.184 2
  20646409.948   -20807234.192 7 -14787119.586 2
 91  4 24  0 37 59.9990000  0  3 13 02 06
  20140755.784   -20699753.631 7 -15027118.915 1
  21642648.472     4141522.552 7   3234677.696 2
  20649653.308   -20790166.191 7 -14773819.870 2
 91  4 24  0 38 14.9990000  0  3 13 02 06
  20139086.011   -20708528.977 7 -15033956.826 1
  21646415.237     4161342.148 7   3250121.514 2
  20652926.776   -20772965.933 7 -14760417.093 2
 91  4 24  0 38 29.9990000  0  3 13 02 06
  20137443.792   -20717160.725 8 -15040682.842 1
  21650199.487     4181212.426 7   3265604.823 2
  20656229.151   -20755630.488 7 -14746908.982 2
 91  4 24  0 38 44.9990000  0  3 13 02 06
  20135826.979   -20725652.189 7 -15047299.542 1
  21653989.050     4201130.280 7   3281125.214 2
  20659550.706   -20738163.050 7 -14733298.023 2
 91  4 24  0 38 59.9990000  0  3 13 02 06
  20134238.597   -20734005.836 8 -15053808.850 1
  21657786.862     4221093.156 7   3296680.676 2
  20662901.065   -20720566.194 7 -14719586.213 2
 91  4 24  0 39 14.9990000  0  3 13 02 06
  20132675.558   -20742219.049 8 -15060208.735 1
  21661596.792     4241103.979 7   3312273.490 2
  20666274.011   -20702836.893 7 -14705771.197 2
 91  4 24  0 39 29.9990000  0  3 13 02 06
  20131138.628   -20750294.623 8 -15066501.367 1
  21665411.729     4261160.214 7   3327901.691 2
  20669672.925   -20684977.871 7 -14691855.106 2
 91  4 24  0 39 44.9990000  0  3 13 02 06
  20129629.222   -20758225.283 8 -15072681.065 1
  21669241.604     4281269.368 7   3343571.126 2
  20673095.683   -20666981.625 7 -14677832.085 2
 91  4 24  0 39 59.9990000  0  3 13 02 06
  20128145.800   -20766016.601 8 -15078752.194 1
  21673073.940     4301425.793 7   3359277.400 2
  20676547.355   -20648853.860 7 -14663706.585 2
 91  4 24  0 40 14.9990000  0  3 13 02 06
  20126689.503   -20773670.615 8 -15084716.333 1
  21676916.417     4321627.296 7   3375018.806 2
  20680023.995   -20630596.569 7 -14649480.161 2
 91  4 24  0 40 29.9990000  0  3 13 02 06
  20125260.081   -20781182.546 8 -15090569.761 1
  21680774.112     4341879.254 7   3390799.523 2
  20683520.675   -20612204.659 7 -14635148.824 2
 91  4 24  0 40 44.9990000  0  3 13 02 06
  20123858.870   -20788550.495 8 -15096310.998 1
  21684637.604     4362183.473 7   3406620.962 2
  20687046.034   -20593676.387 7 -14620711.238 2
 91  4 24  0 40 59.9990000  0  3 13 02 06
  20122481.776   -20795778.243 7 -15101942.987 1
  21688509.253     4382536.295 7   3422480.278 2
  20690597.104   -20575015.157 7 -14606170.046 2
 91  4 24  0 41 14.9990000  0  3 13 02 06
  20121133.183   -20802867.806 8 -15107467.302 1
  21692392.909     4402935.898 7   3438376.040 2
  20694170.870   -20556222.786 7 -14591526.665 2
 91  4 24  0 41 29.9990000  0  3 13 02 06
  20119811.862   -20809816.361 8 -15112881.730 1
  21696283.198     4423385.289 7   3454310.610 2
  20697772.972   -20537296.526 7 -14576778.938 2
 91  4 24  0 41 44.9990000  0  3 13 02 06
  20118516.198   -20816627.769 8 -15118189.306 1
  21700182.979     4443880.848 7   3470281.142 2
  20701400.690   -20518240.146 7 -14561929.844 2
 91  4 24  0 41 59.9990000  0  3 13 02 06
  20117245.097   -20823299.453 8 -15123387.997 1
  21704091.769     4464425.402 7   3486289.868 2
  20705051.612   -20499050.734 7 -14546977.080 2
 91  4 24  0 42 14.9990000  0  3 13 02 06
  20116003.183   -20829830.279 8 -15128476.927 1
  21708010.565     4485020.117 7   3502337.679 2
  20708731.995   -20479727.233 7 -14531919.826 2
 91  4 24  0 42 29.9990000  0  3 13 02 06
  20114787.565   -20836219.838 8 -15133455.779 1
  21711939.636     4505665.368 7   3518424.854 2
  20712435.276   -20460269.143 7 -14516757.706 2
 91  4 24  0 42 44.9990000  0  4 13 02 12 06
  20113597.339   -20842471.273 8 -15138326.998 1
  21715876.409     4526358.191 7   3534549.096 2
  24009344.550          -0.37614
  20716160.097   -20440679.510 7 -14501493.097 2
 91  4 24  0 42 59.9990000  0  4 13 02 12 06
  20112434.917   -20848584.082 8 -15143090.209 1
  21719828.394     4547099.357 7   3550711.014 2
  23999794.792      -50182.314 3
  20719912.526   -20420957.519 7 -14486125.344 2
 91  4 24  0 43 14.9990000  0  4 13 02 12 06
  20111299.464   -20854554.119 8 -15147742.169 1
  21723781.331     4567893.516 7   3566914.214 2
  23990250.800     -100351.451 3
  20723694.683   -20401098.731 7 -14470650.994 2
 91  4 24  0 43 29.9990000  0  4 13 02 12 06
  20110188.690   -20860383.925 7 -15152284.851 1
  21727751.386     4588738.018 7   3583156.657 2
  23980700.487     -150510.277 3
  20727494.792   -20381105.891 7 -14455072.177 2
 91  4 24  0 43 44.9990000  0  4 13 02 12 06
  20109106.308   -20866074.459 8 -15156719.015 1
  21731718.378     4609631.996 7   3599437.653 2
  23971154.323     -200659.314 4
  20731329.456   -20360979.833 7 -14439389.560 2
 91  4 24  0 43 59.9990000  0  4 13 02 12 06
  20108048.706   -20871631.690 8 -15161049.301 1
  21735707.315     4630569.837 7   3615752.824 2
  23961620.644     -250804.071 4        -0.49911
  20735181.331   -20340726.450 7 -14423607.727 2
